     2              Observation         GPS                 RINEX VERSION / TYPE
teqc 1998Oct22 19990510 17:53:09UTC                         PGM / RUN BY / DATE
                                                            COMMENT
Original Marker Name: CD14                                  COMMENT
Campaign Name: northern baja california 1999                COMMENT
4-Character Station Name: CD14                              COMMENT
6-Character Antenna Code: DMRCHT                            COMMENT
Vertical Measurement Point: BCR                             COMMENT
Vertical Offset to Rinex Ref. Point: 0.0349                 COMMENT
Radial Measurement Point: ECF                               COMMENT
Radial Offset to Rinex Ref. Point: 0.1896                   COMMENT
Antenna Height from Field Measurement: 1.2500 m             COMMENT
Additional Antenna Identification Info.:                    COMMENT
Turborogue and Ashtech Choke Ring                           COMMENT
Revised Rinex header created by UCSD GPS archive for        COMMENT
SCEC DC on 07-Jul-1999 (1999.188) 20:43:43 GMT              COMMENT
For assistance contact dagnew@ucsd.edu or hjohnson@ucsd.edu COMMENT
                                                            COMMENT
NONE                                                        MARKER NAME
JRO CICESE (ENSENADA)                                       OBSERVER / AGENCY
312 ASHTECH Z12-XII3 1F50                                   REC # / TYPE / VERS
653 DORNE-MARGOL. TYPE T                                    ANT # / TYPE
        0.0000        0.0000        0.0000                  APPROX POSITION XYZ
        1.2006        0.0000        0.0000                  ANTENNA: DELTA H/E/N
     1     1     0                                          WAVELENGTH FACT L1/2
     7    C1    L1    L2    P1    P2    S1    S2            # / TYPES OF OBSERV
     0                                                      INTERVAL
  1999     4    23    17    46   30.000000                  TIME OF FIRST OBS
  1999     4    23    23    59   30.000000                  TIME OF LAST OBS
                                                            END OF HEADER
 99  4 23 17 46 30.0000000  0  5G 2G24G 7G 4G 9
  22414668.526         727.13849       515.00646  22414667.579    22414674.122
       230.000         180.000
  22937552.444     -354182.19549   -244725.53846  22937551.613    22937560.350
       221.000         165.000
  21767882.618       16989.19849     11992.37647  21767882.049    21767886.971
       239.000         200.000
  20808612.429     -252108.60849   -177476.51647  20808612.677    20808616.891
       245.000         210.000
  21734026.693     -215319.47949   -153541.68147  21734026.397    21734030.670
       241.000         201.000
 99  4 23 17 47  0.0000000  0  6G26G 2G24G 7G 4G 9
                     42394.91944                                  24610004.675
       212.000         129.000
  22414789.858        1363.53949      1010.83346  22414788.964    22414795.584
       230.000         182.000
  22908819.994     -505171.31549   -362379.25246  22908819.234    22908828.309
       224.000         168.000
  21769088.160       23320.73749     16926.02047  21769086.795    21769091.923
       239.000         200.000
  20789748.715     -351239.30949   -254721.17947  20789748.686    20789753.281
       245.000         211.000
  21716107.011     -309487.90449   -226919.66447  21716106.902    21716111.560
       241.000         202.000
 99  4 23 17 47 30.0000000  0  6G26G 2G24G 7G 4G 9
  24479510.163     -626638.31349   -491915.72245  24479509.958    24479520.006
       211.000         144.000
  22280598.734     -703816.08749   -548479.84146  22280597.993    22280604.287
       229.000         183.000
  22745762.786    -1362043.90049  -1030072.03246  22745763.406    22745771.072
       226.000         170.000
  21635952.815     -676308.70749   -528239.80647  21635951.632    21635956.328
       239.000         199.000
  20636621.664    -1155926.63849   -881750.22447  20636621.444    20636626.518
       245.000         211.000
  21563917.866    -1109247.35149   -850108.83247  21563917.830    21563922.455
       242.000         202.000
 99  4 23 17 48  0.0000000  0  6G26G 2G24G 7G 4G 9
  24492690.997     -557372.87949   -437942.81345  24492690.843    24492700.457
       212.000         148.000
  22290110.495     -653831.02749   -509530.49646  22290109.778    22290116.147
       228.000         183.000
  22726396.277    -1463817.23349  -1109375.79846  22726396.063    22726403.509
       226.000         171.000
  21646490.037     -620934.15349   -485090.82847  21646489.127    21646494.277
       238.000         199.000
  20627244.708    -1205202.53749   -920146.98247  20627244.536    20627249.526
       245.000         211.000
  21555473.203    -1153624.41149   -884688.35047  21555473.037    21555477.433
       241.000         202.000
 99  4 23 17 48 30.0000000  0  6G26G 2G24G 7G 4G 9
  24505899.667     -487963.15949   -383857.45845  24505901.288    24505907.820
       216.000         148.000
  22299686.264     -603509.96249   -470319.32546  22299685.569    22299691.677
       228.000         182.000
  22707084.067    -1565303.75049  -1188456.07646  22707083.463    22707092.796
       225.000         170.000
  21657065.113     -565361.54949   -441787.52647  21657064.216    21657068.837
       238.000         199.000
  20617981.156    -1253882.64249   -958079.49647  20617981.189    20617985.688
       244.000         211.000
  21547134.614    -1197444.00449   -918833.48947  21547134.279    21547138.665
       241.000         202.000
 99  4 23 17 49  0.0000000  0  7G26G 2G24G 8G 7G 4G 9
  24519114.617     -418520.62649   -329746.46945  24519115.180    24519124.880
       214.000         147.000
  22309303.136     -552972.99749   -430939.93946  22309302.311    22309308.895
       229.000         179.000
  22687804.778    -1666616.74749  -1267401.14046  22687805.099    22687811.982
       225.000         168.000
  24040896.549    -1005385.54949   -730183.45745  24040895.694    24040901.163
       209.000         138.000
  21667656.344     -509704.50549                                  21667538.545
       239.000         171.000
  20608808.711    -1302084.27049   -995639.16147  20608808.769    20608813.471
       246.000         209.000
  21538880.437    -1240820.42349   -952633.28447  21538880.423    21538884.062
       241.000         199.000
 99  4 23 17 49 30.0000000  0  7G26G 2G24G 8G 7G 4G 9
  24532337.865     -349032.41949   -275599.96345  24532337.016    24532347.621
       209.000         148.000
  22318966.297     -502192.53549   -391370.81846  22318965.252    22318972.091
       229.000         180.000
  22668562.532    -1767734.68249  -1346194.22146  22668561.511    22668570.122
       224.000         169.000
  24021250.017    -1108629.76249   -810633.41145  24021247.386    24021255.769
       207.000         140.000
  21678267.757     -453941.04849   -354966.19047  21678267.068    21678272.018
       239.000         189.000
  20599732.642    -1349779.56049  -1032804.27947  20599732.582    20599736.995
       245.000         211.000
  21530714.615    -1283732.14449   -986070.98247  21530713.987    21530718.965
       240.000         202.000
 99  4 23 17 50  0.0000000  0  7G26G 2G24G 8G 7G 4G 9
  24545576.435     -279462.66049   -221389.90445  24545576.361    24545585.456
       211.000         147.000
  22328686.121     -451114.70949   -351569.97546  22328685.513    22328691.290
       232.000         181.000
  22649368.422    -1868599.81749  -1424790.32346  22649367.659    22649374.470
       225.000         170.000
  24001650.443    -1211625.58149   -890889.83345  24001649.953    24001656.219
       206.000         139.000
  21688910.118     -398015.26449   -311387.67947  21688909.251    21688914.070
       238.000         196.000
  20590766.870    -1396894.88449  -1069517.47647  20590766.779    20590771.539
       245.000         211.000
  21522648.809    -1326117.87149  -1019098.80447  21522648.101    21522653.415
       240.000         202.000
 99  4 23 17 50 30.0000000  0  7G26G 2G24G 8G 7G 4G 9
  24558823.458     -209849.94849   -167146.36645  24558823.320    24558833.459
       212.000         148.000
  22338459.042     -399758.38649   -311552.13546  22338458.867    22338465.233
       232.000         183.000
  22630215.737    -1969247.12249  -1503216.69146  22630215.598    22630222.334
       224.000         171.000
  23982097.156    -1314377.95449   -970956.53645  23982096.110    23982101.928
       203.000         137.000
  21699581.057     -341939.00449   -267691.91747  21699580.513    21699585.407
       238.000         197.000
  20581909.549    -1443440.35849  -1105786.64147  20581909.351    20581914.220
       245.000         211.000
  21514681.437    -1367985.97549  -1051723.29547  21514681.356    21514686.080
       239.000         202.000
 99  4 23 17 51  0.0000000  0  7G26G 2G24G 8G 7G 4G 9
  24572094.327     -140111.02249   -112804.48245  24572094.293    24572103.826
       209.000         145.000
  22348305.308     -348016.71249   -271234.02346  22348304.860    22348311.757
       232.000         184.000
  22611119.997    -2069595.56749  -1581410.16046  22611119.628    22611127.331
       226.000         171.000
  23962606.164    -1416801.76349  -1050767.25245  23962605.523    23962612.706
       204.000         137.000
  21710294.918     -285637.54049   -223820.67047  21710294.106    21710298.947
       237.000         197.000
  20573178.069    -1489324.63349  -1141540.58047  20573178.105    20573182.660
       245.000         211.000
  21506830.639    -1409242.11449  -1083870.92047  21506830.721    21506835.230
       242.000         203.000
 99  4 23 17 51 30.0000000  0  7G26G 2G24G 8G 7G 4G 9
  24585370.174      -70345.73649    -58442.04845  24585370.212    24585378.724
       209.000         143.000
  22358207.216     -295982.42349   -230687.89546  22358206.526    22358213.817
       231.000         185.000
  22592065.888    -2169725.88049  -1659433.69046  22592065.299    22592072.637
       224.000         172.000
  23943164.217    -1518969.98449  -1130378.75045  23943163.143    23943171.723
       207.000         139.000
  21721034.749     -229199.41749   -179842.93347  21721033.631    21721038.767
       236.000         196.000
  20564558.230    -1534622.36049  -1176837.46347  20564558.382    20564562.800
       246.000         211.000
  21499079.321    -1449975.68149  -1115611.35347  21499079.287    21499083.925
       242.000         203.000
 99  4 23 17 52  0.0000000  0  7G26G 2G24G 8G 7G 4G 9
  24598622.109        -706.16749     -4177.58645  24598621.848    24598630.093
       208.000         141.000
  22368135.045     -243812.01649   -190035.69846  22368134.333    22368141.210
       230.000         185.000
  22573027.072    -2269775.72749  -1737394.50046  22573026.559    22573034.775
       225.000         172.000
  23923745.159    -1621018.50849  -1209897.02745  23923744.057    23923751.778
       208.000         141.000
  21731771.526     -172776.49249   -135877.04147  21731771.088    21731776.248
       236.000         195.000
  20556021.767    -1579481.78149  -1211792.80247  20556021.852    20556026.415
       245.000         212.000
  21491399.199    -1490335.57549  -1147060.61047  21491398.784    21491403.984
       242.000         203.000
 99  4 23 17 52 30.0000000  0  7G26G 2G24G 8G 7G 4G 9
  24611882.062       68976.55549     50120.53745  24611881.519    24611890.755
       206.000         137.000
  22378122.250     -191329.17049   -149140.03646  22378121.289    22378128.383
       231.000         185.000
  22554040.979    -2369547.91949  -1815138.97746  22554040.942    22554047.274
       226.000         173.000
  23904380.167    -1722782.16749  -1289193.29745  23904378.453    23904386.301
       209.000         143.000
  21742536.998     -116203.56849    -91794.26947  21742536.425    21742541.269
       236.000         195.000
  20547603.804    -1623718.25849  -1246262.74047  20547603.710    20547608.145
       245.000         211.000
  21483823.834    -1530144.41149  -1178080.47247  21483823.688    21483828.357
       242.000         203.000
 99  4 23 17 53  0.0000000  0  7G26G 2G24G 8G 7G 4G 9
  24625148.011      138689.09049    104441.86545  24625149.614    24625158.286
       208.000         139.000
  22388166.654     -138546.09249   -108010.42946  22388165.955    22388173.288
       231.000         185.000
  22535110.748    -2469026.47749  -1892654.64746  22535110.188    22535117.930
       226.000         172.000
  23885066.075    -1824278.53749  -1368281.31245  23885064.624    23885072.989
       208.000         145.000
  21753325.632      -59509.42749    -47617.04547  21753324.966    21753330.428
       236.000         194.000
  20539302.805    -1667340.50449  -1280254.06747  20539302.667    20539307.194
       245.000         211.000
  21476350.808    -1569415.40449  -1208681.23947  21476350.702    21476355.537
       242.000         204.000
 99  4 23 17 53 30.0000000  0  7G26G 2G24G 8G 7G 4G 9
  24638420.142      208432.71249    158787.41945  24638421.336    24638431.159
       212.000         142.000
  22398267.811      -85464.54449    -66648.26246  22398267.642    22398274.034
       235.000         185.000
  22516238.193    -2568202.18449  -1969934.29046  22516237.263    22516244.290
       224.000         172.000
  23865803.742    -1925503.21849  -1447157.58345  23865803.858    23865810.491
       212.000         149.000
  21764137.460       -2693.08749     -3344.58647  21764136.592    21764142.605
       232.000         192.000
  20531117.631    -1710353.81749  -1313770.87347  20531117.433    20531121.827
       242.000         210.000
  21468979.725    -1608151.03749  -1238864.82847  21468979.375    21468984.074
       243.000         204.000
 99  4 23 17 54  0.0000000  0  7G26G 2G24G 8G 7G 4G 9
  24651698.777      278210.71749    213159.76545  24651698.244    24651707.865
       211.000         145.000
  22408429.488      -32065.28549    -25038.51146  22408428.268    22408435.120
       230.000         183.000
  22497420.758    -2667088.47849  -2046988.47246  22497420.820    22497427.363
       228.000         173.000
  23846592.158    -2026461.04049  -1525825.93845  23846590.969    23846597.716
       210.000         149.000
  21774972.352       54244.65849     41022.45847  21774971.451    21774976.947
       235.000         193.000
  20523045.303    -1752773.94149  -1346825.49747  20523045.311    20523049.538
       246.000         212.000
  21461712.199    -1646342.03249  -1268624.03847  21461712.106    21461716.617
       242.000         203.000
 99  4 23 17 54 30.0000000  0  7G26G 2G24G 8G 7G 4G 9
  24664973.087      347966.73349    267514.94945  24664974.164    24664983.643
       208.000         146.000
  22418642.835       21606.15249     16783.30646  22418642.197    22418649.630
       230.000         182.000
  22478645.537    -2765753.08349  -2123869.87946  22478645.088    22478652.349
       226.000         175.000
  23827418.597    -2127218.42049  -1604338.08745  23827417.742    23827425.821
       209.000         148.000
  21785820.157      111250.14449     85442.28847  21785819.351    21785824.635
       235.000         192.000
  20515075.879    -1794653.92049  -1379459.20247  20515075.988    20515080.158
       246.000         212.000
  21454538.748    -1684039.00849  -1297998.29747  21454538.492    21454543.257
       243.000         204.000
 99  4 23 17 55  0.0000000  0  7G26G 2G24G 8G 7G 4G 9
  24678246.769      417719.10049    321867.29745  24678246.965    24678256.561
       211.000         144.000
  22428909.508       75558.07449     58823.68546  22428908.620    22428915.895
       229.000         182.000
  22459910.625    -2864205.55449  -2200585.98546  22459909.558    22459917.143
       226.000         176.000
  23808286.681    -2227757.10549  -1682679.82645  23808285.797    23808291.934
       210.000         149.000
  21796683.713      168337.87549    129926.20847  21796683.320    21796688.374
       234.000         192.000
  20507206.255    -1836009.28749  -1411684.12047  20507206.197    20507210.804
       246.000         212.000
  21447460.325    -1721236.74449  -1326983.53247  21447459.882    21447464.728
       243.000         205.000
 99  4 23 17 55 30.0000000  0  7G26G 2G24G 8G 7G 4G 9
  24691521.324      487476.75749    376223.79845  24691521.266    24691532.584
       207.000         142.000
  22439231.027      129797.79449    101088.32646  22439230.354    22439237.677
       229.000         182.000
  22441215.945    -2962446.40949  -2277137.19746  22441214.261    22441223.750
       227.000         177.000
  23789199.981    -2328058.68949  -1760836.83545  23789199.600    23789206.128
       215.000         149.000
  21807568.378      225536.90349    174496.85847  21807567.285    21807573.286
       235.000         192.000
  20499439.783    -1876822.25849  -1443486.40247  20499439.773    20499444.349
       245.000         212.000
  21440480.160    -1757918.05949  -1355566.36447  21440479.905    21440484.453
       243.000         205.000
 99  4 23 17 56  0.0000000  0  7G26G 2G24G 8G 7G 4G 9
  24704796.434      557237.67549    430582.75245  24704796.195    24704805.772
       208.000         142.000
  22449604.772      184311.15949    143566.20246  22449604.762    22449610.433
       231.000         182.000
  22422561.585    -3060475.15449  -2353523.13046  22422561.084    22422568.248
       227.000         178.000
  23770159.190    -2428119.56349  -1838806.26445  23770158.732    23770165.799
       213.000         150.000
  21818476.692      282860.09949    219164.26447  21818475.893    21818481.524
       234.000         191.000
  20491779.117    -1917079.48249  -1474855.63747  20491779.206    20491783.654
       245.000         212.000
  21433600.849    -1794069.29449  -1383736.14347  21433600.807    21433605.137
       244.000         205.000
 99  4 23 17 56 30.0000000  0  7G26G 2G24G 8G 7G 4G 9
  24718071.058      626995.27149    484939.18345  24718072.654    24718081.407
       211.000         143.000
  22460027.213      239080.48349    186243.52546  22460027.107    22460032.958
       229.000         182.000
  22403953.751    -3158259.68449  -2429718.76146  22403952.696    22403960.673
       227.000         178.000
  23751165.106    -2527933.66149  -1916583.42845  23751164.151    23751171.198
       214.000         150.000
  21829407.871      340303.37949    263925.22247  21829407.106    21829412.511
       234.000         191.000
  20484225.774    -1956772.36149  -1505785.11848  20484225.816    20484230.291
       246.000         213.000
  21426822.181    -1829691.95449  -1411494.05147  21426822.170    21426826.229
       243.000         205.000
 99  4 23 17 57  0.0000000  0  7G26G 2G24G 8G 7G 4G 9
  24731347.446      696761.26349    539302.18845  24731347.704    24731357.159
       211.000         145.000
  22470499.933      294114.42849    229127.03746  22470499.157    22470506.406
       229.000         182.000
  22385399.520    -3255762.72449  -2505695.03346  22385399.081    22385405.578
       229.000         179.000
  23732223.079    -2627473.68949  -1994147.02845  23732222.095    23732228.685
       212.000         148.000
  21840364.135      397878.78449    308789.15947  21840363.231    21840368.972
       234.000         190.000
  20476781.441    -1995892.60549  -1536268.38847  20476781.249    20476785.659
       246.000         212.000
  21420148.119    -1864764.29849  -1438823.14247  21420148.130    21420152.395
       244.000         205.000
 99  4 23 17 57 30.0000000  0  7G26G 2G24G 8G 7G 4G 9
  24744619.147      766504.31649    593647.23845  24744618.617    24744630.160
       204.000         143.000
  22481018.670      349390.64749    272199.33546  22481017.795    22481024.590
       227.000         180.000
  22366896.582    -3352995.75649  -2581460.91746  22366895.950    22366903.471
       229.000         179.000
  23713331.413    -2726749.79149  -2071504.98645  23713330.973    23713337.297
       213.000         148.000
  21851342.029      455567.98049    353741.74747  21851340.702    21851346.619
       233.000         190.000
  20469446.037    -2034440.44249  -1566305.62947  20469446.197    20469450.213
       246.000         212.000
  21413576.102    -1899300.75449  -1465734.65447  21413575.810    21413579.995
       243.000         205.000
 99  4 23 17 58  0.0000000  0  7G26G 2G24G 8G 7G 4G 9
  24757891.854      836251.45949    647995.52445  24757892.827    24757901.380
       211.000         145.000
  22491588.926      404937.43749    315482.47246  22491588.417    22491595.685
       227.000         177.000
  22348449.916    -3449933.18549  -2656996.44746  22348449.720    22348457.330
       228.000         179.000
  23694494.390    -2825738.95649  -2148639.35645  23694494.563    23694499.698
       211.000         147.000
  21862342.663      513376.80349    398787.55647  21862342.155    21862347.199
       233.000         189.000
  20462221.068    -2072407.94849  -1595890.66847  20462220.959    20462225.283
       246.000         212.000
  21407109.184    -1933284.95249  -1492215.83647  21407108.897    21407113.160
       243.000         205.000
 99  4 23 17 58 30.0000000  0  7G26G 2G24G 8G 7G 4G 9
  24771164.814      906000.24649    702345.07045  24771165.749    24771175.025
       208.000         145.000
  22502212.897      460766.74749    358985.75746  22502212.313    22502219.032
       225.000         175.000
  22330059.181    -3546576.52749  -2732302.84046  22330057.753    22330066.479
       228.000         179.000
  23675712.805    -2924437.68949  -2225547.39945  23675712.086    23675719.012
       211.000         147.000
  21873360.309      571274.28549    443902.44847  21873359.378    21873364.740
       233.000         189.000
  20455103.667    -2109810.16549  -1625035.22747  20455103.796    20455107.951
       246.000         212.000
  21400745.690    -1966725.40849  -1518273.32247  21400745.172    21400749.598
       244.000         205.000
 99  4 23 17 59  0.0000000  0  8G26G 2G24G 5G 8G 7G 4G 9
  24784429.571      975706.50349    756661.48045  24784429.976    24784438.914
       209.000         146.000
  22512882.587      516836.53749    402676.41746  22512881.716    22512888.308
       226.000         174.000
  22311710.328    -3642999.96349  -2807437.86146  22311709.495    22311716.817
       228.000         179.000
  23834471.258    -1546608.27049  -1182913.78545  23834470.689    23834478.371
       215.000         150.000
  23656977.027    -3022894.40549  -2302266.85945  23656975.597    23656981.623
       208.000         147.000
  21884384.183      629204.95749    489043.20247  21884383.676    21884388.634
       232.000         188.000
  20448087.114    -2146682.60649  -1653766.96948  20448087.034    20448091.392
       246.000         213.000
  21394473.423    -1999685.87349  -1543956.79447  21394473.035    21394477.315
       243.000         205.000
 99  4 23 17 59 30.0000000  0  8G26G 2G24G 5G 8G 7G 4G 9
  24797689.896     1045389.68549    810959.89045  24797689.737    24797699.363
       208.000         144.000
  22523601.555      573164.48949    446568.23646  22523600.886    22523607.753
       227.000         174.000
  22293407.063    -3739184.35949  -2882386.61146  22293406.266    22293413.511
       230.000         179.000
  23818466.266    -1630708.22149  -1248446.14345  23818466.779    23818474.516
       214.000         151.000
  23638291.504    -3121086.92149  -2378780.43845  23638290.942    23638297.033
       211.000         147.000
  21895418.506      687190.15649    534226.44847  21895418.018    21895422.764
       232.000         188.000
  20441178.096    -2182989.56849  -1682058.07748  20441177.927    20441182.609
       246.000         213.000
  21388295.717    -2032150.03349  -1569253.53847  21388295.451    21388299.876
       244.000         205.000
 99  4 23 18  0  0.0000000  0  8G26G 2G24G 5G 8G 7G 4G 9
  24810940.873     1115024.14949    865220.31845  24810941.103    24810952.388
       206.000         142.000
  22534366.594      629734.19549    490648.43346  22534366.373    22534372.765
       227.000         175.000
  22275147.502    -3835139.74549  -2957156.90446  22275146.477    22275153.824
       230.000         180.000
  23802453.471    -1714860.55149  -1314019.29445  23802452.165    23802460.124
       213.000         151.000
  23619649.353    -3219052.36349  -2455117.07945  23619648.588    23619654.495
       212.000         148.000
  21906456.863      745196.67949    579426.31446  21906456.196    21906461.009
       232.000         187.000
  20434370.330    -2218764.43249  -1709934.56848  20434370.060    20434374.841
       245.000         213.000
  21382207.502    -2064143.80249  -1594183.74347  21382207.506    21382211.587
       243.000         205.000
 99  4 23 18  0 30.0000000  0  8G26G 2G24G 5G 8G 7G 4G 9
  24824188.735     1184642.73949    919468.44645  24824187.912    24824198.037
       207.000         139.000
  22545186.268      686591.60049    534952.83146  22545185.553    22545192.763
       226.000         175.000
  22256941.678    -3930811.67149  -3031706.32546  22256941.190    22256948.240
       230.000         180.000
  23786438.242    -1799022.40049  -1379599.84845  23786437.432    23786444.129
       214.000         151.000
  23601059.037    -3316744.41849  -2531240.72245  23601059.327    23601065.052
       215.000         149.000
  21917508.456      803273.05849    624680.60246  21917507.715    21917512.725
       232.000         186.000
  20427674.310    -2253951.78649  -1737353.26248  20427674.105    20427678.834
       245.000         213.000
  21376217.878    -2095619.59449  -1618710.32847  21376217.682    21376221.875
       243.000         205.000
 99  4 23 18  1  0.0000000  0  8G26G 2G24G 5G 8G 7G 4G 9
  24837431.181     1254231.72449    973693.41445  24837432.114    24837440.056
       207.000         137.000
  22556059.319      743729.36149    579475.67746  22556058.666    22556065.265
       226.000         174.000
  22238788.665    -4026205.47149  -3106039.03146  22238788.157    22238794.961
       230.000         180.000
  23770421.264    -1883192.64649  -1445186.94545  23770420.750    23770426.259
       214.000         152.000
  23582519.714    -3414170.22149  -2607156.88145  23582519.232    23582525.753
       213.000         150.000
  21928577.680      861442.35349    670007.29946  21928576.173    21928582.029
       232.000         186.000
  20421093.813    -2288532.45549  -1764299.20947  20421093.931    20421097.944
       246.000         212.000
  21370327.028    -2126576.57249  -1642832.64047  21370326.641    21370331.168
       243.000         206.000
 99  4 23 18  1 30.0000000  0  7G 2G24G 5G 8G 7G 4G 9
  22566984.869      801143.34249    624213.77846  22566984.871    22566990.754
       224.000         173.000
  22220687.341    -4121327.88749  -3180160.27546  22220685.879    22220693.714
       229.000         180.000
  23754399.374    -1967387.56549  -1510793.28545  23754397.893    23754404.256
       216.000         153.000
  23564028.501    -3511341.43649  -2682874.65545  23564027.403    23564034.102
       213.000         149.000
  21939664.341      919703.32449    715405.42546  21939663.757    21939668.843
       231.000         186.000
  20414623.704    -2322533.45149  -1790793.46248  20414623.900    20414627.837
       247.000         213.000
  21364538.115    -2156997.29849  -1666537.10147  21364537.588    21364542.274
       243.000         205.000
 99  4 23 18  2  0.0000000  0  7G 2G24G 5G 8G 7G 4G 9
  22577975.611      858900.05949    669218.94346  22577975.443    22577980.957
       227.000         173.000
  22202647.588    -4216126.34449  -3254029.07246  22202646.827    22202654.553
       231.000         180.000
  23738383.717    -2051550.27549  -1576374.54445  23738382.650    23738388.948
       218.000         155.000
  23545598.184    -3608193.40849  -2758343.66145  23545597.212    23545603.916
       215.000         149.000
  21950781.502      978124.03249    760928.01946  21950780.751    21950785.730
       232.000         185.000
  20408276.322    -2355889.46249  -1816785.12748  20408276.244    20408280.364
       248.000         214.000
  21358864.423    -2186812.47249  -1689769.69847  21358863.986    21358869.000
       244.000         206.000
 99  4 23 18  2 30.0000000  0  7G 2G24G 5G 8G 7G 4G 9
  22589029.298      916986.57549    714481.08446  22589028.281    22589035.396
       227.000         173.000
  22184666.674    -4310616.05249  -3327657.29046  22184665.875    22184673.092
       230.000         181.000
  23722375.112    -2135676.73749  -1641927.55245  23722375.171    23722380.497
       216.000         156.000
  23527229.526    -3704720.36549  -2833559.43045  23527229.198    23527235.219
       212.000         151.000
  21961928.729     1036702.62949    806573.65046  21961928.383    21961933.191
       232.000         185.000
  20402053.711    -2388589.45549  -1842265.61648  20402053.512    20402057.788
       247.000         214.000
  21353305.849    -2216022.84549  -1712531.02247  21353305.504    21353310.087
       243.000         206.000
 99  4 23 18  3  0.0000000  0  7G 2G24G 5G 8G 7G 4G 9
  22600140.748      975377.03849    759980.06146  22600140.418    22600146.781
       228.000         174.000
  22166740.657    -4404817.55449  -3401060.92746  22166740.595    22166747.158
       232.000         181.000
  23706371.438    -2219776.71549  -1707459.91645  23706370.541    23706376.901
       215.000         157.000
  23508919.945    -3800937.76049  -2908533.96945  23508919.194    23508925.016
       214.000         152.000
  21973103.473     1095425.94649    852332.04946  21973102.458    21973107.433
       231.000         185.000
  20395952.073    -2420653.66049  -1867250.68848  20395951.836    20395956.280
       246.000         213.000
  21347858.779    -2244647.44949  -1734835.89947  21347858.785    21347863.031
       243.000         206.000
 99  4 23 18  3 30.0000000  0  7G 2G24G 5G 8G 7G 4G 9
  22611311.254     1034077.51049    805720.59946  22611309.756    22611316.422
       228.000         174.000
  22148874.349    -4498705.54449  -3474220.28546  22148873.084    22148880.450
       231.000         181.000
  23690373.438    -2303847.09349  -1772969.21545  23690372.596    23690378.017
       214.000         155.000
  23490673.623    -3896823.24649  -2983249.88345  23490674.395    23490678.953
       216.000         154.000
  21984302.627     1154277.97349    898190.74346  21984302.164    21984306.814
       231.000         185.000
  20389969.564    -2452091.74049  -1891747.87548  20389969.538    20389973.882
       246.000         213.000
  21342523.890    -2272682.59649  -1756681.46647  21342523.558    21342528.019
       243.000         206.000
 99  4 23 18  4  0.0000000  0  7G 2G24G 5G 8G 7G 4G 9
  22622536.036     1093063.99049    851683.99646  22622535.694    22622541.703
       228.000         174.000
  22131067.027    -4592282.59849  -3547137.35246  22131066.072    22131073.127
       231.000         181.000
  23674379.403    -2387895.64449  -1838461.52145  23674378.309    23674384.035
       213.000         155.000
  23472489.996    -3992380.28549  -3057709.85745  23472489.973    23472494.322
       217.000         155.000
  21995519.540     1213223.07249    944121.95046  21995518.869    21995524.139
       230.000         184.000
  20384104.301    -2482913.74949  -1915764.99748  20384104.338    20384108.651
       247.000         213.000
  21337295.077    -2300160.71449  -1778092.98247  21337295.028    21337299.657
       243.000         206.000
 99  4 23 18  4 30.0000000  0  7G 2G24G 5G 8G 7G 4G 9
  22633815.577     1152338.15549    897871.59646  22633815.146    22633820.423
       226.000         174.000
  22113320.161    -4685542.44749  -3619807.25946  22113319.797    22113327.265
       232.000         182.000
  23658390.922    -2471913.84849  -1903930.18045  23658389.598    23658395.922
       215.000         155.000
  23454369.417    -4087604.88149  -3131910.78545  23454369.318    23454374.889
       217.000         155.000
  22006751.995     1272249.88849    990116.84746  22006751.373    22006756.800
       230.000         183.000
  20378353.881    -2513132.47849  -1939312.02748  20378353.989    20378358.198
       247.000         214.000
  21332169.804    -2327094.69949  -1799080.49747  21332169.506    21332174.172
       243.000         206.000
 99  4 23 18  5  0.0000000  0  7G 2G24G 5G 8G 7G 4G 9
  22645143.819     1211868.46649    944258.77646  22645143.613    22645150.239
       226.000         176.000
  22095627.973    -4778515.51349  -3692253.69746  22095627.455    22095634.561
       232.000         183.000
  23642400.870    -2555941.75749  -1969406.41345  23642400.497    23642406.035
       218.000         156.000
  23436307.824    -4182518.88949  -3205869.68445  23436306.942    23436313.045
       216.000         154.000
  22017992.235     1331317.36149   1036143.42046  22017990.832    22017996.364
       229.000         182.000
  20372709.523    -2542794.16149  -1962424.99648  20372709.587    20372713.908
       246.000         214.000
  21327142.053    -2353515.41649  -1819668.06547  21327141.867    21327146.614
       243.000         206.000
 99  4 23 18  5 30.0000000  0  7G 2G24G 5G 8G 7G 4G 9
  22656517.726     1271638.52049    990832.77646  22656517.080    22656524.508
       228.000         177.000
  22077988.484    -4871211.81549  -3764484.47146  22077988.057    22077994.673
       232.000         184.000
  23626405.520    -2639999.33349  -2034905.74745  23626404.830    23626410.406
       217.000         156.000
  23418304.440    -4277128.02749  -3279591.04645  23418304.015    23418309.161
       216.000         153.000
  22029234.628     1390396.59049   1082179.14246  22029234.009    22029239.785
       230.000         182.000
  20367167.800    -2571916.31249  -1985117.56448  20367167.653    20367171.671
       246.000         213.000
  21322210.652    -2379430.33649  -1839861.50747  21322210.401    21322215.041
       243.000         206.000
 99  4 23 18  6  0.0000000  0  7G 2G24G 5G 8G 7G 4G 9
  22667938.277     1331653.33749   1037597.48846  22667937.733    22667944.483
       228.000         178.000
  22060401.232    -4963633.31949  -3836501.12846  22060400.373    22060407.071
       231.000         184.000
  23610405.404    -2724081.21749  -2100424.01945  23610405.207    23610411.263
       216.000         155.000
  23400357.303    -4371441.13749  -3353081.73045  23400355.921    23400362.036
       216.000         153.000
  22040483.272     1449508.16649   1128240.07846  22040482.821    22040487.953
       230.000         182.000
  20361729.672    -2600493.54949  -2007385.52748  20361729.538    20361733.459
       246.000         213.000
  21317376.455    -2404834.12449  -1859656.66647  21317376.277    21317380.876
       243.000         207.000
 99  4 23 18  6 30.0000000  0  7G 2G24G 5G 8G 7G 4G 9
  22679411.781     1391946.77049   1084579.29346  22679411.420    22679418.349
       227.000         177.000
  22042872.984    -5055743.80449  -3908275.43846  22042872.437    22042879.070
       231.000         184.000
  23594407.082    -2808152.19549  -2165933.80745  23594405.763    23594412.397
       216.000         155.000
  23382472.563    -4465425.84449  -3426316.49945  23382472.461    23382477.785
       216.000         154.000
  22051747.923     1508703.96249   1174366.62946  22051747.283    22051752.168
       229.000         182.000
  20356402.102    -2628490.03249  -2029200.95548  20356402.286    20356405.945
       247.000         213.000
  21312646.366    -2429691.36049  -1879025.93747  21312646.122    21312650.601
       244.000         207.000
 99  4 23 18  7  0.0000000  0  7G 2G24G 5G 8G 7G 4G 9
  22690932.474     1452487.81849   1131754.03346  22690932.354    22690938.964
       226.000         176.000
  22025400.286    -5147562.93149  -3979822.71946  22025399.543    22025406.248
       232.000         183.000
  23578403.996    -2892249.52849  -2231464.13645  23578402.721    23578409.932
       215.000         155.000
  23364643.357    -4559118.49549  -3499323.70745  23364642.155    23364647.459
       216.000         154.000
  22063022.750     1567953.63449   1220535.17546  22063022.567    22063027.495
       229.000         182.000
  20351180.532    -2655929.76249  -2050582.54248  20351180.441    20351184.488
       246.000         214.000
  21308015.677    -2454025.82349  -1897987.86147  21308015.258    21308019.725
       244.000         207.000
 99  4 23 18  7 30.0000000  0  7G 2G24G 5G 8G 7G 4G 9
  22702501.342     1513282.19149   1179126.19246  22702500.236    22702506.661
       226.000         174.000
  22007985.687    -5239077.19249  -4051132.43646  22007985.229    22007992.409
       232.000         184.000
  23562398.730    -2976356.60249  -2297002.07345  23562398.511    23562404.522
       217.000         155.000
  23346869.050    -4652521.80149  -3572105.44445  23346867.640    23346874.496
       215.000         155.000
  22074313.150     1627284.75649   1266767.17646  22074312.362    22074317.699
       230.000         182.000
  20346068.464    -2682793.90449  -2071515.61448  20346068.560    20346072.650
       247.000         214.000
  21303485.033    -2477834.60649  -1916540.15647  21303484.614    21303488.997
       244.000         207.000
 99  4 23 18  8  0.0000000  0  7G 2G24G 5G 8G 7G 4G 9
  22714124.491     1574362.81849   1226721.39046  22714124.029    22714131.159
       224.000         172.000
  21990631.926    -5330271.34949  -4122192.73446  21990631.742    21990638.431
       233.000         185.000
  23546394.721    -3060457.66649  -2362535.32845  23546393.101    23546399.544
       216.000         156.000
  23329152.264    -4745623.06049  -3644651.81745  23329149.966    23329157.096
       214.000         154.000
  22085623.959     1686723.01749   1313082.66246  22085623.471    22085628.932
       229.000         182.000
  20341070.184    -2709059.81349  -2091982.53948  20341069.940    20341074.411
       246.000         213.000
  21299055.697    -2501111.09549  -1934677.68847  21299055.511    21299059.916
       244.000         208.000
 99  4 23 18  8 30.0000000  0  7G 2G24G 5G 8G 7G 4G 9
  22725801.528     1635725.72949   1274536.55946  22725800.526    22725807.838
       224.000         172.000
  21973338.334    -5421149.86549  -4193007.07346  21973337.885    21973344.722
       233.000         185.000
  23530390.024    -3144562.65949  -2428071.62945  23530389.670    23530395.608
       218.000         156.000
  23311494.159    -4838415.76949  -3716957.77045  23311493.479    23311499.188
       213.000         152.000
  22096950.875     1746245.87449   1359464.07146  22096950.080    22096955.239
       229.000         181.000
  20336185.637    -2734728.03849  -2111983.73648  20336185.512    20336189.640
       247.000         213.000
  21294726.748    -2523860.06649  -1952404.15947  21294726.088    21294730.753
       244.000         208.000
 99  4 23 18  9  0.0000000  0  7G 2G24G 5G 8G 7G 4G 9
  22737532.641     1697372.60349   1322572.98746  22737531.854    22737539.887
       224.000         172.000
  21956105.259    -5511709.48849  -4263572.92846  21956104.855    21956111.720
       232.000         185.000
  23514385.380    -3228667.44549  -2493607.74945  23514384.740    23514390.747
       219.000         155.000
  23293896.342    -4930892.04549  -3789017.14045  23293895.062    23293901.299
       213.000         151.000
  22108291.713     1805842.30349   1405902.80846  22108291.139    22108296.358
       229.000         181.000
  20331416.343    -2759790.56749  -2131512.96448  20331416.533    20331420.744
       248.000         214.000
  21290500.658    -2546068.32749  -1969709.29847  21290500.573    21290504.870
       244.000         208.000
 99  4 23 18  9 30.0000000  0  7G 2G24G 5G 8G 7G 4G 9
  22749329.033     1759362.39949   1370876.63446  22749329.797    22749335.410
       226.000         173.000
  21938943.553    -5601894.43349  -4333846.83446  21938943.356    21938949.663
       233.000         185.000
  23498393.297    -3312706.65749  -2559092.76345  23498392.941    23498397.486
       218.000         154.000
  23276371.761    -5022983.11349  -3860776.35945  23276370.664    23276376.783
       213.000         151.000
  22119656.468     1865564.61449   1452439.62846  22119655.701    22119660.750
       229.000         180.000
  20326771.850    -2784197.85149  -2150531.61748  20326772.029    20326776.101
       249.000         215.000
  21286388.253    -2567679.31349  -1986549.03247  21286387.750    21286392.294
       244.000         208.000
 99  4 23 18 10  0.0000000  0  7G 2G24G 5G 8G 7G 4G 9
  22761177.394     1821624.96149   1419392.82946  22761176.815    22761184.403
       226.000         172.000
  21921839.846    -5691774.93349  -4403883.51046  21921839.836    21921845.603
       233.000         186.000
  23482399.403    -3396755.01449  -2624584.91045  23482398.114    23482404.382
       217.000         153.000
  23258906.241    -5114764.00049  -3932293.86245  23258905.775    23258911.814
       215.000         151.000
  22131026.085     1925312.07149   1498996.06046  22131024.790    22131031.173
       228.000         181.000
  20322236.094    -2808033.62449  -2169104.92648  20322236.319    20322240.305
       248.000         215.000
  21282375.686    -2588765.18949  -2002979.58347  21282375.358    21282379.602
       244.000         208.000
 99  4 23 18 10 30.0000000  0  7G 2G24G 5G 8G 7G 4G 9
  22773063.029     1884083.95249   1468062.08746  22773062.837    22773069.727
       223.000         171.000
  21904784.239    -5781402.73549  -4473723.27746  21904784.583    21904790.338
       234.000         186.000
  23466395.952    -3480852.16049  -2690115.07145  23466392.794    23466400.437
       215.000         153.000
  23241490.507    -5206285.08949  -4003608.95545  23241489.482    23241496.299
       216.000         153.000
  22142390.295     1985031.89249   1545530.94446  22142388.963    22142395.582
       228.000         180.000
  20317799.501    -2831348.21749  -2187272.12848  20317799.420    20317803.660
       248.000         214.000
  21278456.271    -2609362.05049  -2019029.07947  21278455.842    21278460.463
       243.000         207.000
 99  4 23 18 11  0.0000000  0  7G 2G24G 5G 8G 7G 4G 9
  22784996.513     1946794.58749   1516927.41546  22784995.686    22785003.896
       224.000         170.000
  21887787.360    -5870721.87349  -4543322.51846  21887786.321    21887793.200
       233.000         187.000
  23450395.265    -3564934.44949  -2755633.67245  23450393.590    23450400.999
       214.000         153.000
  23224134.478    -5297490.53449  -4074678.07945  23224133.627    23224140.095
       215.000         154.000
  22153762.735     2044795.03249   1592099.58646  22153761.950    22153767.607
       228.000         181.000
  20313472.862    -2854084.64949  -2204988.81548  20313472.546    20313476.751
       247.000         213.000
  21274641.634    -2629407.55549  -2034648.95647  21274641.162    21274646.071
       243.000         207.000
 99  4 23 18 11 30.0000000  0  7G 2G24G 5G 8G 7G 4G 9
  22796989.235     2009816.36649   1566035.18946  22796987.894    22796996.283
       223.000         170.000
  21870858.381    -5959683.79949  -4612643.42246  21870857.790    21870864.360
       233.000         187.000
  23434405.605    -3648959.92649  -2821107.99145  23434404.699    23434410.771
       215.000         156.000
  23206849.222    -5388325.60449  -4145458.58245  23206847.444    23206855.057
       216.000         154.000
  22165157.112     2104672.44949   1638757.27146  22165155.952    22165161.916
       228.000         181.000
  20309267.248    -2876185.09649  -2222209.93148  20309267.177    20309271.474
       247.000         213.000
  21270942.885    -2648844.54349  -2049794.65947  21270942.383    21270947.332
       243.000         207.000
 99  4 23 18 12  0.0000000  0  7G 2G24G 5G 8G 7G 4G 9

       224.000          74.000
  21854043.392    -6048049.51349  -4681499.84546  21854044.470    21854051.242
       234.000         187.000

       218.000          74.000

       214.000          74.000
  22176620.912     2164911.64249   1685696.54346  22176621.964    22176628.344
       227.000         181.000
                  -1203230.66547                                  20305235.910
       249.000         200.000
  21266779.319    -2667423.98249                                  21266989.350
       243.000         175.000
 99  4 23 18 12 30.0000000  0  7G 2G24G 5G 8G 7G 4G 9
  22821159.980    -1420550.05149  -1109181.42846  22821158.900    22821166.306
       224.000         164.000
  21837213.921    -6136491.92449  -4750415.92747  21837215.021    21837221.508
       235.000         188.000

       221.000          74.000
  23172506.085    -1705236.68949  -1309895.83645  23172505.049    23172511.903
       215.000         146.000
  22188028.248     2224854.56849   1732405.27146  22188029.487    22188034.693
       228.000         181.000
  20301235.101    -1579847.27949  -1219596.95047  20301235.077    20301239.026
       249.000         212.000

       243.000         150.000
 99  4 23 18 13  0.0000000  0  7G 2G24G 5G 8G 7G 4G 9
  22833312.227    -1356690.76649  -1059421.06046  22833311.767    22833317.819
       223.000         170.000
  21820472.977    -6224468.17849  -4818968.77347  21820473.620    21820480.203
       235.000         189.000

       219.000          88.000
  23155424.224    -1794999.09849  -1379840.52045  23155423.414    23155430.106
       214.000         154.000
  22199479.943     2285031.23749   1779296.12746  22199480.659    22199485.789
       228.000         181.000
  20297380.290    -1600103.05749  -1235380.65848  20297380.346    20297384.566
       248.000         214.000

       243.000         138.000
 99  4 23 18 13 30.0000000  0  7G 2G24G 5G 8G 7G 4G 9
  22845535.360    -1292451.74349  -1009364.77646  22845535.925    22845542.596
       222.000         170.000
  21803813.483    -6312015.79749  -4887187.62347  21803813.704    21803820.725
       235.000         189.000

       219.000          90.000
  23138427.577    -1884315.26449  -1449437.48245  23138426.980    23138434.546
       216.000         155.000
  22210964.086     2345378.61949   1826320.00546  22210964.659    22210970.597
       228.000         181.000
  20293657.144    -1619668.35949  -1250626.33948  20293657.193    20293661.213
       247.000         214.000
                   1356424.06447                                  21257306.108
       244.000         197.000
 99  4 23 18 14  0.0000000  0  7G 2G24G 5G 8G 7G 4G 9
  22857825.114    -1227870.27649   -959041.65146  22857824.597    22857831.224
       222.000         169.000
  21787231.663    -6399154.76549  -4955088.04447  21787231.823    21787238.336
       235.000         189.000

       218.000          74.000
  23121508.674    -1973225.15549  -1518717.85045  23121507.593    23121514.176
       213.000         155.000
  22222470.534     2405843.62049   1873435.54846  22222470.394    22222476.385
       228.000         181.000
  20290058.771    -1638577.70549  -1265360.88548  20290058.755    20290062.987
       247.000         213.000
  21254168.303    -2737008.34049   1343595.72547  21254168.665    21254172.923
       244.000         205.000
 99  4 23 18 14 30.0000000  0  7G 2G24G 5G 8G 7G 4G 9
  22870164.507    -1163027.14449   -908514.65246  22870164.025    22870171.793
       221.000         169.000
  21770711.029    -6485971.76849  -5022737.59347  21770710.950    21770717.370
       235.000         189.000
  23338588.986    -1996323.27649  -1145781.15945  23338589.141    23338594.431
       219.000         148.000
  23104650.931    -2061812.59149  -1587746.96745  23104650.683    23104656.892
       217.000         157.000
  22233982.129     2466336.02849   1920572.44946  22233982.094    22233987.343
       229.000         181.000
  20286570.253    -1656910.36249  -1279646.06248  20286570.400    20286574.234
       248.000         213.000
  21251128.265    -2752985.04549   1331146.33547  21251128.800    21251132.971
       244.000         207.000
 99  4 23 18 15  0.0000000  0  7G 2G24G 5G 8G 7G 4G 9
  22882546.926    -1097957.89349   -857811.46246  22882546.982    22882553.561
       224.000         170.000
  21754245.841    -6572497.31549  -5090160.02547  21754245.689    21754252.384
       236.000         190.000
  23322618.205    -2080250.63849  -1211179.02345  23322617.998    23322623.133
       220.000         156.000
  23087847.219    -2150117.62549  -1656556.04245  23087847.136    23087853.277
       218.000         159.000
  22245492.139     2526819.60749   1967702.46746  22245491.786    22245496.834
       231.000         181.000
  20283183.780    -1674706.43849  -1293513.11248  20283183.584    20283187.913
       248.000         214.000
  21248174.782    -2768506.54649   1319051.65247  21248174.945    21248179.210
       244.000         207.000
 99  4 23 18 15 30.0000000  0  7G 2G24G 5G 8G 7G 4G 9
  22894980.386    -1032620.37249   -806899.24546  22894980.455    22894988.230
       222.000         171.000
  21737847.256    -6658672.86949  -5157309.73947  21737846.472    21737853.376
       236.000         190.000
  23306654.712    -2164140.65749  -1276547.78745  23306654.469    23306659.556
       220.000         159.000
  23071109.186    -2238077.97349  -1725096.51845  23071109.183    23071114.665
       219.000         160.000
  22257011.383     2587351.72649   2014870.31846  22257010.472    22257016.527
       229.000         181.000
  20279911.836    -1691900.41249  -1306910.98848  20279911.739    20279915.971
       248.000         214.000
  21245324.459    -2783485.47749   1307379.75147  21245324.578    21245328.824
       244.000         208.000
 99  4 23 18 16  0.0000000  0  7G 2G24G 5G 8G 7G 4G 9
  22907463.812     -967020.44049   -755782.55146  22907463.273    22907471.765
       223.000         171.000
  21721514.782    -6744500.54549  -5224188.36647  21721514.229    21721520.847
       236.000         191.000
  23290699.766    -2247984.32149  -1341880.43145  23290699.095    23290705.646
       220.000         162.000
  23054444.093    -2325655.05449  -1793338.35845  23054444.021    23054449.725
       219.000         160.000
  22268541.859     2647944.32149   2062085.27446  22268540.640    22268546.551
       228.000         180.000
  20276757.142    -1708478.40349  -1319828.89348  20276757.023    20276761.162
       248.000         214.000
  21242582.057    -2797897.48949   1296149.60547  21242581.747    21242586.347
       244.000         208.000
 99  4 23 18 16 30.0000000  0  7G 2G24G 5G 8G 7G 4G 9
  22919998.948     -901148.46949   -704453.85746  22919998.285    22920006.410
       222.000         170.000
  21705249.673    -6829974.22049  -5290791.16447  21705249.319    21705255.567
       237.000         191.000
  23274754.160    -2331779.00949  -1407174.92446  23274753.703    23274760.261
       219.000         163.000
  23037856.581    -2412824.18549  -1861262.30545  23037855.515    23037861.916
       218.000         159.000
  22280084.936     2708603.79449   2109352.35446  22280083.669    22280089.025
       228.000         180.000
  20273717.367    -1724452.56549  -1332276.28948  20273717.457    20273721.556
       248.000         214.000
  21239952.208    -2811717.66349   1285380.63147  21239951.727    21239956.201
       244.000         208.000
 99  4 23 18 17  0.0000000  0  7G 2G24G 5G 8G 7G 4G 9
  22932584.501     -835010.86649   -652918.15646  22932583.693    22932591.423
       221.000         168.000
  21689050.543    -6915100.83249  -5357123.52047  21689049.823    21689057.082
       235.000         191.000
  23258815.827    -2415535.24549  -1472439.45846  23258815.207    23258821.846
       218.000         163.000
  23021343.700    -2499599.19449  -1928879.15345  23021343.006    23021349.420
       216.000         158.000
  22291637.593     2769313.47149   2156658.54546  22291636.381    22291642.286
       227.000         180.000
  20270788.611    -1739843.31649  -1344269.07748  20270788.515    20270792.643
       248.000         214.000
  21237433.653    -2824952.70449   1275067.60347  21237433.321    21237437.954
       244.000         208.000
 99  4 23 18 17 30.0000000  0  7G 2G24G 5G 8G 7G 4G 9
  22945224.588     -768586.87849   -601159.31546  22945224.652    22945231.807
       221.000         166.000
  21672918.411    -6999875.87749  -5423181.93547  21672918.351    21672924.188
       236.000         192.000
  23242885.689    -2499248.19549  -1537670.27845  23242884.416    23242891.709
       218.000         161.000
  23004907.547    -2585971.67949  -1996182.34845  23004906.585    23004913.292
       217.000         158.000
  22303201.337     2830081.42049   2204010.14946  22303200.276    22303205.774
       228.000         180.000
  20267973.495    -1754636.88849  -1355796.52548  20267973.524    20267977.679
       248.000         214.000
  21235027.050    -2837599.59749   1265212.87747  21235027.007    21235031.541
       244.000         208.000
 99  4 23 18 18  0.0000000  0  7G 2G24G 5G 8G 7G 4G 9
  22957916.676     -701889.73849   -549187.61946  22957916.905    22957923.391
       224.000         165.000
  21656847.586    -7084328.62549  -5488989.20447  21656847.347    21656853.167
       236.000         192.000
  23226955.730    -2582960.02949  -1602900.21545  23226955.214    23226961.688
       219.000         160.000
  22988537.412    -2671996.62949  -2063214.74245  22988537.287    22988543.618
       217.000         159.000
  22314769.274     2890871.19149   2251378.74546  22314768.487    22314774.529
       228.000         180.000
  20265263.354    -1768878.94049  -1366894.21148  20265263.220    20265267.375
       248.000         214.000
  21232722.993    -2849708.16849   1255777.61947  21232723.012    21232727.150
       244.000         208.000
 99  4 23 18 18 30.0000000  0  7G 2G24G 5G 8G 7G 4G 9
  22970663.554     -634905.68549   -496992.35046  22970663.840    22970670.522
       225.000         167.000
  21640841.377    -7168441.86649  -5554531.92647  21640841.157    21640847.436
       237.000         193.000
  23211028.614    -2666658.17249  -1668119.48545  23211028.230    23211034.448
       219.000         160.000
  22972228.990    -2757698.61149  -2129995.44645  22972228.997    22972235.584
       219.000         160.000
  22326342.812     2951690.14849   2298770.08946  22326342.005    22326348.035
       228.000         181.000
  20262659.060    -1782564.54349  -1377558.29648  20262659.013    20262663.061
       248.000         214.000
  21230522.575    -2861271.62749   1246767.13047  21230522.265    21230526.821
       244.000         208.000
 99  4 23 18 19  0.0000000  0  7G 2G24G 5G 8G 7G 4G 9
  22983464.125     -567639.38349   -444577.16946  22983464.888    22983470.736
       225.000         168.000
  21624899.205    -7252218.50249  -5619812.36347  21624898.404    21624905.110
       235.000         193.000
  23195104.852    -2750338.58249  -1733324.92445  23195105.113    23195109.549
       221.000         161.000
  22955981.974    -2843077.92849  -2196524.73745  22955981.595    22955987.482
       218.000         161.000
  22337922.257     3012540.39349   2346185.81746  22337921.579    22337927.092
       228.000         181.000
  20260164.931    -1795671.26349  -1387771.31748  20260164.770    20260169.013
       248.000         213.000
  21228424.607    -2872296.50149   1238176.30847  21228424.528    21228428.680
       245.000         208.000
 99  4 23 18 19 30.0000000  0  7G 2G24G 5G 8G 7G 4G 9
  22996333.351     -500011.38549   -391880.13846  22996332.730    22996340.347
       223.000         169.000
  21609040.381    -7335556.51149  -5684751.01347  21609039.293    21609046.279
       236.000         193.000
  23179202.114    -2833909.22949  -1798444.83345  23179201.932    23179206.535
       220.000         162.000
  22939814.715    -2928037.80149  -2262727.20145  22939814.447    22939819.844
       219.000         161.000
  22349524.491     3073510.94949   2393695.29746  22349524.026    22349528.719
       228.000         180.000
  20257799.240    -1808102.81949  -1397458.24348  20257799.137    20257803.528
       247.000         213.000
  21226447.955    -2882684.15349   1230082.02647  21226447.816    21226452.194
       245.000         208.000
 99  4 23 18 20  0.0000000  0  7G 2G24G 5G 8G 7G 4G 9
  23009235.816     -432208.94449   -339047.19046  23009235.588    23009243.663
       223.000         167.000
  21593237.876    -7418598.84049  -5749459.26247  21593237.353    21593243.843
       237.000         194.000
  23163287.483    -2917540.83849  -1863612.25646  23163285.831    23163291.917
       221.000         163.000
  22923700.175    -3012719.75049  -2328713.09745  22923699.283    22923705.116
       218.000         160.000
  22361117.787     3134434.07349   2441167.82146  22361117.151    22361122.373
       226.000         178.000
  20255531.530    -1820019.67949  -1406744.10748  20255531.597    20255535.973
       248.000         214.000
  21224562.097    -2892594.52149   1222359.65347  21224561.732    21224566.115
       244.000         209.000
 99  4 23 18 20 30.0000000  0  7G 2G24G 5G 8G 7G 4G 9
  23022183.276     -364169.34749   -286029.43146  23022182.874    23022190.453
       222.000         166.000
  21577507.901    -7501260.36349  -5813870.77947  21577507.303    21577513.557
       237.000         194.000
  23147375.259    -3001159.49449  -1928769.60546  23147374.046    23147380.884
       217.000         163.000
  22907661.973    -3096999.98149  -2394385.96745  22907660.207    22907668.059
       217.000         160.000
  22372717.425     3195391.05149   2488666.71846  22372716.990    22372722.123
       225.000         176.000
  20253380.734    -1831322.32249  -1415551.35548  20253380.886    20253384.880
       247.000         215.000
  21222783.287    -2901942.43149   1215075.56147  21222783.063    21222787.727
       245.000         209.000
 99  4 23 18 21  0.0000000  0  7G 2G24G 5G 8G 7G 4G 9
  23035186.125     -295839.07649   -232785.17546  23035185.653    23035193.811
       222.000         165.000
  21561857.440    -7583504.13049  -5877956.75847  21561856.997    21561863.520
       237.000         195.000
  23131473.136    -3084724.26849  -1993884.97446  23131471.915    23131479.251
       217.000         163.000
  22891713.157    -3180810.74249  -2459693.01145  22891712.267    22891718.843
       220.000         162.000
  22384332.104     3256426.33849   2536226.62946  22384331.909    22384337.526
       225.000         176.000
  20251358.212    -1841950.90549  -1423833.35948  20251358.246    20251362.385
       247.000         215.000
  21221119.565    -2910685.24149   1208262.97447  21221119.095    21221123.401
       244.000         209.000
 99  4 23 18 21 30.0000000  0  7G 2G24G 5G 8G 7G 4G 9
  23048247.062     -227203.86349   -179303.31246  23048247.340    23048254.737
       221.000         164.000
  21546291.627    -7665303.07849  -5941696.13747  21546290.993    21546297.292
       238.000         195.000
  23115585.307    -3168214.87849  -2058942.55646  23115585.103    23115590.174
       219.000         163.000
  22875856.144    -3264140.27649  -2524625.07146  22875855.525    22875862.268
       219.000         164.000
  22395966.452     3317564.44749   2583866.66546  22395965.955    22395971.564
       226.000         176.000
  20249466.415    -1851892.30849  -1431579.89748  20249466.316    20249470.307
       246.000         214.000
  21219572.784    -2918813.75849   1201929.06347  21219572.556    21219576.964
       245.000         209.000
 99  4 23 18 22  0.0000000  0  7G 2G24G 5G 8G 7G 4G 9
  23061360.668     -158291.90849   -125605.81646  23061360.053    23061368.046
       220.000         163.000
  21530803.387    -7746694.19949  -6005117.73447  21530802.546    21530808.830
       237.000         195.000
  23099707.141    -3251654.95649  -2123960.74746  23099707.016    23099712.917
       219.000         163.000
  22860085.785    -3347014.07449  -2589202.02246  22860085.182    22860091.202
       221.000         165.000
  22407615.913     3378781.91549   2631568.54246  22407615.231    22407620.669
       226.000         176.000
  20247699.518    -1861177.17049  -1438814.84748  20247699.369    20247703.774
       245.000         213.000
  21218134.011    -2926374.45849   1196037.60047  21218133.762    21218138.256
       244.000         209.000
 99  4 23 18 22 30.0000000  0  7G 2G24G 5G 8G 7G 4G 9
  23074528.421      -89095.98749    -71687.03946  23074527.627    23074536.026
       220.000         163.000
  21515388.889    -7827697.17549  -6068236.86647  21515388.087    21515394.306
       237.000         195.000
  23083840.147    -3335036.76349  -2188933.53146  23083839.780    23083844.551
       221.000         163.000
  22844397.568    -3429456.16649  -2653442.57946  22844396.204    22844403.907
       218.000         165.000
  22419280.490     3440079.26549   2679332.66946  22419279.406    22419285.510
       226.000         176.000
  20246055.338    -1869817.27349  -1445547.38948  20246055.278    20246059.332
       245.000         213.000
  21216802.611    -2933371.04949   1190585.70147  21216802.383    21216806.859
       244.000         209.000
 99  4 23 18 23  0.0000000  0  7G 2G24G 5G 8G 7G 4G 9
  23087755.065      -19590.45149    -17527.02046  23087754.560    23087761.892
       219.000         163.000
  21500051.922    -7908293.12949  -6131038.84547  21500051.394    21500057.811
       238.000         196.000
  23067991.030    -3418324.29549  -2253832.84346  23067991.282    23067996.097
       221.000         163.000
  22828790.484    -3511471.22049  -2717350.38146  22828789.698    22828796.281
       219.000         165.000
  22430964.956     3501481.65949   2727178.64046  22430964.267    22430970.238
       225.000         175.000
  20244534.878    -1877807.22749  -1451773.31848  20244534.880    20244539.295
       246.000         214.000
  21215581.791    -2939786.22449   1185586.85547  21215581.628    21215585.958
       244.000         209.000
 99  4 23 18 23 30.0000000  0  7G 2G24G 5G 8G 7G 4G 9
  23101030.406       50171.49249     36832.78646  23101029.280    23101038.545
       219.000         163.000
  21484786.741    -7988512.40849  -6193547.31247  21484786.172    21484792.693
       238.000         197.000
  23052151.577    -3501562.06249  -2318693.38446  23052152.167    23052156.600
       222.000         163.000
  22813254.566    -3593112.98549  -2780967.30346  22813253.433    22813259.912
       218.000         164.000
  22442659.975     3562939.00649   2775067.43746  22442659.050    22442665.127
       224.000         175.000
  20243126.331    -1885209.29649  -1457541.15948  20243126.485    20243130.722
       247.000         215.000
  21214463.017    -2945665.53849   1181005.56247  21214462.803    21214467.283
       244.000         209.000
 99  4 23 18 24  0.0000000  0  8G 2G24G 5G 8G 7G 4G 9G16
  23114363.087      120234.78049     91427.39846  23114362.460    23114370.261
       217.000         163.000
  21469598.256    -8068328.22549  -6255741.39347  21469597.517    21469603.898
       238.000         197.000
  23036326.383    -3584724.46449  -2383495.20846  23036325.254    23036330.979
       220.000         164.000
  22797797.079    -3674341.82949  -2844262.48446  22797796.494    22797802.697
       220.000         164.000
  22454369.269     3624471.46849   2823014.76246  22454368.614    22454373.478
       225.000         174.000
  20241833.687    -1892002.36149  -1462834.45048  20241833.630    20241837.883
       247.000         215.000
  21213457.306    -2950950.61849   1176887.30747  21213456.999    21213461.742
       244.000         209.000
  24562618.521    -6733254.27749  -5228930.82245  24562618.693    24562627.121
       214.000         144.000
 99  4 23 18 24 30.0000000  0  8G 2G24G 5G 8G 7G 4G 9G16
  23127750.017      190583.22049    146244.21846  23127748.463    23127757.527
       216.000         164.000
  21454482.317    -8147762.60949  -6317638.25647  21454481.561    21454488.125
       237.000         197.000
  23020510.738    -3667835.31249  -2448256.86046  23020509.103    23020516.039
       220.000         164.000
  22782413.341    -3755184.49749  -2907256.73846  22782413.124    22782418.666
       219.000         164.000
  22466088.040     3686053.58749   2871000.78846  22466088.011    22466093.277
       224.000         173.000
  20240652.626    -1898208.91549  -1467670.71948  20240652.418    20240656.878
       246.000         215.000
  21212563.931    -2955645.52849   1173228.92447  21212563.768    21212568.121
       244.000         209.000
  24558457.646    -6755119.90849  -5245968.94345  24558456.854    24558465.527
       212.000         145.000
 99  4 23 18 25  0.0000000  0  8G 2G24G 5G 8G 7G 4G 9G16
  23141192.131      261221.30249    201286.71846  23141191.756    23141199.878
       221.000         164.000
  21439440.378    -8226807.97449  -6379231.98347  21439439.775    21439446.127
       238.000         197.000
  23004702.533    -3750907.87649  -2512988.68546  23004701.976    23004708.585
       221.000         165.000
  22767103.699    -3835637.49849  -2969947.34746  22767102.243    22767109.523
       220.000         164.000
  22477814.455     3747675.96649   2919018.17346  22477813.613    22477818.783
       222.000         171.000
  20239582.457    -1903832.57049  -1472052.78548  20239582.189    20239586.624
       245.000         214.000
  21211780.456    -2959762.92349   1170020.55347  21211780.050    21211784.514
       244.000         209.000
  24554378.070    -6776557.34749  -5262673.41845  24554376.229    24554386.497
       210.000         144.000
 99  4 23 18 25 30.0000000  0  8G 2G24G 5G 8G 7G 4G 9G16
  23154682.775      332114.09949    256527.70346  23154682.867    23154690.843
       222.000         164.000
  21424468.666    -8305484.78549  -6440538.52147  21424468.109    21424473.979
       239.000         198.000
  22988895.268    -3833975.69649  -2577716.80746  22988894.370    22988900.694
       222.000         167.000
  22751865.060    -3915716.58749  -3032346.60646  22751863.253    22751870.268
       219.000         163.000
  22489542.372     3809306.78649   2967042.14146  22489542.154    22489547.281
       223.000         170.000
  20238616.331    -1908909.47949  -1476008.81748  20238616.407    20238620.466
       246.000         213.000
  21211101.030    -2963333.19349   1167238.50947  21211100.810    21211105.158
       245.000         208.000
  24550375.706    -6797589.78349  -5279062.32245  24550373.730    24550383.727
       212.000         144.000
 99  4 23 18 26  0.0000000  0  8G 2G24G 5G 8G 7G 4G 9G16
  23168223.239      403268.70349    311972.71546  23168222.723    23168230.432
       220.000         163.000
  21409569.298    -8383781.40549  -6501548.81847  21409569.054    21409575.093
       239.000         198.000
  22973091.556    -3917025.30649  -2642430.72046  22973091.170    22973096.808
       223.000         168.000
  22736701.315    -3995401.54149  -3094438.74645  22736700.979    22736706.420
       217.000         162.000
  22501276.310     3870968.93549   3015090.52846  22501275.911    22501281.652
       222.000         169.000
  20237757.772    -1913421.29249  -1479524.50448  20237757.862    20237761.788
       247.000         214.000
  21210526.423    -2966352.96249   1164885.43347  21210526.018    21210530.418
       244.000         208.000
  24546454.715    -6818195.14749  -5295118.45545  24546453.614    24546462.475
       212.000         146.000
 99  4 23 18 26 30.0000000  0  8G 2G24G 5G 8G 7G 4G 9G16
  23181813.577      474685.91049    367622.34445  23181813.365    23181820.549
       219.000         161.000
  21394744.113    -8461688.14949  -6562255.31247  21394743.237    21394749.875
       239.000         198.000
  22957292.758    -4000048.74049  -2707124.25346  22957291.957    22957297.979
       224.000         168.000
  22721614.764    -4074682.09949  -3156215.76545  22721613.624    22721619.219
       219.000         162.000
  22513019.580     3932680.13649   3063177.13946  22513018.961    22513025.541
       224.000         169.000
  20237009.345    -1917354.65349  -1482589.45448  20237009.400    20237013.338
       247.000         214.000
  21210051.761    -2968847.40549   1162941.70047  21210051.477    21210055.878
       244.000         209.000
  24542616.271    -6838364.88349  -5310835.12445  24542615.401    24542623.513
       212.000         147.000
 99  4 23 18 27  0.0000000  0  8G 2G24G 5G 8G 7G 4G 9G16
  23195453.010      546361.89949    423473.63345  23195452.392    23195460.402
       220.000         161.000
  21379994.155    -8539199.24949  -6622653.50847  21379993.419    21379999.732
       239.000         198.000
  22941497.693    -4083052.32949  -2771802.31646  22941496.582    22941502.839
       222.000         168.000
  22706606.159    -4153552.73949  -3217673.37445  22706605.984    22706611.635
       219.000         161.000
  22524770.932     3994433.06949   3111296.26646  22524770.196    22524776.588
       224.000         169.000
  20236369.533    -1920716.96249  -1485209.42448  20236369.523    20236373.497
       247.000         215.000
  21209673.164    -2970836.95049   1161391.39647  21209673.229    21209677.497
       244.000         209.000
  24538860.537    -6858100.23849  -5326213.32445  24538859.301    24538868.795
       213.000         149.000
 99  4 23 18 27 30.0000000  0  8G 2G24G 5G 8G 7G 4G 9G16
  23209140.579      618290.01449    479521.36946  23209139.837    23209148.764
       222.000         163.000
  21365318.479    -8616320.44249  -6682747.88447  21365318.038    21365324.124
       239.000         198.000
  22925708.335    -4166025.09049  -2836456.36446  22925707.233    22925712.720
       221.000         167.000
  22691676.587    -4232007.91349  -3278807.24745  22691675.210    22691680.981
       219.000         162.000
  22536529.304     4056223.38049   3159444.50746  22536528.626    22536534.755
       224.000         170.000
  20235840.389    -1923497.70549  -1487376.22848  20235840.299    20235844.627
       246.000         215.000
  21209394.111    -2972303.79349   1160248.39147  21209393.942    21209398.196
       244.000         209.000
  24535188.728    -6877395.46849  -5341248.54945  24535188.462    24535197.534
       214.000         151.000
 99  4 23 18 28  0.0000000  0  8G 2G24G 5G 8G 7G 4G 9G16
  23222881.371      690497.22349    535786.57646  23222880.704    23222890.056
       222.000         165.000
  21350718.182    -8693045.28149  -6742533.41547  21350717.666    21350723.654
       239.000         198.000
  22909927.547    -4248952.13349  -2901074.79046  22909926.008    22909932.572
       219.000         167.000
  22676830.528    -4310024.03349  -3339598.98746  22676829.338    22676836.190
       220.000         163.000
  22548296.817     4118061.71149   3207630.17046  22548296.259    22548300.893
       223.000         170.000
  20235428.386    -1925662.67949  -1489063.22148  20235428.115    20235432.530
       245.000         214.000
  21209218.387    -2973227.40049   1159528.68247  21209217.994    21209222.476
       244.000         209.000
  24531604.811    -6896229.17949  -5355924.16545  24531603.484    24531612.646
       215.000         152.000
 99  4 23 18 28 30.0000000  0  8G 2G24G 5G 8G 7G 4G 9G16
  23236675.188      762983.31949    592269.07246  23236675.924    23236683.087
       222.000         166.000
  21336193.218    -8769374.26749  -6802010.49147  21336192.541    21336198.659
       240.000         198.000
  22894157.657    -4331822.74749  -2965649.24446  22894156.775    22894163.915
       221.000         167.000
  22662070.305    -4387589.56649  -3400039.62546  22662069.506    22662075.371
       221.000         165.000
  22560070.501     4179933.18749   3255841.66146  22560069.379    22560075.505
       222.000         170.000
  20235133.506    -1927212.14249  -1490270.58948  20235133.539    20235137.549
       245.000         214.000
  21209149.901    -2973587.43449   1159248.12547  21209149.701    21209154.002
       244.000         209.000
  24528107.654    -6914606.46049  -5370244.10345  24528107.215    24528116.051
       216.000         151.000
 99  4 23 18 29  0.0000000  0  8G 2G24G 5G 8G 7G 4G 9G16
  23250520.538      835740.12249    648962.53446  23250519.530    23250528.488
       222.000         165.000
  21321745.477    -8845297.33049  -6861171.26647  21321744.703    21321751.030
       240.000         199.000
  22878400.968    -4414625.02149  -3030170.44746  22878400.943    22878406.442
       223.000         169.000
  22647396.862    -4464700.26449  -3460125.84446  22647396.524    22647403.093
       222.000         167.000
  22571849.183     4241830.95049   3304073.62946  22571847.565    22571854.783
       222.000         170.000
  20234957.291    -1928138.40549  -1490992.34548  20234957.381    20234961.328
       246.000         214.000
  21209194.571    -2973352.85949   1159430.89847  21209194.430    21209198.619
       245.000         209.000
  24524697.758    -6932525.97849  -5384207.34345  24524697.165    24524705.517
       213.000         150.000
 99  4 23 18 29 30.0000000  0  8G 2G24G 5G 8G 7G 4G 9G16
  23264417.352      908767.70649    705866.99846  23264417.039    23264424.783
       220.000         163.000
  21307375.022    -8920814.27049  -6920015.58747  21307374.422    21307380.663
       240.000         199.000
  22862661.935    -4497335.10149  -3094619.80846  22862661.569    22862666.941
       225.000         170.000
  22632811.890    -4541345.70249  -3519849.52246  22632811.740    22632817.523
       223.000         168.000
  22583635.967     4303771.12349   3352338.63146  22583635.884    22583640.521
       221.000         169.000
  20234902.715    -1928425.54049  -1491216.08048  20234902.578    20234906.332
       247.000         214.000
  21209357.018    -2972499.41749   1160095.89947  21209356.648    21209361.176
       244.000         209.000
  24521377.707    -6949973.64749  -5397802.92145  24521376.454    24521385.924
       212.000         147.000
 99  4 23 18 30  0.0000000  0  8G 2G24G 5G 8G 7G 4G 9G16
  23278367.241      982074.92549    762989.35145  23278366.592    23278375.580
       218.000         161.000
  21293088.180    -8995892.08749  -6978517.72547  21293087.722    21293093.650
       240.000         200.000
  22846945.703    -4579924.93549  -3158975.45346  22846945.249    22846950.536
       225.000         170.000
  22618319.900    -4617501.92549  -3579191.99346  22618319.143    22618325.213
       224.000         168.000
  22595435.871     4365779.96249   3400657.15046  22595435.416    22595440.785
       223.000         169.000
  20234971.243    -1928065.42549  -1490935.45348  20234971.231    20234975.075
       247.000         214.000
  21209638.436    -2971020.46649   1161248.31447  21209638.183    21209642.490
       244.000         208.000
  24518150.276    -6966933.42449  -5411018.30545  24518149.488    24518157.904
       211.000         145.000
 99  4 23 18 30 30.0000000  0  8G 2G24G 5G 8G 7G 4G 9G16
  23292361.187     1055613.28049    820291.83445  23292360.454    23292368.876
       216.000         159.000
  21278879.656    -9070558.22549  -7036699.07547  21278879.119    21278885.212
       240.000         200.000
  22831246.411    -4662425.40349  -3223261.46746  22831245.957    22831249.235
       225.000         170.000
  22603909.919    -4693226.68049  -3638198.26646  22603909.619    22603914.974
       224.000         169.000
  22607242.586     4427824.18749   3449003.24246  22607241.752    22607246.539
       222.000         168.000
  20235155.193    -1927098.77549  -1490182.20848  20235155.094    20235159.273
       246.000         214.000
  21210030.962    -2968957.81349   1162855.56747  21210030.521    21210035.040
       245.000         209.000
  24515007.223    -6983450.53649  -5423888.74345  24515006.914    24515014.418
       211.000         142.000
 99  4 23 18 31  0.0000000  0  8G 2G24G 5G 8G 7G 4G 9G16
  23306408.459     1129431.75549    877812.55245  23306408.039    23306416.612
       218.000         158.000
  21264758.412    -9144765.56249  -7094522.92347  21264757.814    21264763.999
       240.000         199.000
  22815570.005    -4744805.90849  -3287454.02846  22815569.420    22815573.875
       224.000         169.000
  22589588.277    -4768487.63449  -3696843.12246  22589588.293    22589593.179
       225.000         170.000
  22619065.281     4489952.63149   3497414.95646  22619064.158    22619070.482
       223.000         168.000
  20235460.272    -1925495.36249  -1488932.79048  20235460.043    20235464.360
       246.000         214.000
  21210537.731    -2966295.09149   1164930.39647  21210537.590    21210542.073
       245.000         209.000
  24511958.214    -6999473.82449  -5436374.40745  24511958.924    24511964.800
       209.000         141.000
 99  4 23 18 31 30.0000000  0  8G 2G24G 5G 8G 7G 4G 9G16
  23320508.330     1203525.80449    935548.01845  23320508.028    23320516.586
       219.000         160.000
  21250721.367    -9218530.56849  -7152002.10447  21250720.782    21250726.663
       240.000         199.000
  22799913.723    -4827080.06949  -3351563.69946  22799912.669    22799918.190
       224.000         168.000
  22575354.306    -4843288.22449  -3755129.25846  22575353.698    22575359.074
       225.000         171.000
  22630902.040     4552154.91849   3545884.22246  22630902.272    22630907.465
       225.000         169.000
  20235883.173    -1923272.80749  -1487200.92948  20235883.080    20235887.276
       246.000         214.000
  21211154.286    -2963054.83849   1167455.24547  21211153.874    21211158.564
       244.000         208.000
  24509000.636    -7015016.18049  -5448485.30545  24508999.283    24509007.824
       208.000         138.000
 99  4 23 18 32  0.0000000  0  8G 2G24G 5G 8G 7G 4G 9G16
  23334662.482     1277905.51449    993506.07045  23334662.639    23334669.885
       218.000         159.000
  21236771.081    -9291839.39949  -7209125.82047  21236770.570    21236776.790
       240.000         199.000
  22784272.946    -4909272.58849  -3415609.77446  22784272.077    22784277.899
       225.000         168.000
  22561205.875    -4917639.77149  -3813065.49446  22561205.832    22561210.010
       225.000         171.000
  22642751.535     4614423.66649   3594405.27746  22642751.210    22642756.893
       226.000         171.000
  20236421.925    -1920441.53949  -1484994.74648  20236422.166    20236426.067
       247.000         214.000
  21211878.288    -2959249.92649   1170420.09647  21211878.052    21211882.844
       244.000         208.000
  24506131.780    -7030091.48249  -5460232.23945  24506130.329    24506138.390
       208.000         139.000
 99  4 23 18 32 30.0000000  0  8G 2G24G 5G 8G 7G 4G 9G16
  23348869.934     1352565.39949   1051682.43545  23348869.804    23348878.226
       217.000         158.000
  21222899.511    -9364734.88149  -7265927.45147  21222899.263    21222905.486
       241.000         200.000
  22768638.521    -4991432.04149  -3479630.09046  22768637.990    22768643.542
       224.000         169.000
  22547136.541    -4991575.21149  -3870677.49046  22547135.763    22547141.431
       225.000         171.000
  22654606.994     4676724.00149   3642950.92846  22654606.442    22654612.496
       226.000         171.000
  20237071.782    -1917026.67749  -1482333.81448  20237071.727    20237075.672
       247.000         215.000
  21212704.821    -2954906.63249   1173804.45647  21212704.520    21212709.162
       245.000         208.000
  24503348.554    -7044717.12849  -5471628.79245  24503348.135    24503356.210
       213.000         141.000
 99  4 23 18 33  0.0000000  0  8G 2G24G 5G 8G 7G 4G 9G16
  23363132.551     1427515.49449   1110084.95545  23363131.321    23363140.055
       216.000         157.000
  21209108.360    -9437208.05649  -7322400.00647  21209107.940    21209113.731
       241.000         201.000
  22753010.269    -5073558.78649  -3543624.90946  22753009.899    22753015.180
       225.000         170.000
  22533150.938    -5065069.59149  -3927945.81246  22533150.175    22533156.119
       224.000         171.000
  22666467.115     4739048.52449   3691515.44146  22666466.802    22666471.829
       227.000         172.000
  20237831.006    -1913037.13349  -1479225.07548  20237831.011    20237834.875
       247.000         215.000
  21213636.562    -2950010.50349   1177619.60247  21213636.245    21213640.816
       244.000         208.000
  24500653.191    -7058881.84249  -5482666.19545  24500652.671    24500660.185
       214.000         143.000
 99  4 23 18 33 30.0000000  0  8G 2G24G 5G 8G 7G 4G 9G16
  23377448.162     1502744.19149   1168704.58045  23377446.710    23377455.553
       217.000         156.000
  21195395.745    -9509268.02149  -7378550.58247  21195395.193    21195401.534
       241.000         201.000
  22737388.243    -5155652.84049  -3607594.23746  22737387.504    22737392.511
       225.000         170.000
  22519247.587    -5138131.88749  -3984877.42846  22519247.060    22519251.663
       225.000         171.000
  22678328.622     4801381.16549   3740086.28346  22678326.921    22678333.889
       225.000         171.000
  20238699.699    -1908472.17449  -1475667.95048  20238699.630    20238703.505
       247.000         214.000
  21214676.418    -2944545.76249   1181877.82047  21214676.105    21214681.089
       244.000         208.000
  24498043.321    -7072597.23249  -5493353.44045  24498042.918    24498052.372
       214.000         147.000
 99  4 23 18 34  0.0000000  0  8G 2G24G 5G 8G 7G 4G 9G16
  23391818.302     1578259.53449   1227547.57545  23391818.011    23391825.566
       214.000         154.000
  21181762.831    -9580909.15949  -7434374.80047  21181762.371    21181768.327
       241.000         201.000
  22721774.091    -5237705.39449  -3671531.24246  22721773.474    22721778.586
       225.000         170.000
  22505427.703    -5210756.40249  -4041467.90646  22505427.167    22505432.142
       225.000         171.000
  22690190.137     4863714.75849   3788657.85146  22690189.199    22690194.893
       225.000         171.000
  20239678.415    -1903328.66149  -1471660.01848  20239678.302    20239682.229
       246.000         214.000
  21215823.922    -2938516.02949   1186576.29247  21215823.471    21215828.231
       244.000         208.000
  24495522.564    -7085843.93049  -5503675.49645  24495521.273    24495529.957
       216.000         149.000
 99  4 23 18 34 30.0000000  0  8G 2G24G 5G 8G 7G 4G 9G16
  23406235.213     1654020.90849   1286582.25845  23406234.221    23406243.925
       213.000         154.000
  21168202.052    -9652171.12449  -7489903.56547  21168201.829    21168207.759
       241.000         201.000
  22706167.495    -5319718.41849  -3735437.44646  22706165.769    22706171.330
       225.000         171.000
  22491691.195    -5282941.89849  -4097716.31746  22491690.407    22491695.391
       224.000         171.000
  22702045.136     4926013.17249   3837201.99746  22702045.091    22702050.809
       224.000         171.000
  20240760.711    -1897641.25149  -1467228.27048  20240760.553    20240764.676
       246.000         213.000
  21217073.256    -2931950.67149   1191692.13447  21217072.766    21217077.340
       244.000         208.000
  24493086.666    -7098644.21649  -5513649.68545  24493085.460    24493094.165
       213.000         150.000
 99  4 23 18 35  0.0000000  0  8G 2G24G 5G 8G 7G 4G 9G16
  23420699.104     1730028.52749   1345808.79945  23420698.488    23420707.351
       213.000         154.000
  21154719.043    -9723024.88249  -7545114.23747  21154718.633    21154724.678
       242.000         202.000
  22690575.517    -5401653.86049  -3799283.19146  22690574.132    22690579.723
       225.000         171.000
  22478045.673    -5354649.32949  -4153592.19046  22478043.974    22478049.299
       224.000         170.000
  22713898.580     4988303.46549   3885739.82446  22713897.866    22713903.592
       224.000         172.000
  20241950.776    -1891387.42049  -1462355.15848  20241950.759    20241954.778
       246.000         214.000
  21218427.333    -2924835.00049   1197236.79347  21218427.169    21218431.599
       244.000         208.000
  24490736.101    -7110995.82649  -5523274.26645  24490735.806    24490744.423
       214.000         152.000
 99  4 23 18 35 30.0000000  0  8G 2G24G 5G 8G 7G 4G 9G16
  23435215.575     1806312.17249   1405250.42445  23435215.458    23435224.805
       212.000         155.000
  21141317.478    -9793450.66249  -7599991.42747  21141317.430    21141323.192
       242.000         203.000
  22675005.939    -5483471.82749  -3863037.40846  22675005.280    22675010.959
       226.000         171.000
  22464496.958    -5425847.14749  -4209070.97246  22464495.663    22464502.195
       221.000         169.000
  22725759.116     5050630.94749   3934306.62046  22725759.304    22725765.573
       224.000         172.000
  20243257.278    -1884521.72649  -1457005.26948  20243257.255    20243261.168
       247.000         215.000
  21219886.633    -2917166.74449   1203212.03447  21219886.408    21219890.807
       244.000         208.000
  24488476.537    -7122870.57149  -5532527.26245  24488476.301    24488484.192
       212.000         152.000
 99  4 23 18 36  0.0000000  0  8G 2G24G 5G 8G 7G 4G 9G16
  23449781.206     1882854.73149   1464893.77045  23449781.864    23449788.950
       212.000         154.000
  21127993.670    -9863468.00649  -7654550.35447  21127993.454    21127999.177
       242.000         203.000
  22659454.290    -5565195.94649  -3926718.50046  22659453.996    22659459.544
       225.000         172.000
  22451044.638    -5496538.91049  -4264155.43446  22451043.286    22451049.615
       221.000         169.000
  22737624.137     5112981.93849   3982891.73246  22737623.771    22737629.984
       225.000         173.000
  20244676.792    -1877062.08749  -1451192.56148  20244676.802    20244680.801
       247.000         215.000
  21221442.329    -2908991.70949   1209582.16747  21221442.211    21221446.706
       243.000         208.000
  24486302.532    -7134294.35549  -5541428.84745  24486300.437    24486310.637
       210.000         152.000
 99  4 23 18 36 30.0000000  0  8G 2G24G 5G 8G 7G 4G 9G16
  23464397.944     1959664.90949   1524745.68045  23464396.626    23464406.036
       213.000         155.000
  21114753.432    -9933045.58949  -7708766.61147  21114752.971    21114758.968
       241.000         203.000
  22643923.152    -5646812.24249  -3990315.58146  22643922.229    22643928.160
       226.000         172.000
  22437691.160    -5566711.35149  -4318835.22246  22437690.560    22437696.260
       223.000         169.000
  22749501.810     5175398.96249   4031528.30746  22749501.398    22749508.053
       226.000         173.000
  20246214.092    -1868983.57049  -1444897.61548  20246214.198    20246218.030
       247.000         215.000
  21223098.288    -2900289.25349   1216363.28247  21223097.935    21223102.388
       243.000         207.000
  24484217.387    -7145250.98449  -5549966.43245  24484216.340    24484224.686
       207.000         150.000
 99  4 23 18 37  0.0000000  0  8G 2G24G 5G 8G 7G 4G 9G16
  23479059.702     2036713.02749   1584782.97945  23479059.236    23479069.055
       214.000         157.000
  21101595.861   -10002188.63949  -7762644.26447  21101595.200    21101601.316
       243.000         203.000
  22628405.295    -5728359.59549  -4053858.93546  22628405.181    22628410.129
       227.000         174.000
  22424427.599    -5636411.58849  -4373147.07046  22424426.842    22424431.778
       225.000         170.000
  22761390.489     5237873.60349   4080209.79346  22761390.357    22761396.366
       228.000         174.000
  20247867.534    -1860294.73549  -1438127.08948  20247867.433    20247871.643
       246.000         214.000
  21224851.792    -2891074.51049   1223543.58047  21224851.421    21224855.850
       244.000         207.000
  24482220.406    -7155744.85349  -5558143.44445  24482218.763    24482227.903
       206.000         148.000
 99  4 23 18 37 30.0000000  0  8G 2G24G 5G 8G 7G 4G 9G16
  23493774.722     2114040.70349   1645038.12345  23493774.638    23493783.970
       216.000         158.000
  21088530.405   -10070848.33749  -7816145.28447  21088530.004    21088535.883
       242.000         204.000
  22612908.308    -5809797.34449  -4117316.87546  22612907.620    22612913.546
       227.000         175.000
  22411259.588    -5705609.15549  -4427067.22946  22411259.328    22411264.052
       223.000         170.000
  22773296.464     5300438.68149   4128961.74346  22773296.525    22773301.948
       229.000         175.000
  20249642.816    -1850965.50949  -1430857.56448  20249642.924    20249646.825
       246.000         214.000
  21226712.932    -2881294.42749   1231164.40247  21226712.563    21226717.052
       244.000         207.000
  24480322.781    -7165715.62449  -5565912.83545  24480322.545    24480331.071
       202.000         145.000
 99  4 23 18 38  0.0000000  0  8G 2G24G 5G 8G 7G 4G 9G16
  23508537.836     2191620.32949   1705489.59545  23508537.258    23508546.111
       217.000         159.000
  21075556.881   -10139024.41549  -7869269.45447  21075556.426    21075562.433
       242.000         204.000
  22597428.161    -5891146.32149  -4180705.64246  22597427.986    22597432.565
       227.000         175.000
  22398185.125    -5774315.40149  -4480604.52246  22398183.700    22398190.022
       224.000         170.000
  22785214.892     5363069.58949   4177764.99046  22785215.224    22785219.906
       229.000         176.000
  20251535.866    -1841017.52049  -1423105.88548  20251535.754    20251539.876
       246.000         214.000
  21228685.574    -2870928.19649   1239241.96947  21228685.197    21228689.592
       243.000         207.000
  24478523.343    -7175171.41949  -5573280.96345  24478522.921    24478530.894
       198.000         144.000
 99  4 23 18 38 30.0000000  0  8G 2G24G 5G 8G 7G 4G 9G16
  23523345.920     2269436.93349   1766125.70845  23523346.976    23523355.209
       217.000         159.000
  21062675.886   -10206714.30649  -7922014.78747  21062675.513    21062681.218
       243.000         205.000
  22581965.711    -5972401.60149  -4244021.40246  22581964.661    22581969.873
       226.000         175.000
  22385199.636    -5842554.41249  -4533777.75446  22385199.539    22385204.271
       226.000         171.000
  22797144.408     5425759.02949   4226613.84346  22797144.146    22797149.482
       230.000         176.000
  20253543.119    -1830469.41149  -1414886.58148  20253543.074    20253547.050
       247.000         214.000
  21230774.173    -2859952.31049   1247794.57947  21230773.761    21230778.627
       243.000         207.000
  24476823.210    -7184106.24949  -5580243.15545  24476822.798    24476830.950
       200.000         142.000
 99  4 23 18 39  0.0000000  0  8G 2G24G 5G 8G 7G 4G 9G16
  23538201.989     2347504.67149   1826957.51145  23538201.902    23538210.713
       219.000         157.000
  21049887.714   -10273916.66649  -7974380.21847  21049887.206    21049893.232
       242.000         205.000
  22566523.801    -6053548.53749  -4307252.73346  22566522.442    22566528.671
       225.000         175.000
  22372306.722    -5910307.65849  -4586572.47246  22372305.975    22372311.210
       226.000         171.000
  22809082.656     5488494.64949   4275498.68446  22809081.971    22809087.876
       229.000         176.000
  20255664.390    -1819322.10949  -1406200.36948  20255664.465    20255668.545
       247.000         214.000
  21232981.451    -2848352.65949   1256833.24447  21232981.373    21232985.848
       243.000         207.000
  24475221.171    -7192524.03849  -5586802.44845  24475220.947    24475230.056
       201.000         141.000
 99  4 23 18 39 30.0000000  0  8G 2G24G 5G 8G 7G 4G 9G16
  23553105.151     2425819.78049   1887982.07245  23553105.334    23553112.712
       217.000         154.000
  21037185.558   -10340666.72449  -8026393.20547  21037184.790    21037191.055
       242.000         205.000
  22551101.178    -6134594.10249  -4370405.08246  22551099.679    22551106.821
       224.000         174.000
  22359504.568    -5977584.08949  -4638995.64546  22359504.927    22359508.689
       227.000         172.000
  22821023.185     5551243.19649   4324393.59646  22821022.405    22821028.020
       229.000         176.000
  20257894.460    -1807603.12949  -1397068.69648  20257894.382    20257898.293
       247.000         215.000
  21235303.653    -2836149.72449   1266342.00247  21235303.415    21235308.073
       243.000         207.000
  24473711.252    -7200459.31449  -5592985.75045  24473710.173    24473719.061
       204.000         142.000
 99  4 23 18 40  0.0000000  0  8G 2G24G 5G 8G 7G 4G 9G16
  23568051.699     2504363.56849   1949184.84445  23568052.117    23568059.504
       217.000         152.000
  21024561.877   -10407004.23749  -8078084.73447  21024561.519    21024567.183
       242.000         205.000
  22535691.418    -6215571.93049  -4433504.66146  22535690.466    22535696.544
       225.000         174.000
  22346786.462    -6044418.54649  -4691074.42946  22346785.452    22346791.111
       228.000         172.000
  22832962.532     5613984.98749   4373283.23846  22832961.759    22832967.479
       229.000         177.000
  20260228.873    -1795335.59049  -1387509.57748  20260228.716    20260232.747
       247.000         215.000
  21237733.459    -2823380.87249   1276291.73047  21237733.263    21237738.155
       243.000         207.000
  24472286.626    -7207945.41949  -5598819.04245  24472287.328    24472293.609
       205.000         143.000
 99  4 23 18 40 30.0000000  0  8G 2G24G 5G 8G 7G 4G 9G16
  23583051.218     2583185.74149   2010604.54145  23583051.693    23583059.026
       215.000         150.000
  21012021.647   -10472903.47149  -8129434.74647  21012021.170    21012026.804
       243.000         205.000
  22520300.990    -6296449.04849  -4496525.76146  22520300.410    22520306.178
       226.000         175.000
  22334158.435    -6110779.23249  -4742784.03846  22334157.654    22334162.511
       227.000         173.000
  22844906.680     5676751.90749   4422192.45846  22844905.911    22844912.019
       229.000         177.000
  20262672.448    -1782494.36049  -1377503.43048  20262672.384    20262676.239
       246.000         215.000
  21240271.705    -2810042.77949   1286685.02347  21240271.696    21240276.016
       243.000         207.000
  24470953.877    -7214949.16149  -5604276.47845  24470954.181    24470962.175
       209.000         145.000
 99  4 23 18 41  0.0000000  0  8G 2G24G 5G 8G 7G 4G 9G16
  23598105.368     2662295.66149   2072248.44645  23598104.302    23598114.263
       213.000         150.000
  20999564.219   -10538367.63649  -8180445.74447  20999563.834    20999569.560
       243.000         206.000
  22504927.198    -6377239.69449  -4559479.47246  22504927.233    22504931.007
       227.000         175.000
  22321625.520    -6176640.37149  -4794104.39046  22321624.981    22321629.628
       228.000         174.000
  22856855.239     5739541.87449   4471119.63846  22856854.949    22856860.200
       230.000         178.000
  20265227.371    -1769067.99649  -1367041.33548  20265227.485    20265231.255
       246.000         214.000
  21242912.821    -2796163.92749   1297499.68447  21242912.688    21242917.245
       244.000         207.000
  24469713.343    -7221468.15649  -5609356.15645  24469712.021    24469720.810
       209.000         144.000
 99  4 23 18 41 30.0000000  0  8G 2G24G 5G 8G 7G 4G 9G16
  23613219.367     2741719.63649   2134137.06545  23613219.119    23613229.249
       214.000         151.000
  20987194.113   -10603372.97949  -8231099.22147  20987193.588    20987199.199
       243.000         206.000
  22489573.219    -6457926.27949  -4622352.10046  22489572.973    22489577.493
       227.000         175.000
  22309191.811    -6241980.66749  -4845018.89146  22309191.508    22309196.485
       227.000         174.000
  22868812.617     5802377.46849   4520082.36946  22868811.841    22868818.146
       231.000         179.000
  20267898.767    -1755029.76349  -1356102.46148  20267898.786    20267902.685
       247.000         214.000
  21245659.014    -2781733.27849   1308744.31847  21245659.086    21245662.957
       245.000         207.000
  24468573.613    -7227456.73849  -5614022.54045  24468572.720    24468581.843
       211.000         145.000
 99  4 23 18 42  0.0000000  0  8G 2G24G 5G 8G 7G 4G 9G16
  23628385.129     2821415.06449   2196237.20045  23628385.619    23628395.461
       213.000         153.000
  20974907.628   -10667938.74649  -8281410.16647  20974907.074    20974913.249
       242.000         206.000
  22474230.358    -6538553.84249  -4685178.72346  22474228.815    22474234.573
       227.000         174.000
  22296850.375    -6306835.72649  -4895555.28646  22296849.952    22296855.072
       228.000         174.000
  22880770.440     5865215.60149   4569047.08646  22880769.873    22880776.086
       231.000         180.000
  20270678.685    -1740421.34549  -1344719.27948  20270678.761    20270682.713
       247.000         214.000
  21248502.133    -2766793.09049   1320385.99547  21248501.958    21248505.977
       244.000         207.000
  24467528.980    -7232947.52049  -5618301.03545  24467529.502    24467535.491
       213.000         145.000
 99  4 23 18 42 30.0000000  0  8G 2G24G 5G 8G 7G 4G 9G16
  23643598.933     2901363.09349   2258534.15645  23643599.217    23643608.280
       216.000         155.000
  20962707.276   -10732051.76749  -8331368.32447  20962706.960    20962712.863
       243.000         206.000
  22458897.846    -6619126.35949  -4747962.45946  22458896.889    22458902.381
       226.000         173.000
  22284603.110    -6371194.98249  -4945705.33746  22284601.571    22284607.465
       225.000         174.000
  22892724.421     5928033.70849   4617996.19746  22892723.797    22892729.991
       231.000         181.000
  20273565.238    -1725252.72649  -1332899.57448  20273565.283    20273569.334
       247.000         214.000
  21251442.212    -2751342.85549   1332425.10747  21251441.843    21251446.511
       243.000         207.000
  24466576.349    -7237954.28349  -5622202.36645  24466575.412    24466583.520
       212.000         145.000
 99  4 23 18 43  0.0000000  0  8G 2G24G 5G 8G 7G 4G 9G16
  23658859.189     2981554.69149   2321020.93945  23658858.173    23658868.335
       213.000         155.000
  20950593.080   -10795712.24249  -8380973.84747  20950592.706    20950598.485
       244.000         206.000
  22443578.226    -6699630.93049  -4810693.24946  22443577.405    22443582.885
       225.000         172.000
  22272449.175    -6435064.18249  -4995473.53546  22272448.165    22272454.147
       226.000         174.000
  22904674.999     5990834.64949   4666931.93246  22904674.154    22904680.485
       230.000         181.000
  20276559.044    -1709520.48949  -1320640.68548  20276559.310    20276563.185
       248.000         215.000
  21254482.562    -2735365.86949   1344874.68047  21254482.368    21254486.610
       244.000         207.000
  24465714.324    -7242483.30649  -5625731.40745  24465713.119    24465722.554
       211.000         144.000
 99  4 23 18 43 30.0000000  0  8G 2G24G 5G 8G 7G 4G 9G16
  23674165.202     3061988.45249   2383696.39545  23674164.497    23674174.371
       214.000         154.000
  20938566.767   -10858910.82949  -8430219.46147  20938566.022    20938572.162
       244.000         206.000
  22428277.152    -6780037.10049  -4873347.36846  22428275.698    22428281.898
       226.000         173.000
  22260386.228    -6498454.51049  -5044868.57046  22260385.296    22260391.032
       226.000         174.000
  22916624.947     6053631.44849   4715864.42746  22916624.661    22916630.263
       230.000         181.000
  20279660.343    -1693223.41649  -1307941.67048  20279660.483    20279664.325
       248.000         215.000
  21257628.661    -2718833.05049   1357757.36547  21257628.570    21257632.798
       243.000         206.000
  24464942.704    -7246538.26849  -5628891.07045  24464941.603    24464949.717
       210.000         144.000
 99  4 23 18 44  0.0000000  0  8G 2G24G 5G 8G 7G 4G 9G16
  23689518.982     3142672.50949   2446566.89545  23689518.068    23689527.527
       212.000         152.000
  20926632.288   -10921626.39849  -8479088.69647  20926631.345    20926637.580
       244.000         206.000
  22413000.228    -6860317.26749  -4935903.30946  22412999.144    22413005.509
       228.000         176.000
  22248417.537    -6561350.04349  -5093878.06146  22248416.352    22248422.585
       227.000         175.000
  22928580.434     6116457.70149   4764819.87646  22928579.874    22928585.972
       228.000         180.000
  20282870.942    -1676351.79149  -1294794.95248  20282870.901    20282874.909
       247.000         215.000
  21260885.438    -2701718.86349   1371093.06847  21260885.275    21260889.431
       244.000         207.000
  24464261.052    -7250119.86849  -5631681.86645  24464259.935    24464267.858
       211.000         144.000
 99  4 23 18 44 30.0000000  0  8G 2G24G 5G 8G 7G 4G 9G16
  23704921.532     3223612.93449   2509637.16845  23704921.135    23704930.327
       213.000         151.000
  20914787.618   -10983870.36349  -8527590.45747  20914787.354    20914793.165
       245.000         206.000
  22397750.472    -6940455.04849  -4998348.29046  22397749.930    22397754.641
       229.000         178.000
  22236545.480    -6623737.57849  -5142491.70046  22236544.630    22236549.747
       228.000         175.000
  22940547.710     6179345.95749   4813823.65446  22940547.499    22940552.984
       226.000         178.000
  20286193.257    -1658893.04949  -1281190.74748  20286193.231    20286197.303
       247.000         215.000
  21264252.623    -2684024.12649   1384881.13847  21264252.274    21264256.759
       243.000         206.000
  24463670.811    -7253221.39749  -5634098.59945  24463670.513    24463677.857
       208.000         143.000
 99  4 23 18 45  0.0000000  0  8G 2G24G 5G 8G 7G 4G 9G16
  23720369.740     3304792.94049   2572894.12845  23720369.530    23720378.520
       215.000         151.000
  20903024.764   -11045684.55349  -8575757.31647  20903024.187    20903030.274
       243.000         206.000
  22382526.550    -7020458.66049  -5060688.73046  22382526.409    22382530.558
       231.000         179.000
  22224765.851    -6685639.47349  -5190726.91746  22224764.795    22224771.642
       226.000         175.000
  22952525.755     6242290.85949   4862871.54946  22952525.617    22952531.022
       224.000         176.000
  20289623.828    -1640864.99249  -1267142.91548  20289623.636    20289627.502
       246.000         215.000
  21267725.645    -2665773.01249   1399102.75447  21267725.070    21267729.950
       243.000         206.000
  24463171.029    -7255847.60249  -5636144.94645  24463170.250    24463178.563
       207.000         142.000
 99  4 23 18 45 30.0000000  0  8G 2G24G 5G 8G 7G 4G 9G16
  23735863.535     3386212.99349   2636338.11945  23735863.434    23735872.545
       211.000         150.000
  20891346.931   -11107051.59449  -8623575.75047  20891346.462    20891352.439
       243.000         207.000
  22367328.606    -7100324.97349  -5122922.18646  22367327.981    22367332.164
       230.000         179.000
  22213083.075    -6747032.71549  -5238565.79446  22213082.483    22213089.246
       227.000         176.000
  22964516.535     6305302.32349   4911971.33746  22964517.106    22964522.002
       223.000         174.000
  20293165.777    -1622251.58549  -1252638.96448  20293165.564    20293169.717
       247.000         214.000
  21271304.133    -2646967.44449   1413756.40747  21271303.753    21271308.739
       242.000         206.000
  24462766.538    -7257972.58749  -5637800.73745  24462765.440    24462773.932
       203.000         142.000
 99  4 23 18 46  0.0000000  0  8G 2G24G 5G 8G 7G 4G 9G16
  23751413.535     3467928.12549   2700012.04945  23751413.069    23751423.735
       213.000         149.000
  20879764.598   -11167917.00349  -8671003.30647  20879764.130    20879769.916
       244.000         207.000
  22352163.325    -7180018.43549  -5185020.95846  22352162.590    22352167.575
       229.000         178.000
  22201508.788    -6807856.16649  -5285960.66846  22201508.695    22201514.184
       227.000         175.000
  22976529.333     6368429.04949   4961160.92446  22976528.770    22976535.206
       221.000         172.000
  20296828.892    -1603001.76049  -1237639.10548  20296828.908    20296832.818
       247.000         214.000
  21274996.202    -2627565.39649   1428874.85647  21274996.087    21275000.697
       243.000         206.000
  24462468.063    -7259541.54949  -5639023.28545  24462468.016    24462475.234
       204.000         141.000
 99  4 23 18 46 30.0000000  0  8G 2G24G 5G 8G 7G 4G 9G16
  23767012.220     3549898.52449   2763884.87345  23767012.829    23767021.690
       215.000         148.000
  20868271.648   -11228312.66149  -8718064.82447  20868271.196    20868277.220
       244.000         207.000
  22337022.600    -7259581.97049  -5247018.47946  22337021.961    22337027.430
       228.000         177.000
  22190037.284    -6868138.89149  -5332934.21246  22190036.028    22190041.837
       226.000         175.000
  22988554.703     6431622.68849   5010402.66746  22988553.775    22988559.143
       220.000         171.000
  20300606.165    -1583151.83249  -1222171.62548  20300606.173    20300610.081
       247.000         214.000
  21278793.721    -2607609.55549   1444424.82747  21278793.378    21278798.532
       242.000         206.000
  24462269.541    -7260583.60349  -5639835.22445  24462268.654    24462277.564
       199.000         139.000
 99  4 23 18 47  0.0000000  0  8G 2G24G 5G 8G 7G 4G 9G16
  23782654.897     3632099.99249   2827937.76645  23782654.681    23782664.088
       213.000         146.000
  20856870.416   -11288226.38149  -8764750.80447  20856869.969    20856875.835
       243.000         207.000
  22321901.328    -7339044.05349  -5308936.94646  22321900.520    22321905.965
       228.000         177.000
  22178664.518    -6927903.07849  -5379503.68846  22178664.120    22178669.407
       227.000         176.000
  23000583.901     6494836.35349   5059660.00146  23000582.918    23000589.368
       218.000         169.000
  20304494.115    -1562720.52949  -1206251.12748  20304494.091    20304498.010
       248.000         214.000
  21282693.503    -2587116.12849   1460393.69947  21282693.048    21282698.115
       242.000         206.000
  24462168.301    -7261115.68149  -5640249.80245  24462167.354    24462176.329
       196.000         138.000
 99  4 23 18 47 30.0000000  0  8G 2G24G 5G 8G 7G 4G 9G16
  23798343.862     3714545.52149   2892180.84145  23798342.700    23798352.723
       213.000         144.000
  20845568.287   -11347619.47949  -8811031.10147  20845567.854    20845573.653
       244.000         207.000
  22306799.189    -7418406.43249  -5370777.72346  22306798.954    22306804.268
       229.000         178.000
  22167393.636    -6987132.35049  -5425656.34946  22167393.273    22167397.785
       230.000         177.000
  23012617.431     6558073.20749   5108935.40446  23012616.617    23012623.781
       217.000         169.000
  20308493.232    -1541705.09749  -1189875.46348  20308493.323    20308497.092
       247.000         214.000
  21286694.482    -2566090.99049   1476776.88947  21286694.108    21286699.634
       242.000         207.000
  24462163.960    -7261138.79049  -5640267.80845  24462161.748    24462169.738
       197.000         136.000
 99  4 23 18 48  0.0000000  0  8G 2G24G 5G 8G 7G 4G 9G16
  23814078.266     3797229.40049   2956609.64745  23814076.498    23814088.479
       212.000         145.000
  20834360.649   -11406516.18349  -8856924.60247  20834360.382    20834366.033
       245.000         208.000
  22291713.002    -7497685.33349  -5432553.45146  22291712.828    22291717.954
       230.000         180.000
  22156222.773    -7045836.18049  -5471399.58746  22156222.436    22156227.462
       230.000         178.000
  23024650.237     6621305.10249   5158206.95346  23024649.986    23024655.924
       217.000         168.000
  20312598.555    -1520131.47449  -1173064.85848  20312598.411    20312602.482
       246.000         214.000
  21290793.246    -2544552.06649   1493560.43247  21290793.261    21290797.958
       242.000         207.000
  24462251.561    -7260677.51348  -5639908.35545  24462250.966    24462259.202
       193.000         135.000
 99  4 23 18 48 30.0000000  0  8G 2G24G 5G 8G 7G 4G 9G16
  23829860.930     3880166.95649   3021236.10645  23829861.710    23829869.619
       216.000         145.000
  20823251.575   -11464894.64249  -8902414.27947  20823251.093    20823256.865
       244.000         208.000
  22276649.740    -7576844.33149  -5494235.75146  22276649.217    22276654.273
       232.000         181.000
  22145157.363    -7103986.76449  -5516711.71546  22145156.857    22145162.235
       229.000         179.000
  23036683.497     6684540.30849   5207481.07546  23036682.786    23036689.402
       217.000         168.000
  20316814.794    -1497975.04649  -1155800.12148  20316814.812    20316818.958
       246.000         214.000
  21294991.419    -2522490.85349   1510750.95447  21294990.775    21294995.978
       243.000         206.000
  24462436.239    -7259706.09249  -5639151.38445  24462435.548    24462443.998
       197.000         136.000
 99  4 23 18 49  0.0000000  0  8G 2G24G 5G 8G 7G 4G 9G16
  23845689.478     3963345.49149   3086050.33045  23845688.653    23845698.357
       216.000         147.000
  20812235.013   -11522786.75149  -8947524.98047  20812234.560    20812240.046
       244.000         208.000
  22261607.999    -7655889.71449  -5555829.51646  22261607.250    22261612.298
       230.000         182.000
  22134193.495    -7161603.14749  -5561607.58346  22134192.457    22134198.145
       230.000         180.000
  23048712.408     6747752.86849   5256737.55246  23048711.779    23048718.449
       216.000         168.000
  20321137.003    -1475261.66949  -1138101.40048  20321136.980    20321141.090
       246.000         214.000
  21299285.626    -2499924.65649   1528334.96547  21299285.481    21299290.719
       243.000         207.000
  24462714.004    -7258245.04449  -5638012.88845  24462713.096    24462722.564
       196.000         137.000
 99  4 23 18 49 30.0000000  0  8G 2G24G 5G 8G 7G 4G 9G16
  23861575.960     4046827.87849   3151101.35345  23861575.045    23861584.590
       220.000         145.000
  20801313.769   -11580178.28749  -8992245.62347  20801313.390    20801319.017
       245.000         208.000
  22246600.761    -7734753.05449  -5617281.43546  22246600.179    22246603.975
       229.000         181.000
  22123341.766    -7218629.66849  -5606043.81546  22123341.050    22123346.403
       229.000         180.000
  23060750.197     6811011.96649   5306030.28946  23060749.315    23060756.282
       216.000         166.000
  20325574.411    -1451942.91749  -1119930.95848  20325574.358    20325578.609
       247.000         215.000
  21303686.336    -2476799.28649   1546354.69647  21303686.165    21303691.109
       243.000         207.000
  24463094.319    -7256245.68749  -5636454.92645  24463093.413    24463102.250
       208.000         139.000
 99  4 23 18 50  0.0000000  0  8G 2G24G 5G 8G 7G 4G 9G16
  23877512.827     4130576.11449   3216359.51745  23877512.852    23877522.961
       215.000         145.000
  20790478.281   -11637118.97849  -9036614.96247  20790477.872    20790483.326
       245.000         209.000
  22231623.584    -7813458.08649  -5678610.00446  22231622.758    22231627.681
       228.000         180.000
  22112593.707    -7275111.30349  -5650055.46546  22112592.831    22112598.101
       230.000         180.000
  23072791.364     6874289.10649   5355337.08646  23072790.450    23072797.409
       215.000         165.000
  20330121.614    -1428047.41649  -1101311.09948  20330121.610    20330125.721
       247.000         215.000
  21308191.445    -2453125.08949   1564802.08447  21308191.296    21308196.165
       243.000         207.000
  24463571.011    -7253742.93949  -5634504.72245  24463571.822    24463578.423
       205.000         141.000
 99  4 23 18 50 30.0000000  0  8G 2G24G 5G 8G 7G 4G 9G16
  23893496.245     4214569.34649   3281808.58645  23893495.477    23893505.961
       216.000         146.000
  20779726.751   -11693618.63349  -9080640.63447  20779726.325    20779732.153
       244.000         209.000
  22216674.208    -7892017.29049  -5739824.93346  22216673.517    22216677.881
       228.000         179.000
  22101945.887    -7331066.14749  -5693656.63146  22101945.012    22101950.417
       230.000         180.000
  23084834.419     6937575.25849   5404650.88946  23084834.102    23084840.673
       215.000         164.000
  20334773.066    -1403604.21449  -1082264.46048  20334773.100    20334776.992
       247.000         215.000
  21312800.574    -2428904.15749   1583675.49947  21312800.545    21312805.347
       243.000         207.000
  24464139.276    -7250757.42749  -5632178.33845  24464138.699    24464146.093
       208.000         143.000
 99  4 23 18 51  0.0000000  0  8G 2G24G 5G 8G 7G 4G 9G16
  23909525.077     4298800.24549   3347442.86245  23909524.690    23909535.675
       214.000         148.000
  20769056.516   -11749691.15349  -9124333.48147  20769055.932    20769061.861
       244.000         210.000
  22201748.287    -7970453.42049  -5800943.96746  22201747.180    22201751.962
       229.000         179.000
  22091396.938    -7386501.01949  -5736852.62346  22091396.035    22091400.591
       229.000         180.000
  23096880.683     7000878.63349   5453978.11446  23096880.752    23096886.782
       216.000         163.000
  20339525.508    -1378630.07349  -1062804.10348  20339525.559    20339529.440
       247.000         214.000
  21317513.863    -2404136.11049   1602975.23147  21317513.822    21317518.661
       244.000         207.000
  24464800.091    -7247284.47249  -5629472.10145  24464799.981    24464807.913
       210.000         145.000
 99  4 23 18 51 30.0000000  0  8G 2G24G 5G 8G 7G 4G 9G16
  23925595.065     4383248.27749   3413246.31445  23925594.376    23925604.964
       212.000         149.000
  20758469.542   -11805325.94449  -9167685.23247  20758469.211    20758474.971
       244.000         210.000
  22186841.555    -8048788.68849  -5861984.40346  22186841.349    22186845.637
       230.000         180.000
  22080946.729    -7441416.83049  -5779644.14846  22080945.689    22080951.221
       230.000         180.000
  23108931.007     7064202.82349   5503321.55445  23108930.221    23108936.829
       216.000         161.000
  20344378.370    -1353128.26649  -1042932.57448  20344378.420    20344382.392
       247.000         214.000
  21322328.775    -2378833.93049   1622691.17947  21322328.639    21322333.134
       244.000         207.000
  24465554.746    -7243319.49249  -5626382.47845  24465554.439    24465562.172
       210.000         146.000
 99  4 23 18 52  0.0000000  0  8G 2G24G 5G 8G 7G 4G 9G16
  23941703.576     4467897.82349   3479206.79045  23941702.914    23941714.219
       210.000         148.000
  20747971.952   -11860490.97549  -9210670.93947  20747971.618    20747976.970
       245.000         210.000
  22171953.790    -8127024.56349  -5922947.38646  22171952.966    22171958.411
       230.000         181.000
  22070596.550    -7495806.60849  -5822025.78946  22070595.655    22070601.399
       229.000         180.000
  23120983.298     7127537.30649   5552673.01045  23120982.687    23120989.184
       217.000         160.000
  20349330.325    -1327105.73149  -1022655.28748  20349330.482    20349334.504
       247.000         214.000
  21327246.608    -2352990.78649   1642828.65747  21327246.345    21327251.191
       243.000         207.000
  24466405.950    -7238847.05049  -5622897.42845  24466405.910    24466413.351
       211.000         147.000
 99  4 23 18 52 30.0000000  0  8G 2G24G 5G 8G 7G 4G 9G16
  23957849.833     4552746.10049   3545322.10945  23957849.436    23957860.663
       209.000         146.000
  20737564.824   -11915180.91949  -9253286.45047  20737564.533    20737569.937
       245.000         210.000
  22157085.269    -8205159.33549  -5983831.59846  22157085.179    22157089.816
       231.000         182.000
  22060347.576    -7549665.19949  -5863993.50446  22060345.990    22060352.229
       228.000         180.000
  23133036.184     7190874.66649   5602026.71545  23133035.573    23133041.104
       217.000         158.000
  20354381.713    -1300560.64749  -1001970.82048  20354381.685    20354385.657
       247.000         213.000
  21332263.301    -2326628.27849   1663370.82947  21332263.251    21332267.593
       244.000         207.000
  24467354.934    -7233860.22449  -5619011.56645  24467353.524    24467361.686
       214.000         147.000
 99  4 23 18 53  0.0000000  0  8G 2G24G 5G 8G 7G 4G 9G16
  23974034.429     4637796.15249   3611594.65945  23974032.653    23974044.830
       207.000         145.000
  20727248.726   -11969392.12849  -9295528.92047  20727248.135    20727253.905
       244.000         210.000
  22142237.632    -8283184.50149  -6044630.39546  22142236.818    22142242.209
       231.000         183.000
  22050197.169    -7603005.50149  -5905557.36746  22050196.427    22050202.365
       228.000         180.000
  23145090.405     7254219.88949   5651386.54845  23145089.838    23145096.255
       217.000         156.000
  20359534.931    -1273480.20549   -980869.19448  20359534.727    20359538.840
       247.000         214.000
  21337375.679    -2299762.73749   1684304.97647  21337375.642    21337379.955
       244.000         207.000
  24468401.653    -7228359.62149  -5614725.34745  24468400.159    24468408.512
       214.000         146.000
 99  4 23 18 53 30.0000000  0  8G 2G24G 5G 8G 7G 4G 9G16
  23990263.928     4723082.60249   3678051.40745  23990263.806    23990272.272
       210.000         145.000
  20717033.331   -12023074.06149  -9337358.97047  20717032.767    20717038.408
       244.000         210.000
  22127420.756    -8361047.64649  -6105302.94646  22127420.266    22127425.176
       231.000         184.000
  22040151.490    -7655795.26249  -5946692.23846  22040150.471    22040156.091
       228.000         180.000
  23157151.285     7317599.97249   5700773.53845  23157150.248    23157156.219
       219.000         156.000
  20364797.708    -1245823.99249   -959318.91648  20364797.614    20364801.868
       247.000         214.000
  21342592.979    -2272345.97649   1705668.64647  21342592.900    21342597.267
       244.000         207.000
  24469549.014    -7222330.15549  -5610027.05145  24469548.994    24469556.445
       214.000         147.000
 99  4 23 18 54  0.0000000  0  8G 2G24G 5G 8G 7G 4G 9G16
  24006544.647     4808636.91149   3744716.90545  24006544.845    24006555.045
       212.000         145.000
  20706921.764   -12076210.40849  -9378763.89247  20706921.367    20706927.193
       245.000         211.000
  22112639.954    -8438721.42149  -6165827.93946  22112639.928    22112644.024
       231.000         183.000
  22030213.651    -7708018.41649  -5987385.58846  22030213.041    22030218.850
       229.000         180.000
  23169220.009     7381021.56949   5750192.87545  23169219.053    23169225.834
       221.000         156.000
  20370173.477    -1217574.05849   -937305.99448  20370173.402    20370177.406
       247.000         214.000
  21347919.457    -2244355.81149   1727479.12647  21347919.223    21347923.528
       244.000         207.000
  24470797.848    -7215767.99649  -5604913.65045  24470797.030    24470804.826
       212.000         147.000
 99  4 23 18 54 30.0000000  0  8G 2G24G 5G 8G 7G 4G 9G16
  24022874.988     4894452.10149   3811585.69345  24022874.780    24022884.159
       211.000         145.000
  20696909.689   -12128824.34549  -9419761.73347  20696909.198    20696914.917
       245.000         211.000
  22097889.923    -8516233.62149  -6226227.03746  22097888.670    22097894.121
       231.000         183.000
  22020379.454    -7759697.65449  -6027655.12946  22020379.159    22020384.556
       230.000         181.000
  23181294.686     7444473.81749   5799636.10045  23181294.394    23181300.543
       223.000         158.000
  20375658.020    -1188753.03149   -914848.06348  20375658.045    20375662.059
       247.000         214.000
  21353348.552    -2215825.66449   1749710.37147  21353348.135    21353352.737
       243.000         206.000
  24472143.167    -7208698.47449  -5599404.91145  24472142.918    24472150.794
       213.000         146.000
 99  4 23 18 55  0.0000000  0  8G 2G24G 5G 8G 7G 4G 9G16
  24039247.171     4980487.80149   3878626.30845  24039246.986    24039257.337
       210.000         145.000
  20686988.841   -12180958.63949  -9460385.83247  20686988.376    20686993.829
       245.000         211.000
  22083162.097    -8593628.30049  -6286534.55246  22083161.366    22083165.581
       230.000         183.000
  22010642.894    -7810864.29049  -6067525.22146  22010641.990    22010647.419
       230.000         181.000
  23193368.932     7507923.99749   5849077.73445  23193367.846    23193374.431
       225.000         160.000
  20381241.287    -1159412.91549   -891985.65048  20381241.260    20381245.096
       247.000         214.000
  21358874.593    -2186786.12349   1772338.54047  21358874.299    21358878.942
       244.000         206.000
  24473576.508    -7201165.48449  -5593535.03445  24473575.087    24473584.304
       209.000         145.000
 99  4 23 18 55 30.0000000  0  8G 2G24G 5G 8G 7G 4G 9G16
  24055669.563     5066787.88449   3945872.91045  24055668.807    24055680.755
       211.000         145.000
  20677169.262   -12232560.70449  -9500595.20447  20677168.644    20677174.553
       245.000         211.000
  22068464.814    -8670861.94149  -6346716.58246  22068463.740    22068469.134
       230.000         183.000
  22001015.129    -7861458.50549  -6106949.28646  22001014.844    22001020.481
       231.000         182.000
  23205451.264     7571416.35649   5898552.20845  23205450.561    23205456.477
       226.000         162.000
  20386932.605    -1129504.71449   -868680.56848  20386932.670    20386936.587
       246.000         214.000
  21364507.819    -2157183.64949   1795405.36847  21364507.639    21364512.256
       244.000         206.000
  24475109.691    -7193109.19449  -5587257.38945  24475108.615    24475116.977
       209.000         144.000
 99  4 23 18 56  0.0000000  0  8G 2G24G 5G 8G 7G 4G 9G16
  24072143.147     5153356.62749   4013328.85445  24072144.321    24072154.175
       214.000         146.000
  20667447.483   -12283649.00149  -9540404.24247  20667447.124    20667452.762
       245.000         211.000
  22053795.965    -8747946.50149  -6406782.45046  22053794.985    22053800.396
       232.000         183.000
  21991492.010    -7911503.16249  -6145945.13146  21991491.547    21991496.444
       230.000         182.000
  23217540.966     7634947.42549   5948056.84646  23217539.602    23217546.522
       228.000         165.000
  20392730.004    -1099038.93549   -844941.01448  20392729.907    20392734.035
       246.000         213.000
  21370241.871    -2127051.28649   1818885.08847  21370241.290    21370246.200
       243.000         205.000
  24476743.135    -7184524.46449  -5580567.98645  24476742.154    24476750.664
       206.000         142.000
 99  4 23 18 56 30.0000000  0  8G 2G24G 5G 8G 7G 4G 9G16
  24088659.190     5240147.15349   4080957.63345  24088658.838    24088670.591
       212.000         147.000
  20657814.943   -12334268.34449  -9579847.86047  20657814.732    20657820.252
       245.000         211.000
  22039152.539    -8824898.64749  -6466745.12646  22039152.043    22039156.617
       232.000         184.000
  21982066.761    -7961033.45749  -6184540.17046  21982065.862    21982071.626
       230.000         182.000
  23229630.763     7698478.76949   5997561.70546  23229630.112    23229636.426
       229.000         166.000
  20398627.666    -1068046.48849   -820791.06748  20398627.484    20398631.834
       246.000         213.000
  21376068.741    -2096430.93349   1842745.05847  21376068.416    21376073.161
       243.000         205.000
  24478471.616    -7175440.45649  -5573489.53445  24478470.607    24478479.247
       207.000         141.000
 99  4 23 18 57  0.0000000  0  8G 2G24G 5G 8G 7G 4G 9G16
  24105224.934     5327200.15949   4148790.91445  24105225.670    24105235.623
       213.000         146.000
  20648280.895   -12384370.14149  -9618888.19847  20648280.673    20648285.941
       245.000         212.000
  22024545.949    -8901657.17449  -6526556.93146  22024544.925    22024550.254
       232.000         184.000
  21972751.673    -8009984.51349  -6222683.85346  21972751.011    21972756.288
       230.000         182.000
  23241727.887     7762049.54049   6047097.28446  23241727.487    23241734.596
       227.000         167.000
  20404636.384    -1036470.25249   -796186.22248  20404636.464    20404640.527
       246.000         213.000
  21381997.718    -2065273.97249   1867023.16547  21381997.411    21382002.091
       243.000         204.000
  24480303.529    -7165813.89649  -5565988.32545  24480302.040    24480312.106
       203.000         139.000
 99  4 23 18 57 30.0000000  0  8G 2G24G 5G 8G 7G 4G 9G16
  24121837.522     5414498.82249   4216815.63945  24121837.919    24121848.399
       212.000         144.000
  20638842.167   -12433971.07349  -9657538.24647  20638841.737    20638847.362
       245.000         212.000
  22009971.774    -8978245.02849  -6586235.74846  22009971.054    22009976.205
       232.000         184.000
  21963542.722    -8058377.13649  -6260392.39246  21963541.686    21963547.492
       229.000         182.000
  23253826.647     7825629.01749   6096639.63246  23253827.170    23253832.703
       228.000         168.000
  20410752.219    -1004331.58949   -771143.12048  20410752.230    20410756.211
       247.000         213.000
  21388022.576    -2033613.44649   1891693.66147  21388022.340    21388026.910
       242.000         204.000
  24482235.510    -7155660.11649  -5558076.29545  24482235.521    24482243.891
       202.000         137.000
 99  4 23 18 58  0.0000000  0  8G 2G24G 5G 8G 7G 4G 9G16
  24138502.505     5502073.22549   4285055.21945  24138502.812    24138512.890
       208.000         142.000
  20629503.855   -12483044.07149  -9695776.91947  20629503.322    20629508.842
       245.000         212.000
  21995435.784    -9054632.11349  -6645758.12446  21995434.837    21995439.773
       231.000         183.000
  21954449.264    -8106162.86349  -6297628.02646  21954448.382    21954454.254
       230.000         183.000
  23265933.212     7889249.33949   6146213.81146  23265932.820    23265939.899
       226.000         167.000
  20416979.456     -971607.38049   -745643.74948  20416979.339    20416983.432
       247.000         213.000
  21394149.010    -2001418.99649   1916780.20447  21394148.479    21394153.401
       242.000         204.000
  24484273.347    -7144952.48449  -5549732.71945  24484271.651    24484280.943
       200.000         135.000
 99  4 23 18 58 30.0000000  0  8G 2G24G 5G 8G 7G 4G 9G16
  24155210.040     5589870.70249   4353468.61645  24155209.826    24155218.718
       210.000         141.000
  20620259.645   -12531622.36449  -9733630.11147  20620259.401    20620264.798
       245.000         212.000
  21980932.149    -9130849.20649  -6705148.05946  21980931.628    21980936.136
       231.000         184.000
  21945471.798    -8153339.97349  -6334389.41446  21945471.186    21945476.823
       231.000         183.000
  23278042.078     7952881.44749   6195797.19046  23278041.317    23278047.270
       225.000         167.000
  20423310.128     -938339.57149   -719720.79348  20423310.207    20423314.512
       247.000         214.000
  21400375.347    -1968698.99549   1942276.25947  21400374.749    21400379.549
       242.000         204.000
  24486408.872    -7133729.51449  -5540987.55645  24486407.463    24486416.013
       196.000         133.000
 99  4 23 18 59  0.0000000  0  8G 2G24G 5G 8G 7G 4G 9G16
  24171954.528     5677863.10849   4422033.89045  24171954.944    24171963.700
       210.000         139.000
  20611104.989   -12579730.39349  -9771116.85947  20611104.729    20611110.242
       245.000         212.000
  21966449.334    -9206956.47549  -6764452.40546  21966448.684    21966453.482
       232.000         185.000
  21936602.567    -8199948.74749  -6370707.93646  21936601.946    21936607.164
       231.000         183.000
  23290150.817     8016513.09649   6245380.18646  23290150.414    23290156.869
       224.000         166.000
  20429735.168     -904575.92149   -693411.46748  20429735.209    20429739.456
       247.000         214.000
  21406697.017    -1935478.44049   1968162.35847  21406696.652    21406701.458
       242.000         204.000
  24488636.522    -7122024.64649  -5531866.92644  24488636.750    24488643.597
       195.000         131.000
 99  4 23 18 59 30.0000000  0  8G 2G24G 5G 8G 7G 4G 9G16
  24188737.472     5766056.64049   4490755.86745  24188738.585    24188747.835
       210.000         139.000
  20602040.074   -12627366.89149  -9808236.18847  20602039.635    20602045.093
       245.000         212.000
  21951989.728    -9282942.36749  -6823662.17246  21951989.034    21951994.115
       234.000         186.000
  21927839.862    -8245997.01749  -6406589.69546  21927839.103    21927844.987
       231.000         183.000
  23302263.152     8080163.57849   6294977.86146  23302263.199    23302269.155
       224.000         166.000
  20436255.328     -870312.37749   -666712.61748  20436255.095    20436259.418
       247.000         214.000
  21413116.997    -1901741.37149   1994450.94247  21413116.498    21413121.323
       241.000         204.000
  24490959.569    -7109817.17549  -5522354.65444  24490957.743    24490967.859
       196.000         130.000
 99  4 23 19  0  0.0000000  0  8G 2G24G 5G 8G 7G 4G 9G16
  24205557.365     5854444.70049   4559629.40645  24205557.571    24205568.749
       207.000         139.000
  20593064.893   -12674531.92649  -9844988.14547  20593064.418    20593069.933
       245.000         212.000
  21937558.560    -9358779.03749  -6882755.66646  21937557.655    21937562.563
       233.000         187.000
  21919183.702    -8291485.52049  -6442035.28346  21919182.835    21919188.718
       231.000         184.000
  23314380.161     8143839.11349   6344595.06946  23314378.981    23314385.937
       221.000         164.000
  20442870.375     -835550.01949   -639625.08748  20442870.465    20442874.328
       247.000         214.000
  21419637.635    -1867475.24549   2021151.77147  21419637.434    21419642.127
       242.000         204.000
  24493378.644    -7097103.49348  -5512447.92344  24493377.068    24493386.853
       192.000         130.000
 99  4 23 19  0 30.0000000  0  8G 2G24G 5G 8G 7G 4G 9G16
  24222407.934     5942994.62849   4628629.08245  24222406.867    24222419.704
       208.000         140.000
  20584174.680   -12721250.04349  -9881391.85247  20584174.313    20584179.903
       246.000         212.000
  21923152.003    -9434486.12949  -6941748.18446  21923151.188    21923156.212
       234.000         187.000
  21910624.500    -8336463.86349  -6477083.34846  21910623.881    21910629.510
       231.000         184.000
  23326495.080     8207502.86149   6394203.09646  23326494.524    23326501.204
       221.000         163.000
  20449574.204     -800321.33849   -612174.19048  20449574.304    20449578.419
       246.000         214.000
  21426250.965    -1832722.22149   2048232.00147  21426250.735    21426255.764
       242.000         204.000
  24495888.048    -7083916.40648  -5502172.33344  24495886.331    24495894.216
       194.000         131.000
 99  4 23 19  1  0.0000000  0  8G 2G24G 5G 8G 7G 4G 9G16
  24239305.266     6031789.75649   4697819.81745  24239305.988    24239316.780
       209.000         141.000
  20575385.100   -12767439.58749  -9917383.67948  20575384.668    20575390.001
       246.000         213.000
  21908783.977    -9509990.54249  -7000582.76746  21908782.735    21908788.435
       233.000         187.000
  21902173.901    -8380872.37249  -6511687.37846  21902174.170    21902179.286
       233.000         185.000
  23338619.269     8271215.54649   6443849.27045  23338618.790    23338625.774
       218.000         162.000
  20456382.540     -764543.46049   -584295.33948  20456382.501    20456386.859
       246.000         214.000
  21432964.877    -1797440.53149   2075724.17847  21432964.557    21432969.838
       242.000         204.000
  24498503.712    -7070171.29249  -5491461.88445  24498503.459    24498510.506
       198.000         132.000
 99  4 23 19  1 30.0000000  0  8G 2G24G 5G 8G 7G 4G 9G16
  24256248.687     6120826.58049   4767198.89645  24256248.818    24256259.143
       207.000         141.000
  20566695.598   -12813103.13749  -9952965.64448  20566695.333    20566700.771
       246.000         213.000
  21894458.567    -9585270.65449  -7059242.57146  21894457.572    21894462.376
       235.000         186.000
  21893835.446    -8424692.22849  -6545832.72146  21893834.903    21893840.175
       232.000         186.000
  23350749.560     8334960.36149   6493520.44745  23350749.083    23350756.734
       218.000         161.000
  20463296.648     -728209.42649   -555983.12548  20463296.824    20463301.025
       247.000         214.000
  21439777.296    -1761641.41049   2103619.55547  21439777.281    21439782.009
       242.000         204.000
  24501226.702    -7055861.14049  -5480311.13845  24501225.604    24501234.653
       203.000         136.000
 99  4 23 19  2  0.0000000  0  8G 2G24G 5G 8G 7G 4G 9G16
  24273233.549     6210081.84249   4836748.18145  24273232.871    24273244.048
       207.000         140.000
  20558102.387   -12858260.55349  -9988153.21448  20558102.112    20558107.409
       246.000         213.000
  21880168.888    -9660362.62249  -7117755.77946  21880168.205    21880173.091
       232.000         186.000
  21885604.129    -8467948.12749  -6579538.61746  21885603.442    21885608.771
       232.000         186.000
  23362878.979     8398699.98349   6543187.60745  23362877.606    23362885.583
       216.000         159.000
  20470310.926     -691349.25849   -527260.93448  20470310.949    20470315.309
       247.000         213.000
  21446681.624    -1725359.21449   2131891.35147  21446681.232    21446686.554
       241.000         204.000
  24504050.058    -7041025.60449  -5468751.00645  24504049.709    24504057.039
       207.000         139.000
 99  4 23 19  2 30.0000000  0  8G 2G24G 5G 8G 7G 4G 9G16
  24290264.190     6299577.69849   4906484.93645  24290264.050    24290274.900
       205.000         139.000
  20549611.368   -12902881.34249 -10022922.64248  20549611.000    20549616.520
       245.000         213.000
  21865915.449    -9735264.54949  -7176120.89846  21865914.332    21865919.368
       232.000         186.000
  21877484.273    -8510618.22049  -6612788.05346  21877483.413    21877488.867
       232.000         185.000
  23375011.385     8462456.33549   6592867.82945  23375010.417    23375017.361
       214.000         157.000
  20477431.229     -653932.22049   -498104.82148  20477431.379    20477435.082
       247.000         213.000
  21453680.749    -1688578.72249   2160551.42747  21453680.546    21453685.794
       243.000         204.000
  24506976.485    -7025646.88149  -5456767.59845  24506976.343    24506983.543
       205.000         141.000
 99  4 23 19  3  0.0000000  0  7G24G 5G 8G 7G 4G 9G16
  20541208.428   -12947039.04549 -10057331.22248  20541207.878    20541213.543
       246.000         213.000
  21851684.117    -9810050.50049  -7234395.64346  21851683.664    21851688.658
       234.000         186.000
  21869464.333    -8552763.29549  -6645628.36746  21869463.426    21869468.979
       232.000         184.000
  23387135.823     8526170.83749   6642515.42645  23387134.054    23387142.434
       216.000         156.000
  20484643.841     -616029.78549   -468570.47648  20484643.696    20484647.917
       247.000         213.000
  21460762.234    -1651365.40249   2189548.77147  21460761.974    21460767.017
       242.000         204.000
  24509993.112    -7009794.93949  -5444415.45545  24509993.095    24510000.590
       210.000         144.000
 99  4 23 19  3 30.0000000  0  7G24G 5G 8G 7G 4G 9G16
  20532886.618   -12990770.19649 -10091407.42448  20532886.179    20532891.514
       246.000         213.000
  21837469.048    -9884751.53849  -7292604.21147  21837468.675    21837473.811
       234.000         188.000
  21861537.510    -8594418.92849  -6678087.30246  21861536.403    21861541.998
       231.000         184.000
  23399247.089     8589815.75149   6692108.80645  23399246.089    23399252.746
       216.000         157.000
  20491937.747     -577699.99249   -438703.12348  20491937.647    20491941.877
       246.000         213.000
  21467922.612    -1613737.91349   2218868.84547  21467922.666    21467927.445
       242.000         204.000
  24513089.039    -6993526.32949  -5431738.62245  24513088.242    24513096.853
       209.000         146.000
 99  4 23 19  4  0.0000000  0  7G24G 5G 8G 7G 4G 9G16
  20524683.692   -13033876.95549 -10124997.08148  20524683.227    20524688.495
       246.000         213.000
  21823306.059    -9959178.99249  -7350599.59747  21823305.250    21823310.306
       235.000         189.000
  21853738.604    -8635402.09649  -6710022.23946  21853737.542    21853742.881
       231.000         184.000
  23411382.576     8653587.03049   6741800.64945  23411381.898    23411388.399
       216.000         157.000
  20499348.434     -538756.80549   -408357.79948  20499348.456    20499352.847
       246.000         213.000
  21475198.130    -1575504.98849   2248660.69147  21475197.520    21475203.018
       242.000         204.000
  24516297.457    -6976666.28849  -5418600.92445  24516296.531    24516304.439
       211.000         147.000
 99  4 23 19  4 30.0000000  0  8G10G24G 5G 8G 7G 4G 9G16
  24591187.440    -2134058.02449  -1629495.27845  24591185.377    24591199.484
       205.000         139.000
  20516599.759   -13076358.25349 -10158099.37048  20516599.354    20516604.509
       246.000         213.000
  21809197.579   -10033319.90549  -7408371.71347  21809196.657    21809202.083
       234.000         190.000
  21846071.116    -8675694.76949  -6741419.12946  21846070.110    21846076.117
       231.000         184.000
  23423544.776     8717499.30449   6791602.35945  23423543.728    23423550.823
       214.000         158.000
  20506877.588     -499190.95849   -377527.28948  20506877.594    20506881.865
       247.000         213.000
  21482589.723    -1536661.74149   2278928.10147  21482589.503    21482594.490
       242.000         204.000
  24519619.416    -6959208.77449  -5404997.66845  24519619.161    24519627.493
       212.000         149.000
 99  4 23 19  5  0.0000000  0  8G10G24G 5G 8G 7G 4G 9G16
  24573307.106    -2228018.43449  -1702710.82845  24573305.395    24573318.104
       207.000         140.000
  20508607.551   -13118357.62249 -10190826.13248  20508607.067    20508612.468
       246.000         213.000
  21795117.435   -10107311.19849  -7466027.23847  21795116.125    21795121.767
       233.000         189.000
  21838511.312    -8715421.82849  -6772375.28546  21838510.094    21838515.870
       230.000         183.000
  23435708.664     8781420.73449   6841411.19945  23435707.447    23435715.223
       213.000         159.000
  20514495.874     -459156.81549   -346331.86548  20514495.770    20514499.991
       246.000         213.000
  21490072.572    -1497339.28949   2309568.92547  21490072.742    21490077.605
       242.000         204.000
  24523029.250    -6941290.56449  -5391035.42345  24523028.730    24523036.952
       214.000         151.000
 99  4 23 19  5 30.0000000  0  8G10G24G 5G 8G 7G 4G 9G16
  24555407.479    -2322081.24149  -1776006.16745  24555405.477    24555419.046
       205.000         141.000
  20500711.707   -13159850.42249 -10223158.16348  20500711.013    20500716.554
       246.000         213.000
  21781071.804   -10181121.12049  -7523541.43947  21781070.758    21781076.119
       233.000         189.000
  21831062.751    -8754563.92049  -6802875.60946  21831061.720    21831067.265
       231.000         183.000
  23447877.126     8845366.30349   6891238.83645  23447875.933    23447883.901
       214.000         159.000
  20522209.312     -418622.42149   -314746.63648  20522209.340    20522213.338
       247.000         213.000
  21497652.553    -1457506.89349   2340607.11347  21497652.485    21497657.530
       242.000         204.000
  24526531.699    -6922885.23749  -5376693.61445  24526531.206    24526539.005
       213.000         151.000
 99  4 23 19  6  0.0000000  0  8G10G24G 5G 8G 7G 4G 9G16
  24537503.491    -2416166.23049  -1849318.77945  24537502.141    24537513.899
       207.000         140.000
  20492921.570   -13200787.51749 -10255057.18148  20492921.116    20492926.523
       245.000         213.000
  21767070.718   -10254696.47949  -7580872.86947  21767069.611    21767074.791
       233.000         188.000
  21823735.584    -8793068.21049  -6832878.95846  21823734.163    21823740.128
       231.000         184.000
  23460058.712     8909380.79149   6941120.15545  23460058.240    23460065.123
       212.000         159.000
  20530031.589     -377516.25949   -282715.87648  20530031.525    20530035.728
       247.000         214.000
  21505337.650    -1417121.62349   2372076.10047  21505337.215    21505342.687
       241.000         204.000
  24530140.748    -6903919.24549  -5361914.91145  24530139.448    24530148.857
       215.000         153.000
 99  4 23 19  6 30.0000000  0  8G10G24G 5G 8G 7G 4G 9G16
  24519579.446    -2510355.57849  -1922712.70545  24519576.740    24519588.708
       204.000         138.000
  20485220.627   -13241256.13249 -10286591.15148  20485220.317    20485225.593
       246.000         213.000
  21753096.547   -10328130.98349  -7638094.54047  21753096.135    21753100.678
       234.000         188.000
  21816511.658    -8831030.44949  -6862459.92646  21816511.174    21816516.775
       230.000         184.000
  23472235.481     8973369.23849   6990981.18545  23472234.970    23472241.892
       213.000         160.000
  20537944.589     -335933.30349   -250313.58648  20537944.607    20537948.614
       247.000         213.000
  21513107.845    -1376289.29749   2403893.44747  21513107.625    21513112.881
       242.000         204.000
  24533843.522    -6884461.20449  -5346752.79645  24533843.054    24533851.307
       214.000         153.000
 99  4 23 19  7  0.0000000  0  8G10G24G 5G 8G 7G 4G 9G16
  24501642.673    -2604611.66749  -1996158.69144  24501638.838    24501655.936
       205.000         127.000
  20477618.705   -13281204.66349 -10317720.08947  20477618.540    20477623.284
       246.000         212.000
  21739160.007   -10401368.28049  -7695162.65447  21739159.143    21739163.764
       234.000         189.000
  21809398.173    -8868411.70049  -6891588.41646  21809397.518    21809402.781
       232.000         184.000
  23484414.575     9037370.25649   7040851.73345  23484412.150    23484430.806
       211.000         157.000
  20545956.043     -293832.83649   -217508.40147  20545956.650    20545958.185
       246.000         212.000
  21520972.359    -1334961.32849   2436096.78147  21520972.351    21520976.798
       242.000         204.000
  24537650.587    -6864454.78849  -5331163.52945  24537647.030    24537664.352
       215.000         142.000
 99  4 23 19  7 30.0000000  0  8G10G24G 5G 8G 7G 4G 9G16
  24483692.988    -2698936.12049  -2069658.42044  24483691.343    24483700.915
       207.000         130.000
  20470116.545   -13320628.98949 -10348440.31048  20470116.233    20470121.591
       246.000         213.000
  21725264.008   -10474392.40849  -7752064.64647  21725263.433    21725268.228
       235.000         189.000
  21802394.855    -8905214.91149  -6920266.23446  21802393.647    21802400.030
       231.000         184.000
  23496594.053     9101373.94649   7090724.46845  23496593.077    23496601.750
       215.000         161.000
  20554070.142     -251193.24649   -184282.61248  20554070.263    20554074.481
       246.000         213.000
  21528929.374    -1293147.25549   2468679.13747  21528929.232    21528934.360
       241.000         203.000
  24541565.796    -6843881.12549  -5315132.46645  24541565.048    24541570.741
       215.000         146.000
 99  4 23 19  8  0.0000000  0  8G10G24G 5G 8G 7G 4G 9G16
  24465708.231    -2793446.14749  -2143302.12845  24465707.003    24465719.857
       206.000         137.000
  20462693.896   -13359635.35149 -10378834.85948  20462693.462    20462699.012
       245.000         213.000
  21711388.184   -10547310.82449  -7808884.16647  21711387.569    21711392.293
       236.000         190.000
  21795483.339    -8941534.87549  -6948567.51146  21795482.981    21795488.736
       231.000         184.000
  23508755.472     9165282.35749   7140523.11746  23508755.028    23508762.449
       217.000         163.000
  20562263.884     -208135.27749   -150730.95947  20562264.161    20562267.932
       246.000         212.000
  21536956.792    -1250963.09949   2501549.85047  21536956.625    21536961.459
       242.000         203.000
  24545569.829    -6822840.36449  -5298737.01345  24545570.185    24545577.435
       216.000         150.000
 99  4 23 19  8 30.0000000  0  8G10G24G 5G 8G 7G 4G 9G16
  24447703.349    -2888062.53349  -2217028.82245  24447700.269    24447714.430
       207.000         138.000
  20455369.270   -13398126.60549 -10408828.02748  20455368.963    20455374.485
       245.000         213.000
  21697549.865   -10620031.78549  -7865549.82347  21697549.269    21697554.318
       235.000         191.000
  21788682.134    -8977275.91649  -6976417.67346  21788681.050    21788686.854
       231.000         184.000
  23520916.845     9229189.83049   7190321.04746  23520916.798    23520924.141
       221.000         166.000
  20570550.779     -164587.70849   -116797.80347  20570550.724    20570554.680
       246.000         212.000
  21545074.424    -1208305.04649   2534789.83547  21545074.405    21545079.554
       242.000         203.000
  24549675.698    -6801264.29549  -5281924.50745  24549675.184    24549683.312
       215.000         149.000
 99  4 23 19  9  0.0000000  0  8G10G24G 5G 8G 7G 4G 9G16
  24429682.449    -2982761.99249  -2290820.26145  24429680.314    24429692.538
       205.000         137.000
  20448144.075   -13436095.48549 -10438414.15448  20448143.785    20448149.075
       246.000         213.000
  21683752.340   -10692538.12349  -7922048.24747  21683751.591    21683756.759
       235.000         191.000
  21781995.548    -9012414.07549  -7003798.06846  21781994.899    21782000.532
       231.000         184.000
  23533080.779     9293111.00949   7240129.65046  23533080.697    23533087.963
       222.000         167.000
  20578933.097     -120538.45349    -82473.72347  20578933.071    20578937.088
       245.000         212.000
  21553288.475    -1165140.25649   2568424.68647  21553288.419    21553293.462
       241.000         203.000
  24553881.821    -6779160.74949  -5264700.99345  24553880.972    24553888.434
       214.000         148.000
 99  4 23 19  9 30.0000000  0  8G10G24G 5G 8G 7G 4G 9G16
  24411644.501    -3077550.32949  -2364680.98845  24411642.282    24411655.216
       205.000         135.000
  20441019.096   -13473537.58549 -10467589.79848  20441018.767    20441024.123
       245.000         213.000
  21669993.206   -10764842.78149  -7978389.52547  21669992.077    21669998.189
       234.000         191.000
  21775424.233    -9046946.59949  -7030706.52946  21775423.838    21775429.396
       231.000         184.000
  23545246.926     9357044.04649   7289947.50646  23545246.935    23545253.949
       225.000         168.000
  20587407.774      -76003.63149    -47771.28247  20587407.634    20587411.986
       246.000         212.000
  21561596.015    -1121484.46249   2602442.13647  21561595.968    21561601.292
       242.000         203.000
  24558184.444    -6756550.38449  -5247082.54645  24558184.253    24558191.891
       213.000         148.000
 99  4 23 19 10  0.0000000  0  8G10G24G 5G 8G 7G 4G 9G16
  24393597.255    -3172387.24049  -2438579.54745  24393594.986    24393608.136
       204.000         134.000
  20434002.068   -13510412.32949 -10496323.34948  20434001.525    20434006.836
       245.000         213.000
  21656277.106   -10836920.59449  -8034554.05247  21656276.362    21656281.312
       234.000         191.000
  21768975.098    -9080837.12549  -7057114.74846  21768974.852    21768980.134
       231.000         184.000
  23557423.963     9421033.45149   7339809.28346  23557424.025    23557430.873
       227.000         168.000
  20595976.704      -30973.55249    -12682.92747  20595976.722    20595981.081
       246.000         212.000
  21570004.862    -1077296.07549   2636874.58547  21570004.277    21570009.641
       241.000         203.000
  24562584.322    -6733428.81549  -5229065.76645  24562584.247    24562591.951
       215.000         148.000
 99  4 23 19 10 30.0000000  0  8G10G24G 5G 8G 7G 4G 9G16
  24375538.826    -3267282.96249  -2512523.95945  24375538.156    24375549.174
       205.000         133.000
  20427089.335   -13546738.75149 -10524629.63047  20427088.851    20427094.258
       245.000         212.000
  21642601.479   -10908786.34349  -8090553.32447  21642600.579    21642605.874
       235.000         191.000
  21762642.768    -9114114.09649  -7083044.84946  21762642.306    21762647.759
       232.000         185.000
  23569607.533     9485056.94449   7389697.63146  23569607.740    23569613.930
       225.000         167.000
  20604637.265       14537.78749     22780.43547  20604637.396    20604641.537
       246.000         212.000
  21578510.842    -1032597.01349   2671704.97647  21578510.738    21578515.588
       241.000         202.000
  24567075.941    -6709825.42349  -5210673.53745  24567076.127    24567083.017
       214.000         147.000
 99  4 23 19 11  0.0000000  0  8G10G24G 5G 8G 7G 4G 9G16
  24357472.417    -3362221.22549  -2586501.53245  24357470.624    24357481.723
       203.000         133.000
  20420280.187   -13582521.01849 -10552511.89447  20420279.725    20420285.243
       245.000         212.000
  21628969.135   -10980425.23049  -8146375.82047  21628968.477    21628973.261
       236.000         191.000
  21756428.968    -9146767.83649  -7108489.32846  21756428.298    21756433.676
       232.000         185.000
  23581801.581     9549136.34149   7439629.52146  23581800.929    23581808.783
       225.000         164.000
  20613394.124       60555.06249     58638.03047  20613394.154    20613398.233
       246.000         212.000
  21587112.448     -987395.58549   2706926.82147  21587112.143    21587116.941
       241.000         202.000
  24571666.210    -6685703.73049  -5191877.44245  24571666.040    24571674.701
       212.000         146.000
 99  4 23 19 11 30.0000000  0  8G10G24G 5G 8G 7G 4G 9G16
  24339390.561    -3457241.13949  -2660542.73545  24339388.672    24339401.838
       208.000         134.000
  20413565.405   -13617807.29549 -10580007.67548  20413565.213    20413570.512
       245.000         213.000
  21615374.842   -11051864.34649  -8202042.64447  21615374.478    21615378.745
       237.000         192.000
  21750326.587    -9178836.00249  -7133477.52246  21750326.083    21750331.727
       232.000         185.000
  23594001.548     9613247.08549   7489585.83845  23594000.893    23594007.373
       222.000         162.000
  20622240.271      107041.81049     94861.44647  20622240.280    20622244.203
       246.000         212.000
  21595799.871     -941742.77249   2742500.37847  21595799.709    21595804.742
       241.000         202.000
  24576350.634    -6661086.49149  -5172695.19845  24576351.826    24576358.272
       210.000         145.000
 99  4 23 19 12  0.0000000  0  8G10G24G 5G 8G 7G 4G 9G16
  24321294.703    -3552333.69549  -2734640.52745  24321291.970    24321304.840
       203.000         135.000
  20406940.689   -13652620.35149 -10607134.71848  20406940.309    20406945.707
       245.000         213.000
  21601819.622   -11123097.95349  -8257549.33347  21601819.182    21601823.471
       237.000         192.000
  21744332.702    -9210334.12249  -7158021.52946  21744332.032    21744337.342
       232.000         185.000
  23606205.640     9677380.43949   7539559.79045  23606205.384    23606212.821
       222.000         159.000
  20631175.259      153995.60049    131448.79147  20631175.235    20631179.246
       246.000         212.000
  21604571.836     -895646.23549   2778419.70547  21604571.307    21604576.809
       240.000         201.000
  24581128.919    -6635976.00349  -5153128.59945  24581129.048    24581138.590
       211.000         143.000
 99  4 23 19 12 30.0000000  0  8G10G24G 5G 8G 7G 4G 9G16
  24303180.109    -3647525.00449  -2808815.31445  24303178.899    24303191.276
       207.000         137.000
  20400400.389   -13686989.87649 -10633916.14848  20400399.827    20400405.148
       245.000         213.000
  21588300.637   -11194140.94049  -8312907.49647  21588299.861    21588304.073
       236.000         192.000
  21738443.207    -9241283.53649  -7182137.96646  21738442.909    21738448.422
       232.000         185.000
  23618409.541     9741512.36249   7589532.62845  23618408.466    23618416.048
       219.000         155.000
  20640196.902      201404.72849    168390.94447  20640196.859    20640201.072
       245.000         211.000
  21613421.520     -849140.88849   2814657.58047  21613421.030    21613425.849
       240.000         200.000
  24586001.220    -6610373.03449  -5133178.27345  24585998.757    24586008.765
       208.000         142.000
 99  4 23 19 13  0.0000000  0  7G10G24G 5G 8G 7G 4G 9
  24285057.455    -3742758.95849  -2883023.30545  24285055.576    24285067.959
       208.000         139.000
  20393960.024   -13720834.14149 -10660288.28148  20393959.506    20393964.812
       246.000         213.000
  21574830.191   -11264928.39449  -8368066.53047  21574829.017    21574834.293
       236.000         192.000
  21732672.406    -9271609.63749  -7205768.70146  21732671.545    21732676.911
       230.000         185.000
  23630623.625     9805697.61349   7639547.02445  23630623.420    23630629.680
       217.000         152.000
  20649317.587      249334.18649    205738.55147  20649317.655    20649321.787
       245.000         211.000
  21622361.976     -802158.10949   2851267.48547  21622361.501    21622366.773
       239.000         200.000
 99  4 23 19 13 30.0000000  0  7G10G24G 5G 8G 7G 4G 9
  24266930.299    -3838017.47049  -2957250.46345  24266928.805    24266940.180
       210.000         141.000
  20387627.475   -13754112.00249 -10686219.06148  20387627.169    20387632.356
       245.000         213.000
  21561411.058   -11335445.82649  -8423015.16447  21561409.887    21561415.377
       235.000         192.000
  21727023.980    -9301291.74749  -7228897.63446  21727023.215    21727029.090
       232.000         185.000
  23642845.859     9869926.07249   7689595.10245  23642845.689    23642852.432
       214.000         148.000
  20658537.087      297782.90949    243490.77647  20658536.932    20658541.364
       246.000         211.000
  21631397.895     -754674.03249   2888268.00747  21631397.875    21631402.808
       240.000         200.000
 99  4 23 19 14  0.0000000  0  7G10G24G 5G 8G 7G 4G 9
  24248782.519    -3933384.23649  -3031561.95645  24248781.138    24248793.552
       209.000         142.000
  20381389.395   -13786893.40849 -10711762.98848  20381388.998    20381394.375
       245.000         213.000
  21548024.575   -11405791.90549  -8477830.27947  21548024.093    21548029.145
       235.000         192.000
  21721481.999    -9330414.57749  -7251590.75846  21721481.371    21721486.905
       231.000         185.000
  23655055.972     9934089.71949   7739592.67945  23655055.606    23655064.273
       212.000         146.000
  20667837.737      346658.06049    281575.28847  20667837.604    20667842.318
       245.000         211.000
  21640511.876     -706780.21949   2925587.81347  21640511.775    21640516.825
       240.000         199.000
 99  4 23 19 14 30.0000000  0  7G10G24G 5G 8G 7G 4G 9
  24230627.155    -4028790.17349  -3105903.99045  24230625.767    24230638.298
       209.000         143.000
  20375263.285   -13819086.30149 -10736848.33848  20375262.889    20375268.362
       245.000         213.000
  21534686.425   -11475884.61149  -8532447.96747  21534685.457    21534691.003
       236.000         193.000
  21716063.726    -9358887.74549  -7273777.65446  21716062.982    21716069.515
       232.000         185.000
  23667268.220     9998265.02049   7789599.33845  23667265.943    23667274.944
       209.000         144.000
  20677235.095      396041.41849    320055.80147  20677235.078    20677239.363
       246.000         210.000
  21649718.014     -658401.61749   2963285.36547  21649717.802    21649723.329
       239.000         199.000
 99  4 23 19 15  0.0000000  0  8G30G10G24G 5G 8G 7G 4G 9
  24564128.522    -7676760.45649  -5622702.65945  24564128.568    24564133.568
       213.000         144.000
  24212452.466    -4124297.08449  -3180324.71345  24212449.680    24212463.149
       210.000         144.000
  20369235.325   -13850763.08849 -10761531.53048  20369234.782    20369240.315
       246.000         213.000
  21521384.955   -11545784.33149  -8586915.27747  21521384.176    21521389.367
       236.000         193.000
  21710755.805    -9386780.88349  -7295512.57546  21710755.637    21710761.007
       232.000         186.000
  23679468.032    10062376.09949   7839555.94345  23679467.466    23679475.510
       205.000         143.000
  20686713.418      445850.13949    358867.76747  20686713.436    20686717.739
       245.000         210.000
  21659003.739     -609604.92849   3001308.70247  21659003.484    21659008.976
       240.000         199.000
 99  4 23 19 15 30.0000000  0  8G30G10G24G 5G 8G 7G 4G 9
  24545124.233    -7776628.69549  -5700521.98445  24545124.094    24545129.972
       211.000         142.000
  24194268.398    -4219853.99549  -3254784.42645  24194267.087    24194278.525
       210.000         144.000
  20363306.491   -13881919.27749 -10785809.06448  20363306.057    20363311.372
       245.000         213.000
  21508126.612   -11615457.27249  -8641205.87047  21508125.704    21508130.774
       237.000         194.000
  21705562.715    -9414071.18049  -7316777.74546  21705561.912    21705567.682
       233.000         186.000
  23691664.876    10126471.18949   7889500.07945  23691664.492    23691670.654
       205.000         142.000
  20696276.407      496103.95549    398026.55847  20696276.576    20696280.935
       245.000         210.000
  21668372.997     -560369.48649   3039673.91747  21668372.688    21668377.849
       239.000         199.000
 99  4 23 19 16  0.0000000  0  8G30G10G24G 5G 8G 7G 4G 9
  24526123.208    -7876478.81549  -5778327.16745  24526122.529    24526128.872
       206.000         139.000
  24176088.332    -4315389.94549  -3329227.78745  24176086.953    24176099.252
       209.000         144.000
  20357486.032   -13912506.00649 -10809642.85548  20357485.676    20357490.915
       245.000         213.000
  21494925.743   -11684828.04949  -8695261.01147  21494924.943    21494930.081
       238.000         195.000
  21700496.090    -9440696.99349  -7337525.14646  21700495.210    21700501.169
       233.000         187.000
  23703873.976    10190630.33549   7939494.13645  23703873.840    23703881.940
       205.000         143.000
  20705938.604      546879.07949    437591.57547  20705938.617    20705942.877
       245.000         210.000
  21677836.149     -510640.32149   3078423.86147  21677836.026    21677841.305
       239.000         199.000
 99  4 23 19 16 30.0000000  0  8G30G10G24G 5G 8G 7G 4G 9
  24507122.500    -7976326.98049  -5856130.84545  24507122.102    24507127.949
       207.000         138.000
  24157908.940    -4410922.92349  -3403668.82145  24157907.239    24157919.537
       209.000         142.000
  20351768.074   -13942554.18349 -10833057.00248  20351767.764    20351773.063
       245.000         213.000
  21481779.308   -11753912.95449  -8749093.39247  21481778.894    21481783.516
       239.000         195.000
  21695549.241    -9466693.17849  -7357781.92346  21695548.634    21695553.538
       233.000         186.000
  23716093.528    10254844.72749   7989531.25145  23716093.590    23716100.896
       210.000         145.000
  20715695.790      598153.05449    477545.29847  20715696.022    20715700.186
       245.000         210.000
  21687389.768     -460435.97049   3117544.07247  21687389.782    21687394.859
       240.000         199.000
 99  4 23 19 17  0.0000000  0  8G30G10G24G 5G 8G 7G 4G 9
  24488129.760    -8076131.30549  -5933900.37245  24488128.421    24488136.652
       209.000         137.000
  24139738.296    -4506409.25449  -3478073.52145  24139735.949    24139747.663
       209.000         141.000
  20346156.810   -13972041.53549 -10856034.14048  20346156.279    20346161.464
       245.000         213.000
  21468690.773   -11822693.97049  -8802688.97147  21468690.375    21468694.559
       238.000         195.000
  21690726.185    -9492038.49549  -7377531.53446  21690725.393    21690730.617
       232.000         185.000
  23728331.031    10319152.55649   8039641.17945  23728330.848    23728338.036
       210.000         148.000
  20725553.367      649954.99749    517910.42947  20725553.378    20725557.576
       245.000         210.000
  21697042.185     -409712.67349   3157068.66647  21697042.110    21697047.528
       240.000         199.000
 99  4 23 19 17 30.0000000  0  8G30G10G24G 5G 8G 7G 4G 9
  24469139.567    -8175925.64549  -6011662.12345  24469139.477    24469147.332
       210.000         141.000
  24121564.889    -4601911.54349  -3552490.67945  24121563.429    24121575.630
       210.000         141.000
  20340644.558   -14001008.55949 -10878605.83148  20340644.205    20340649.304
       245.000         213.000
  21455648.223   -11891233.07149  -8856096.04647  21455647.424    21455652.386
       239.000         195.000
  21686016.189    -9516789.61949  -7396818.13346  21686015.534    21686020.804
       232.000         185.000
  23740576.033    10383500.46249   8089782.32445  23740575.661    23740582.247
       212.000         151.000
  20735502.719      702239.05049    558651.22547  20735502.410    20735507.115
       245.000         210.000
  21706782.218     -358529.13749   3196951.88447  21706782.037    21706787.430
       240.000         200.000
 99  4 23 19 18  0.0000000  0  8G30G10G24G 5G 8G 7G 4G 9
  24450144.152    -8275746.05149  -6089444.15545  24450143.818    24450152.027
       215.000         144.000
  24103375.921    -4697494.44149  -3626970.63845  24103375.141    24103385.920
       211.000         142.000
  20335222.883   -14029499.61549 -10900806.64348  20335222.428    20335227.567
       245.000         213.000
  21442642.213   -11959580.27649  -8909353.59047  21442641.588    21442646.400
       239.000         195.000
  21681409.651    -9540996.97749  -7415681.01946  21681408.563    21681414.226
       232.000         185.000
  23752814.925    10447815.74549   8139898.04345  23752814.808    23752822.169
       215.000         154.000
  20745531.187      754939.23449    599716.27847  20745530.978    20745535.443
       244.000         210.000
  21716599.878     -306937.25149   3237153.29047  21716599.791    21716605.138
       240.000         200.000
 99  4 23 19 18 30.0000000  0  8G30G10G24G 5G 8G 7G 4G 9
  24431145.597    -8375584.85049  -6167240.53345  24431145.130    24431153.465
       217.000         146.000
  24085172.104    -4793154.93849  -3701511.06745  24085170.453    24085182.322
       211.000         143.000
  20329893.175   -14057507.22549 -10922630.73748  20329892.538    20329898.148
       245.000         213.000
  21429672.878   -12027734.40949  -8962460.69047  21429672.476    21429676.597
       238.000         195.000
  21676907.137    -9564657.72049  -7434117.97246  21676906.220    21676911.721
       232.000         184.000
  23765048.692    10512104.20649   8189992.86845  23765048.529    23765055.496
       217.000         157.000
  20755637.110      808046.23949    641098.34147  20755637.071    20755641.578
       244.000         210.000
  21726497.892     -254923.31349   3277683.57047  21726498.038    21726502.905
       240.000         200.000
 99  4 23 19 19  0.0000000  0  8G30G10G24G 5G 8G 7G 4G 9
  24412149.722    -8475409.54949  -6245025.92945  24412149.860    24412154.596
       217.000         148.000
  24066958.058    -4888869.81849  -3776093.88145  24066956.503    24066967.465
       209.000         144.000
  20324660.338   -14085005.70849 -10944058.11048  20324659.751    20324665.289
       245.000         213.000
  21416746.163   -12095664.83849  -9015393.48147  21416745.456    21416750.316
       239.000         195.000
  21672516.174    -9587732.30249  -7452098.17346  21672515.310    21672521.102
       232.000         184.000
  23777281.532    10576387.33249   8240083.53545  23777281.531    23777289.101
       218.000         159.000
  20765823.346      861575.21549    682809.21047  20765823.240    20765827.574
       244.000         209.000
  21736481.175     -202461.46549   3318562.87747  21736481.637    21736485.770
       241.000         200.000
 99  4 23 19 19 30.0000000  0  8G30G10G24G 5G 8G 7G 4G 9
  24393160.953    -8575195.62849  -6322781.24245  24393159.687    24393165.668
       215.000         146.000
  24048738.103    -4984615.15849  -3850700.43045  24048736.976    24048748.829
       210.000         145.000
  20319527.532   -14111978.81049 -10965076.09848  20319527.184    20319532.364
       245.000         213.000
  21403866.762   -12163346.58849  -9068132.49447  21403866.342    21403870.970
       239.000         195.000
  21668242.808    -9610189.14749  -7469597.03246  21668242.698    21668247.365
       232.000         185.000
  23789517.605    10640687.26449   8290187.27145  23789517.260    23789524.652
       221.000         160.000
  20776091.741      915535.68249    724856.30047  20776091.821    20776096.065
       244.000         209.000
  21746550.284     -149548.37049   3359793.80647  21746549.897    21746555.384
       239.000         200.000
 99  4 23 19 20  0.0000000  0  8G30G10G24G 5G 8G 7G 4G 9
  24374181.610    -8674929.86549  -6400496.16745  24374179.946    24374187.253
       211.000         143.000
  24030518.609    -5080358.10249  -3925305.08745  24030516.280    24030528.114
       210.000         144.000
  20314494.543   -14138427.28849 -10985685.29148  20314494.358    20314499.454
       245.000         213.000
  21391035.906   -12230773.08749  -9120672.61447  21391035.075    21391039.771
       239.000         196.000
  21664089.992    -9632012.95949  -7486602.61446  21664089.643    21664094.648
       232.000         185.000
  23801759.874    10705020.26549   8340316.79045  23801759.225    23801767.328
       221.000         160.000
  20786444.033      969937.27349    767247.12347  20786443.954    20786448.469
       244.000         209.000
  21756705.910      -96180.43949   3401379.13947  21756705.576    21756711.266
       240.000         200.000
 99  4 23 19 20 30.0000000  0  8G30G10G24G 5G 8G 7G 4G 9
  24355199.880    -8774677.88749  -6478221.85945  24355200.595    24355205.417
       209.000         139.000
  24012291.793    -5176139.85149  -3999939.99945  24012289.888    24012300.794
       210.000         143.000
  20309553.980   -14164390.37449 -11005916.25448  20309553.778    20309558.853
       246.000         213.000
  21378243.161   -12297999.25949  -9173056.63147  21378242.301    21378246.842
       239.000         196.000
  21660049.793    -9653244.44649  -7503146.64446  21660049.280    21660054.409
       233.000         185.000
  23814004.036    10769363.21449   8390454.04945  23814003.319    23814010.590
       219.000         159.000
  20796874.891     1024751.77649    809959.70247  20796874.843    20796878.948
       244.000         208.000
  21766939.388      -42403.38149   3443283.27047  21766939.112    21766944.514
       240.000         199.000
 99  4 23 19 21  0.0000000  0  8G30G10G24G 5G 8G 7G 4G 9
  24336211.518    -8874462.94849  -6555976.41745  24336211.921    24336218.369
       210.000         138.000
  23994055.587    -5271971.35049  -4074613.65245  23994054.921    23994064.247
       209.000         141.000
  20304702.728   -14189884.20649 -11025781.56848  20304702.207    20304707.450
       245.000         213.000
  21365484.939   -12365044.24149  -9225299.46647  21365484.213    21365488.722
       239.000         197.000
  21656120.657    -9673892.27949  -7519235.88946  21656119.960    21656125.472
       232.000         186.000
  23826247.771    10833703.56649   8440589.28345  23826246.723    23826254.569
       219.000         158.000
  20807384.150     1079978.09249    852993.16147  20807384.248    20807388.611
       244.000         208.000
  21777245.807       11756.85049   3485485.97447  21777245.617    21777251.241
       240.000         199.000
 99  4 23 19 21 30.0000000  0  8G30G10G24G 5G 8G 7G 4G 9
  24317214.342    -8974294.22049  -6633766.92945  24317215.182    24317219.539
       209.000         139.000
  23975813.946    -5367831.58249  -4149309.72845  23975812.191    23975822.929
       209.000         141.000
  20299943.346   -14214894.73549 -11045270.27948  20299942.912    20299948.105
       245.000         214.000
  21352762.340   -12431901.93449  -9277396.35847  21352761.681    21352766.598
       239.000         198.000
  21652303.219    -9693952.90449  -7534867.56146  21652302.223    21652308.050
       231.000         186.000
  23838491.021    10898041.43449   8490722.59445  23838489.947    23838498.051
       216.000         157.000
  20817974.023     1135628.04149    896356.73347  20817974.116    20817978.655
       244.000         209.000
  21787623.627       66292.46249   3527981.18847  21787623.292    21787628.938
       239.000         199.000
 99  4 23 19 22  0.0000000  0  8G30G10G24G 5G 8G 7G 4G 9
  24298217.766    -9074121.08049  -6711554.02545  24298217.574    24298224.500
       208.000         141.000
  23957578.756    -5463657.15849  -4223978.77545  23957577.015    23957588.743
       210.000         141.000
  20295291.000   -14239342.89849 -11064320.78648  20295290.703    20295296.001
       245.000         213.000
  21340089.728   -12498496.73049  -9329288.39147  21340089.124    21340093.991
       240.000         198.000
  21648608.934    -9713365.84149  -7549994.53746  21648608.300    21648613.787
       232.000         185.000
  23850744.344    10962433.20149   8540897.89445  23850743.394    23850752.345
       214.000         155.000
  20828657.639     1191770.54149    940104.10747  20828657.730    20828662.120
       245.000         208.000
  21798087.199      121279.12649   3570827.87147  21798086.918    21798092.521
       239.000         199.000
 99  4 23 19 22 30.0000000  0  8G30G10G24G 5G 8G 7G 4G 9
  24279216.420    -9173973.07749  -6789360.69845  24279217.358    24279224.146
       209.000         143.000
  23939344.635    -5559477.12649  -4298643.45545  23939343.487    23939353.602
       209.000         141.000
  20290741.679   -14263249.53549 -11082949.32048  20290741.112    20290746.636
       245.000         213.000
  21327465.668   -12564836.39449  -9380981.62347  21327464.713    21327469.757
       238.000         198.000
  21645033.887    -9732152.62849  -7564633.60446  21645033.035    21645038.759
       232.000         186.000
  23863004.575    11026860.88949   8591101.20445  23863002.927    23863012.931
       210.000         152.000
  20839430.292     1248381.19249    984216.27847  20839430.113    20839434.597
       245.000         208.000
  21808633.678      176700.96549   3614013.64747  21808633.437    21808639.044
       239.000         198.000
 99  4 23 19 23  0.0000000  0  8G30G10G24G 5G 8G 7G 4G 9
  24260215.400    -9273823.52749  -6867166.18045  24260214.983    24260222.985
       211.000         144.000
  23921115.576    -5655269.63949  -4373286.73945  23921113.798    23921124.695
       211.000         140.000
  20286296.113   -14286610.91849 -11101152.98248  20286295.400    20286300.798
       245.000         213.000
  21314893.786   -12630901.61749  -9432461.00947  21314893.007    21314898.113
       239.000         198.000
  21641578.318    -9750311.85049  -7578783.66746  21641577.418    21641583.611
       233.000         186.000
  23875268.403    11091308.59249   8641320.09045  23875268.576    23875276.155
       208.000         149.000
  20850290.698     1305452.79349   1028687.62747  20850290.784    20850294.976
       245.000         208.000
  21819261.271      232548.84449   3657531.40047  21819260.990    21819266.842
       239.000         198.000
 99  4 23 19 23 30.0000000  0  8G30G10G24G 5G 8G 7G 4G 9
  24241211.434    -9373690.58249  -6944984.61145  24241211.259    24241217.954
       212.000         146.000
  23902887.890    -5751055.77249  -4447925.06645  23902887.645    23902896.811
       211.000         141.000
  20281949.808   -14309450.70349 -11118950.20648  20281949.459    20281954.592
       245.000         213.000
  21302369.804   -12696715.63849  -9483744.64947  21302369.057    21302373.944
       238.000         198.000
  21638234.607    -9767883.13349  -7592475.59046  21638233.982    21638239.897
       234.000         187.000
  23887530.177    11155743.86049   8691529.31045  23887529.008    23887537.801
       208.000         148.000
  20861230.542     1362941.89349   1073484.30247  20861230.421    20861234.657
       245.000         208.000
  21829963.929      288791.34949   3701356.65647  21829963.611    21829969.453
       239.000         198.000
 99  4 23 19 24  0.0000000  0  8G30G10G24G 5G 8G 7G 4G 9
  24222231.517    -9473429.72249  -7022703.37845  24222232.357    24222238.971
       212.000         147.000
  23884683.189    -5846721.02549  -4522469.18845  23884681.939    23884692.395
       210.000         143.000
  20277724.578   -14331654.44549 -11136251.81648  20277724.334    20277729.596
       245.000         213.000
  21289918.441   -12762147.79049  -9534730.72847  21289917.567    21289922.897
       238.000         198.000
  21635024.881    -9784750.75449  -7605619.20747  21635024.194    21635030.107
       233.000         188.000
  23899815.607    11220303.74549   8741835.61545  23899814.563    23899822.808
       210.000         147.000
  20872271.604     1420962.98049   1118695.51347  20872271.597    20872275.964
       245.000         208.000
  21840767.827      345566.07249   3745596.62347  21840767.142    21840773.409
       238.000         197.000
 99  4 23 19 24 30.0000000  0  8G30G10G24G 5G 8G 7G 4G 9
  24203232.778    -9573268.87749  -7100500.06045  24203232.980    24203239.855
       212.000         147.000
  23866457.189    -5942498.54649  -4597100.81545  23866456.206    23866466.826
       211.000         145.000
  20273574.876   -14353461.32949 -11153244.18548  20273574.576    20273579.988
       245.000         213.000
  21277495.441   -12827430.56749  -9585600.41947  21277494.587    21277499.715
       239.000         198.000
  21631904.164    -9801150.14649  -7618397.96747  21631903.025    21631909.039
       233.000         188.000
  23912081.097    11284758.46449   8792059.98445  23912080.841    23912088.541
       211.000         146.000
  20883367.346     1479271.25849   1164130.50747  20883367.246    20883371.766
       245.000         208.000
  21851626.213      402627.48449   3790059.97747  21851626.074    21851631.338
       238.000         197.000
 99  4 23 19 25  0.0000000  0  8G30G10G24G 5G 8G 7G 4G 9
  24184240.714    -9673073.94449  -7178270.17745  24184241.848    24184245.782
       214.000         148.000
  23848234.926    -6038255.77949  -4671716.61045  23848233.681    23848244.299
       212.000         148.000
  20269526.767   -14374734.38049 -11169820.57948  20269526.389    20269531.665
       245.000         213.000
  21265126.799   -12892428.38349  -9636248.05747  21265126.439    21265130.725
       239.000         198.000
  21628898.820    -9816943.15249  -7630704.22847  21628897.846    21628904.030
       234.000         188.000
  23924351.294    11349238.22149   8842303.87145  23924350.926    23924357.577
       213.000         146.000
  20894543.536     1538002.67149   1209895.21847  20894543.598    20894547.860
       245.000         208.000
  21862565.084      460111.46549   3834852.62347  21862564.542    21862570.603
       238.000         197.000
 99  4 23 19 25 30.0000000  0  8G30G10G24G 5G 8G 7G 4G 9
  24165259.509    -9772821.72549  -7255995.64045  24165259.619    24165264.963
       213.000         149.000
  23830018.903    -6133981.76849  -4746308.06945  23830017.482    23830028.072
       213.000         150.000
  20265585.543   -14395445.84149 -11185959.37148  20265585.407    20265590.309
       245.000         213.000
  21252819.071   -12957106.32049  -9686646.44247  21252819.060    21252823.139
       240.000         199.000
  21626016.560    -9832089.74149  -7642506.78246  21626015.311    21626021.922
       233.000         187.000
  23936633.527    11413782.03549   8892597.66445  23936632.794    23936641.611
       212.000         146.000
  20905805.394     1597183.73449   1256010.30147  20905805.572    20905809.851
       245.000         208.000
  21873593.252      518064.62849   3880010.84847  21873592.917    21873598.606
       237.000         197.000
 99  4 23 19 26  0.0000000  0  8G30G10G24G 5G 8G 7G 4G 9
  24146281.503    -9872551.06449  -7333706.74145  24146280.928    24146287.229
       215.000         151.000
  23811802.295    -6229709.60649  -4820900.96545  23811800.294    23811811.472
       215.000         152.000
  20261743.736   -14415634.80049 -11201691.01548  20261743.147    20261748.413
       245.000         213.000
  21240568.916   -13021482.03549  -9736809.32947  21240568.460    21240572.658
       241.000         200.000
  21623254.839    -9846602.15449  -7653815.17446  21623254.133    21623260.325
       233.000         187.000
  23948922.298    11478359.80649   8942917.90945  23948921.107    23948929.521
       215.000         147.000
  20917146.418     1656780.91749   1302449.63747  20917146.421    20917150.836
       244.000         208.000
  21884703.012      576446.31249   3925502.99947  21884703.465    21884708.690
       239.000         197.000
 99  4 23 19 26 30.0000000  0  8G30G10G24G 5G 8G 7G 4G 9
  24127309.042    -9972251.76249  -7411395.54645  24127308.862    24127315.310
       216.000         152.000
  23793590.028    -6325414.50949  -4895476.01345  23793588.531    23793598.764
       213.000         153.000
  20258005.980   -14435276.67249 -11216996.35748  20258005.395    20258010.723
       245.000         213.000
  21228379.662   -13085537.60049  -9786722.74547  21228379.049    21228383.270
       240.000         200.000
  21620619.479    -9860450.85849  -7664606.38846  21620618.717    21620625.264
       232.000         187.000
  23961217.683    11542971.43349   8993264.54345  23961216.825    23961224.392
       215.000         147.000
  20928571.529     1716820.16149   1349233.43347  20928571.631    20928575.938
       244.000         208.000
  21895893.934      635254.04549   3971327.13147  21895894.208    21895899.212
       239.000         197.000
 99  4 23 19 27  0.0000000  0  8G30G10G24G 5G 8G 7G 4G 9
  24108345.390   -10071906.22449  -7489048.32945  24108344.800    24108351.494
       215.000         151.000
  23775385.743    -6421077.66949  -4970018.54045  23775384.204    23775394.915
       215.000         154.000
  20254372.598   -14454369.93649 -11231874.21748  20254372.210    20254377.605
       245.000         213.000
  21216253.346   -13149261.58849  -9836377.79447  21216252.504    21216257.087
       240.000         200.000
  21618111.797    -9873629.00949  -7674875.09346  21618111.463    21618117.215
       234.000         187.000
  23973519.852    11607619.53849   9043639.59845  23973518.778    23973526.459
       215.000         149.000
  20940081.923     1777307.51049   1396366.39747  20940082.073    20940086.527
       244.000         208.000
  21907167.138      694494.96649   4017488.81347  21907166.854    21907172.765
       238.000         196.000
 99  4 23 19 27 30.0000000  0  8G30G10G24G 5G 8G 7G 4G 9
  24089377.653   -10171581.70049  -7566717.47445  24089377.081    24089384.099
       214.000         151.000
  23757180.529    -6516745.95649  -5044565.07245  23757179.547    23757189.773
       217.000         156.000
  20250829.908   -14472986.73949 -11246380.80648  20250829.443    20250834.850
       245.000         213.000
  21204175.782   -13212729.06349  -9885832.95947  21204175.035    21204179.439
       239.000         200.000
  21615717.688    -9886210.53449  -7684678.89846  21615716.811    21615723.121
       234.000         187.000
  23985813.889    11672225.67849   9093981.95745  23985813.057    23985820.875
       217.000         151.000
  20951662.477     1838163.67249   1443786.75447  20951662.576    20951666.938
       243.000         207.000
  21918508.419      754093.61349   4063929.24047  21918508.272    21918513.604
       237.000         196.000
 99  4 23 19 28  0.0000000  0  8G30G10G24G 5G 8G 7G 4G 9
  24070414.037   -10271236.21849  -7644370.28445  24070415.268    24070419.320
       213.000         149.000
  23738987.210    -6612352.14949  -5119063.22845  23738986.522    23738996.031
       217.000         156.000
  20247387.453   -14491076.87549 -11260477.00948  20247387.076    20247392.313
       245.000         213.000
  21192155.039   -13275898.01149  -9935055.51247  21192154.257    21192158.910
       240.000         200.000
  21613443.555    -9898161.82949  -7693991.61946  21613442.705    21613448.439
       234.000         187.000
  23998107.850    11736829.77749   9144322.73145  23998107.816    23998115.100
       217.000         153.000
  20963322.444     1899437.02649   1491532.18947  20963322.434    20963326.919
       243.000         207.000
  21929924.143      814083.44949   4110674.49147  21929923.590    21929929.310
       238.000         195.000
 99  4 23 19 28 30.0000000  0  8G30G10G24G 5G 8G 7G 4G 9
  24051465.458   -10370811.81049  -7721961.58145  24051466.316    24051470.896
       214.000         148.000
  23720814.479    -6707850.22449  -5193477.14645  23720813.313    23720823.460
       215.000         156.000
  20244055.423   -14508587.04149 -11274121.28348  20244054.972    20244060.257
       245.000         213.000
  21180198.824   -13338728.64149  -9984014.44347  21180198.174    21180202.924
       239.000         200.000
  21611296.063    -9909447.30449  -7702785.51746  21611295.801    21611301.343
       235.000         187.000
  24010409.538    11801474.50249   9194695.16145  24010408.840    24010416.988
       216.000         155.000
  20975070.657     1961174.16049   1539639.01947  20975070.641    20975074.996
       243.000         207.000
  21941424.579      874518.78349   4157766.88047  21941424.288    21941429.439
       238.000         195.000
 99  4 23 19 29  0.0000000  0  8G30G10G24G 5G 8G 7G 4G 9
  24032512.692   -10470409.11149  -7799569.78145  24032513.767    24032517.502
       214.000         147.000
  23702640.910    -6803352.20749  -5267894.10145  23702639.324    23702650.098
       215.000         155.000
  20240812.898   -14525626.37249 -11287398.67248  20240812.387    20240817.846
       246.000         213.000
  21168284.319   -13401339.97649 -10032802.48847  21168283.672    21168288.150
       239.000         199.000
  21609253.823    -9920180.08649  -7711148.73746  21609253.075    21609258.734
       234.000         187.000
  24022701.372    11866068.60949   9245028.13745  24022700.810    24022709.030
       216.000         156.000
  20986884.616     2023257.08149   1588015.28647  20986884.592    20986888.933
       244.000         207.000
  21952990.541      935298.05049   4205127.26847  21952990.221    21952996.058
       238.000         195.000
 99  4 23 19 29 30.0000000  0  8G30G10G24G 5G 8G 7G 4G 9
  24013567.811   -10569964.35649  -7877145.19645  24013568.472    24013572.897
       213.000         147.000
  23684475.523    -6898810.36449  -5342276.92345  23684474.030    23684483.915
       212.000         151.000
  20237673.273   -14542125.08549 -11300254.80048  20237672.991    20237678.196
       246.000         213.000
  21156422.399   -13463674.65049 -10081374.95647  21156421.604    21156426.295
       239.000         200.000
  21607326.680    -9930307.10249  -7719039.94646  21607326.099    21607331.598
       234.000         187.000
  24034996.538    11930679.27049   9295374.00245  24034995.839    24035005.036
       216.000         156.000
  20998774.739     2085740.08049   1636703.30847  20998774.691    20998779.028
       244.000         207.000
  21964632.321      996475.71949   4252798.09947  21964632.331    21964637.893
       238.000         195.000
 99  4 23 19 30  0.0000000  0  8G30G10G24G 5G 8G 7G 4G 9
  23994641.382   -10669422.85649  -7954645.23645  23994641.166    23994648.284
       212.000         148.000
  23666321.505    -6994209.51649  -5416613.77145  23666319.558    23666328.962
       211.000         150.000
  20234644.889   -14558039.26149 -11312655.44648  20234644.517    20234649.713
       246.000         213.000
  21144621.395   -13525688.96849 -10129697.79247  21144620.724    21144625.259
       240.000         200.000
  21605520.863    -9939796.97749  -7726434.66946  21605520.629    21605526.088
       235.000         187.000
  24047305.064    11995360.37349   9345774.76745  24047303.878    24047312.314
       212.000         155.000
  21010745.600     2148647.01849   1685721.66847  21010745.703    21010749.904
       244.000         207.000
  21976355.084     1058078.64049   4300800.29947  21976354.696    21976360.694
       237.000         195.000
 99  4 23 19 30 30.0000000  0  8G30G10G24G 5G 8G 7G 4G 9
  23975728.234   -10768810.60549  -8032090.18145  23975728.339    23975736.353
       211.000         148.000
  23648171.050    -7089589.65749  -5490935.80945  23648169.193    23648179.758
       210.000         149.000
  20231718.627   -14573416.79249 -11324637.92548  20231718.273    20231723.480
       246.000         213.000
  21132873.555   -13587424.46549 -10177803.36147  21132872.757    21132877.355
       240.000         201.000
  21603830.743    -9948678.86149  -7733355.64046  21603829.980    21603835.553
       235.000         187.000
  24059621.413    12060083.36549   9396208.16745  24059620.461    24059629.814
       209.000         152.000
  21022789.138     2211936.06149   1735037.77447  21022789.176    21022793.717
       244.000         207.000
  21988151.625     1120069.55049   4349104.82647  21988151.380    21988157.095
       237.000         195.000
 99  4 23 19 31  0.0000000  0  8G30G10G24G 5G 8G 7G 4G 9
  23956835.779   -10868089.65849  -8109450.43945  23956835.778    23956843.303
       210.000         147.000
  23630033.925    -7184899.57949  -5565203.13645  23630033.069    23630042.851
       210.000         149.000
  20228900.703   -14588225.20549 -11336176.94148  20228900.194    20228905.372
       246.000         213.000
  21121187.056   -13648837.39949 -10225657.58747  21121186.517    21121190.989
       241.000         201.000
  21602263.760    -9956913.40549  -7739772.19246  21602263.534    21602268.962
       234.000         187.000
  24071954.656    12124895.74549   9446711.22445  24071954.403    24071962.179
       206.000         148.000
  21034912.899     2275646.75849   1784682.44047  21034912.933    21034917.208
       244.000         207.000
  22000030.469     1182493.49949   4397746.77947  22000030.206    22000036.080
       237.000         194.000
 99  4 23 19 31 30.0000000  0  8G30G10G24G 5G 8G 7G 4G 9
  23937952.522   -10967321.07049  -8186773.58045  23937951.881    23937959.540
       211.000         148.000
  23611902.334    -7280181.79549  -5639448.90045  23611901.291    23611911.544
       212.000         150.000
  20226180.631   -14602519.07849 -11347315.01548  20226180.117    20226185.409
       246.000         213.000
  21109554.128   -13709968.96349 -10273292.55847  21109553.700    21109557.881
       241.000         201.000
  21600810.879    -9964548.90549  -7745721.94347  21600810.020    21600815.761
       235.000         188.000
  24084291.567    12189725.74649   9497228.02745  24084291.222    24084298.523
       205.000         144.000
  21047106.856     2339726.27349   1834614.50047  21047106.991    21047111.320
       244.000         207.000
  22011981.171     1245294.68749   4446682.68647  22011981.133    22011987.122
       237.000         194.000
 99  4 23 19 32  0.0000000  0  8G30G10G24G 5G 8G 7G 4G 9
  23919078.344   -11066505.28749  -8264059.90845  23919078.656    23919084.836
       213.000         150.000
  23593781.554    -7375406.98449  -5713650.21145  23593780.096    23593790.668
       213.000         151.000
  20223557.129   -14616305.66749 -11358057.80748  20223556.783    20223561.934
       246.000         213.000
  21097975.855   -13770813.60149 -10320703.95347  21097975.386    21097979.804
       241.000         202.000
  21599475.945    -9971564.40049  -7751188.59247  21599475.464    21599480.891
       235.000         188.000
  24096630.647    12254568.76449   9547754.97845  24096627.832    24096638.197
       201.000         140.000
  21059374.742     2404194.07349   1884849.11947  21059374.618    21059379.161
       244.000         206.000
  22024005.059     1308480.43649   4495918.24647  22024004.699    22024011.120
       236.000         194.000
 99  4 23 19 32 30.0000000  0  8G30G10G24G 5G 8G 7G 4G 9
  23900211.024   -11165655.19349  -8341319.49945  23900211.728    23900217.073
       215.000         151.000
  23575676.067    -7470551.35549  -5787788.54845  23575674.820    23575684.379
       216.000         153.000
  20221028.071   -14629596.22349 -11368414.07748  20221027.494    20221032.717
       246.000         213.000
  21086453.961   -13831361.70549 -10367884.28247  21086453.402    21086457.733
       241.000         202.000
  21598261.158    -9977948.30949  -7756163.08247  21598260.705    21598266.195
       234.000         188.000
  24108971.683    12319421.81949   9598289.75445  24108968.638    24108979.383
       203.000         137.000
  21071720.663     2469072.34349   1935403.58347  21071720.701    21071725.205
       243.000         206.000
  22036104.125     1372060.92449   4545461.39447  22036104.322    22036110.078
       237.000         194.000
 99  4 23 19 33  0.0000000  0  8G30G10G24G 5G 8G 7G 4G 9
  23881342.502   -11264810.48249  -8418583.28745  23881342.461    23881348.493
       217.000         153.000
  23557577.977    -7565657.52649  -5861897.14945  23557576.649    23557586.925
       215.000         154.000
  20218587.123   -14642423.09049 -11378409.03048  20218586.524    20218591.846
       246.000         213.000
  21074982.173   -13891645.96449 -10414859.02347  21074981.514    21074986.174
       241.000         202.000
  21597154.731    -9983762.42349  -7760693.58747  21597154.291    21597160.017
       234.000         188.000
  24121305.679    12384236.91249   9648794.94245  24121308.096    24121313.164
       206.000         137.000
  21084135.534     2534312.87649   1986240.32847  21084135.407    21084140.223
       243.000         206.000
  22048268.752     1435985.43849   4595272.61847  22048268.731    22048274.604
       237.000         194.000
 99  4 23 19 33 30.0000000  0  8G30G10G24G 5G 8G 7G 4G 9
  23862472.192   -11363974.96249  -8495854.22945  23862472.564    23862478.491
       218.000         155.000
  23539486.504    -7660728.12649  -5935978.00645  23539484.594    23539493.851
       216.000         154.000
  20216235.631   -14654780.27349 -11388037.99448  20216235.282    20216240.584
       246.000         213.000
  21063560.323   -13951668.10249 -10461629.51547  21063559.451    21063564.407
       241.000         202.000
  21596155.253    -9989014.84049  -7764786.40447  21596154.813    21596160.198
       234.000         188.000
  24133632.740    12449015.56549   9699271.72345  24133633.343    24133641.160
       208.000         137.000
  21096616.922     2599903.05849   2037349.53047  21096616.786    21096621.441
       244.000         205.000
  22060494.985     1500234.59349   4645336.81047  22060494.567    22060500.562
       237.000         193.000
 99  4 23 19 34  0.0000000  0  8G30G10G24G 5G 8G 7G 4G 9
  23843609.910   -11463097.11749  -8573092.20445  23843610.102    23843615.184
       217.000         155.000
  23521412.451    -7755707.48149  -6009987.77645  23521411.186    23521421.088
       217.000         155.000
  20213980.664   -14666630.33849 -11397271.80548  20213980.213    20213985.198
       246.000         213.000
  21052199.426   -14011369.73849 -10508150.26947  21052198.756    21052203.635
       241.000         203.000
  21595269.344    -9993670.18949  -7768413.96847  21595268.567    21595274.211
       235.000         188.000
  24145965.798    12513825.12749   9749772.56945  24145964.736    24145973.841
       211.000         139.000
  21109172.601     2665883.57849   2088762.88847  21109172.514    21109176.797
       243.000         205.000
  22072790.533     1564847.66649   4695684.57147  22072790.135    22072796.519
       237.000         193.000
 99  4 23 19 34 30.0000000  0  8G30G10G24G 5G 8G 7G 4G 9
  23824766.978   -11562117.38449  -8650250.78745  23824767.127    23824772.704
       217.000         155.000
  23503363.943    -7850552.67449  -6083892.99745  23503362.751    23503372.270
       217.000         155.000
  20211835.139   -14677904.66249 -11406056.98648  20211834.658    20211839.901
       246.000         213.000
  21040910.938   -14070691.10249 -10554374.70547  21040910.131    21040915.194
       241.000         203.000
  21594504.886    -9997687.40249  -7771544.28847  21594504.096    21594509.921
       234.000         188.000
  24158317.261    12578731.59049   9800348.91045  24158316.935    24158325.824
       211.000         141.000
  21121810.567     2732296.33149   2140513.05347  21121810.835    21121815.088
       243.000         205.000
  22085163.768     1629869.03049   4746350.48147  22085163.200    22085169.527
       236.000         193.000
 99  4 23 19 35  0.0000000  0  8G30G10G24G 5G 8G 7G 4G 9
  23805923.748   -11661138.13949  -8727409.74345  23805923.912    23805929.465
       217.000         155.000
  23485319.693    -7945375.48249  -6157780.78245  23485318.183    23485327.638
       217.000         155.000
  20209781.407   -14688696.87149 -11414466.49448  20209780.930    20209786.179
       246.000         213.000
  21029675.009   -14129736.16749 -10600383.84947  21029674.120    21029679.159
       241.000         204.000
  21593841.363   -10001174.10449  -7774261.22647  21593840.925    21593846.196
       235.000         189.000
  24170666.102    12643624.10749   9850914.41045  24170665.297    24170672.989
       215.000         142.000
  21134509.233     2799028.09349   2192511.80147  21134509.294    21134513.681
       243.000         204.000
  22097592.612     1695182.97049   4797244.36847  22097592.655    22097598.721
       237.000         193.000
 99  4 23 19 35 30.0000000  0  8G30G10G24G 5G 8G 7G 4G 9
  23787093.070   -11760094.81949  -8804518.77745  23787094.307    23787099.362
       218.000         155.000
  23467294.282    -8040098.93849  -6231591.14245  23467292.741    23467303.035
       219.000         155.000
  20207829.607   -14698953.66649 -11422458.79748  20207829.401    20207834.576
       246.000         213.000
  21018506.462   -14188427.38949 -10646117.26447  21018505.681    21018510.556
       241.000         204.000
  21593296.577   -10004037.60549  -7776492.55147  21593296.892    21593301.597
       236.000         189.000
  24183024.781    12708569.23549   9901520.88345  24183024.540    24183032.021
       215.000         143.000
  21147281.054     2866144.30349   2244810.11647  21147280.842    21147285.506
       242.000         203.000
  22110089.094     1760851.66649   4848414.68647  22110088.694    22110095.198
       235.000         193.000
 99  4 23 19 36  0.0000000  0  8G30G10G24G 5G 8G 7G 4G 9
  23768266.841   -11859028.56749  -8881609.90845  23768266.711    23768272.429
       217.000         155.000
  23449275.342    -8134788.52349  -6305375.09445  23449273.656    23449282.899
       217.000         156.000
  20205967.355   -14708740.04449 -11430084.54048  20205967.030    20205972.100
       246.000         213.000
  21007393.547   -14246826.19049 -10691622.82047  21007393.004    21007397.521
       242.000         204.000
  21592860.548   -10006329.73349  -7778278.64647  21592859.854    21592865.223
       236.000         189.000
  24195381.037    12773500.95449   9952116.91845  24195380.397    24195387.755
       217.000         144.000
  21160115.960     2933592.29549   2297366.95847  21160115.977    21160120.550
       242.000         203.000
  22122640.215     1826807.90849   4899809.07347  22122639.955    22122645.586
       236.000         192.000
 99  4 23 19 36 30.0000000  0  8G30G10G24G 5G 8G 7G 4G 9
  23749461.083   -11957853.52049  -8958616.28745  23749461.090    23749465.858
       217.000         156.000
  23431275.418    -8229378.34049  -6379081.29345  23431273.937    23431284.338
       219.000         158.000
  20204210.923   -14717970.33849 -11437276.97048  20204210.816    20204215.803
       246.000         213.000
  20996348.901   -14304866.39949 -10736848.95247  20996348.351    20996352.737
       242.000         204.000
  21592549.571   -10007964.08349  -7779552.19247  21592549.089    21592554.419
       236.000         189.000
  24207747.858    12838489.21649  10002757.03645  24207746.626    24207754.990
       216.000         144.000
  21173028.892     3001450.13049   2350243.15447  21173029.057    21173033.573
       241.000         203.000
  22135261.154     1893130.94849   4951489.27047  22135260.978    22135266.961
       235.000         192.000
 99  4 23 19 37  0.0000000  0  8G30G10G24G 5G 8G 7G 4G 9
  23730676.208   -12056568.29349  -9035536.81245  23730676.155    23730681.079
       214.000         154.000
  23413296.972    -8323855.45449  -6452699.66145  23413295.533    23413305.767
       219.000         160.000
  20202559.201   -14726650.38749 -11444040.64248  20202558.840    20202564.154
       246.000         213.000
  20985373.612   -14362541.79349 -10781790.81847  20985373.009    20985377.360
       241.000         203.000
  21592366.903   -10008924.21849  -7780300.37647  21592366.156    21592371.937
       236.000         189.000
  24220126.170    12903537.25149  10053443.73345  24220125.926    24220134.046
       216.000         145.000
  21186018.598     3069711.17749   2403433.54347  21186018.734    21186023.368
       241.000         203.000
  22147954.096     1959832.69249   5003464.56847  22147954.010    22147960.599
       236.000         191.000
 99  4 23 19 37 30.0000000  0  8G30G10G24G 5G 8G 7G 4G 9
  23711905.550   -12155207.69049  -9112398.60645  23711904.650    23711910.999
       217.000         155.000
  23395333.494    -8418253.82449  -6526256.67445  23395331.909    23395341.653
       220.000         161.000
  20201004.661   -14734819.39149 -11450406.09548  20201004.266    20201009.339
       246.000         213.000
  20974456.965   -14419908.92349 -10826492.47447  20974456.246    20974460.681
       241.000         203.000
  21592304.458   -10009252.81049  -7780556.44547  21592304.129    21592309.111
       235.000         189.000
  24232509.286    12968610.68249  10104150.20645  24232508.913    24232516.682
       215.000         146.000
  21199074.302     3138319.14849   2456894.26247  21199074.366    21199078.870
       241.000         202.000
  22160712.743     2026879.58149   5055708.80647  22160711.948    22160718.323
       235.000         191.000
 99  4 23 19 38  0.0000000  0  8G30G10G24G 5G 8G 7G 4G 9
  23693148.574   -12253774.89549  -9189204.13045  23693147.925    23693153.422
       214.000         153.000
  23377386.959    -8512563.66449  -6599744.70145  23377385.403    23377394.985
       220.000         162.000
  20199549.923   -14742463.78149 -11456362.76748  20199549.433    20199554.670
       246.000         213.000
  20963597.305   -14476976.73449 -10870960.89247  20963596.564    20963600.824
       241.000         203.000
  21592362.331   -10008949.02149  -7780319.75647  21592362.139    21592367.056
       235.000         189.000
  24244899.386    13033720.10049  10154884.74545  24244898.646    24244906.867
       214.000         146.000
  21212198.519     3207287.22349   2510635.57847  21212198.291    21212202.893
       241.000         202.000
  22173541.151     2094292.99349   5108238.64747  22173540.967    22173547.017
       236.000         191.000
 99  4 23 19 38 30.0000000  0  8G30G10G24G 5G 8G 7G 4G 9
  23674399.636   -12352300.07949  -9265976.92945  23674399.684    23674404.859
       216.000         154.000
  23359459.620    -8606771.79649  -6673153.43446  23359458.054    23359468.276
       221.000         163.000
  20198193.409   -14749592.15349 -11461917.33848  20198192.902    20198198.329
       246.000         213.000
  20952794.017   -14533748.39049 -10915198.53247  20952793.003    20952797.914
       241.000         203.000
  21592539.734   -10008016.92849  -7779593.47947  21592539.676    21592544.227
       235.000         189.000
  24257293.439    13098850.83149  10205635.89345  24257293.115    24257301.757
       212.000         147.000
  21225388.368     3276600.52649   2564645.91447  21225388.229    21225393.075
       241.000         202.000
  22186441.797     2162085.95449   5161064.23847  22186442.146    22186447.782
       236.000         191.000
 99  4 23 19 39  0.0000000  0  8G30G10G24G 5G 8G 7G 4G 9
  23655701.557   -12450560.72449  -9342543.69245  23655702.438    23655707.208
       219.000         154.000
  23341595.726    -8700647.26649  -6746303.30946  23341595.370    23341605.052
       222.000         163.000
  20196977.993   -14755979.82749 -11466894.28647  20196978.952    20196984.391
       246.000         212.000
  20942091.044   -14589993.38049 -10959025.89847  20942090.772    20942096.115
       240.000         203.000
  21592879.198   -10006234.39149  -7778204.62047  21592879.521    21592884.491
       235.000         189.000
  24269732.834    13164219.67949  10256573.20945  24269733.813    24269742.613
       208.000         140.000
  21238684.907     3346473.47849   2619092.00147  21238685.884    21238690.534
       241.000         202.000
  22199457.144     2230480.90049   5214358.80347  22199458.235    22199463.769
       236.000         191.000
 99  4 23 19 39 30.0000000  0  8G30G10G24G 5G 8G 7G 4G 9
  23636988.573   -12548900.26449  -9419172.06645  23636989.932    23636994.629
       220.000         155.000

       222.000         163.000

       246.000         213.000
  20931419.942   -14646071.29849 -11002722.97247  20931420.079    20931424.846
       241.000         203.000
  21593310.304   -10003970.87649  -7776441.09047  21593310.712    21593315.638
       236.000         189.000

       211.000         145.000

       241.000         203.000
  22212517.092     2299109.35649   5267835.21047  22212517.554    22212523.510
       236.000         191.000
 99  4 23 19 40  0.0000000  0  8G30G10G24G 5G 8G 7G 4G 9
  23618266.630   -12647286.07149  -9495836.27245  23618266.964    23618272.385
       221.000         157.000
  23305863.143    -8888424.52149  -6892622.91546  23305862.147    23305871.757
       224.000         165.000
  20194771.948   -14767575.89949 -11475930.17248  20194772.090    20194777.439
       246.000         213.000
  20920790.189   -14701932.09549 -11046250.85647  20920789.799    20920794.852
       242.000         204.000
  21593837.904   -10001199.74349  -7774281.79347  21593837.567    21593843.123
       236.000         189.000
  24294539.423    13294578.17049  10358150.80845  24294539.420    24294547.648
       210.000         146.000
  21265407.731     3486899.79549   2728515.03447  21265408.184    21265412.746
       242.000         203.000
  22225624.722     2367989.34749   5321507.83947  22225625.200    22225631.248
       236.000         191.000
 99  4 23 19 40 30.0000000  0  8G30G10G24G 5G 8G 7G 4G 9
  23599550.900   -12745638.06949  -9572474.14745  23599550.441    23599556.523
       219.000         158.000
  23288009.413    -8982246.68249  -6965730.93846  23288008.457    23288017.761
       223.000         166.000
  20193795.389   -14772708.55349 -11479929.63748  20193795.486    20193800.735
       246.000         213.000
  20910217.591   -14757492.07149 -11089544.34347  20910217.348    20910221.869
       242.000         205.000
  21594471.012    -9997873.38349  -7771689.84947  21594470.399    21594476.004
       235.000         189.000
  24306924.871    13359664.13749  10408867.05045  24306924.266    24306933.367
       210.000         146.000
  21278847.444     3557525.33549   2783547.88547  21278847.970    21278852.565
       242.000         203.000
  22238787.845     2437160.75749   5375407.54447  22238787.977    22238794.631
       235.000         190.000
 99  4 23 19 41  0.0000000  0  8G30G10G24G 5G 8G 7G 4G 9
  23580861.412   -12843852.00649  -9649004.44945  23580860.810    23580866.508
       218.000         157.000
  23270181.083    -9075935.04149  -7038734.69746  23270180.369    23270189.133
       222.000         166.000
  20192920.681   -14777305.63149 -11483511.77648  20192920.662    20192925.970
       246.000         213.000
  20899720.021   -14812657.92249 -11132530.71347  20899719.515    20899724.421
       242.000         205.000
  21595224.234    -9993915.38249  -7768605.72447  21595223.508    21595229.014
       235.000         190.000
  24319321.136    13424806.44749  10459627.18345  24319321.254    24319329.633
       207.000         146.000
  21292357.387     3628519.87449   2838868.27147  21292357.787    21292362.414
       242.000         203.000
  22252019.227     2506691.34749   5429587.13047  22252018.778    22252025.902
       234.000         190.000
 99  4 23 19 41 30.0000000  0  8G30G10G24G 5G 8G 7G 4G 9
  23562188.549   -12941977.91049  -9725466.12945  23562187.637    23562193.869
       217.000         156.000
  23252370.885    -9169527.62949  -7111663.84146  23252369.280    23252378.668
       222.000         166.000
  20192136.863   -14781425.27049 -11486721.87848  20192137.004    20192142.042
       246.000         213.000
  20889291.194   -14867461.93949 -11175235.14047  20889290.965    20889295.371
       242.000         205.000
  21596089.105    -9989370.74449  -7765064.48547  21596088.949    21596094.651
       236.000         190.000
  24331723.642    13489981.16349  10510412.55345  24331723.398    24331732.216
       209.000         145.000
  21305930.973     3699848.89749   2894449.29547  21305931.071    21305935.731
       242.000         203.000
  22265310.292     2576535.56849   5484011.11247  22265310.256    22265317.130
       235.000         190.000
 99  4 23 19 42  0.0000000  0  8G30G10G24G 5G 8G 7G 4G 9
  23543544.436   -13039953.11649  -9801810.39945  23543544.263    23543550.222
       219.000         157.000
  23234592.276    -9262954.05649  -7184463.47846  23234591.557    23234600.030
       220.000         164.000
  20191457.893   -14784993.69249 -11489502.46448  20191457.645    20191462.974
       246.000         214.000
  20878948.785   -14921811.95649 -11217585.80347  20878948.305    20878952.849
       242.000         206.000
  21597080.096    -9984163.36749  -7761006.82447  21597079.373    21597084.996
       235.000         190.000
  24344147.641    13555269.21449  10561286.24845  24344147.188    24344156.020
       212.000         144.000
  21319580.305     3771576.09849   2950340.58447  21319580.831    21319584.848
       243.000         203.000
  22278675.073     2646767.50449   5538737.19247  22278675.814    22278681.260
       235.000         190.000
 99  4 23 19 42 30.0000000  0  8G30G10G24G 5G 8G 7G 4G 9
  23524905.075   -13137903.78049  -9878135.54145  23524905.777    23524910.286
       220.000         159.000
  23216821.210    -9356341.01049  -7257232.36946  23216820.100    23216829.243
       221.000         163.000
  20190857.486   -14788148.90049 -11491961.05848  20190857.190    20190862.558
       246.000         213.000
  20868665.637   -14975850.31349 -11259693.60847  20868665.214    20868669.885
       242.000         206.000
  21598171.539    -9978427.98049  -7756537.71247  21598170.738    21598176.521
       236.000         190.000
  24356566.383    13620528.75649  10612137.73645  24356566.450    24356573.921
       211.000         141.000
  21333280.535     3843570.86749   3006440.37247  21333280.657    21333285.145
       242.000         203.000
  22292089.776     2717261.58249   5593667.54747  22292089.548    22292096.044
       234.000         189.000
 99  4 23 19 43  0.0000000  0  8G30G10G24G 5G 8G 7G 4G 9
  23506286.754   -13235744.19949  -9954374.76245  23506286.956    23506292.464
       220.000         160.000
  23199077.726    -9449583.44049  -7329888.65046  23199076.194    23199084.797
       220.000         163.000
  20190354.756   -14790790.98549 -11494019.82448  20190354.618    20190359.791
       244.000         213.000
  20858455.196   -15029506.50949 -11301503.63047  20858454.912    20858459.512
       243.000         206.000
  21599380.890    -9972072.75849  -7751585.62747  21599380.130    21599385.984
       236.000         190.000
  24368993.387    13685832.29649  10663023.49445  24368992.847    24369000.629
       209.000         138.000
  21347049.404     3915926.45249   3062821.30747  21347049.375    21347054.065
       242.000         203.000
  22305570.698     2788103.82749   5648869.20047  22305570.495    22305576.829
       233.000         188.000
 99  4 23 19 43 30.0000000  0  8G30G10G24G 5G 8G 7G 4G 9
  23487678.588   -13333531.20049 -10030572.35545  23487678.449    23487683.911
       219.000         160.000
  23181353.657    -9542723.50649  -7402465.18346  23181352.014    23181361.039
       220.000         164.000
  20189942.640   -14792957.00149 -11495707.62148  20189942.344    20189947.521
       244.000         213.000
  20848305.562   -15082843.82049 -11343065.16147  20848305.169    20848309.474
       243.000         206.000
  21600695.943    -9965162.56049  -7746201.09247  21600694.780    21600701.300
       236.000         190.000
  24381415.565    13751110.80749  10713889.74345  24381415.108    24381421.969
       207.000         135.000
  21360875.998     3988585.53849   3119438.74247  21360875.983    21360880.948
       243.000         202.000
  22319105.217     2859228.24149   5704290.71747  22319105.405    22319111.461
       234.000         188.000
 99  4 23 19 44  0.0000000  0  8G30G10G24G 5G 8G 7G 4G 9
  23469095.532   -13431185.35049 -10106666.41845  23469095.393    23469101.705
       220.000         161.000
  23163662.014    -9635693.38149  -7474909.11346  23163660.212    23163669.306
       222.000         164.000
  20189634.214   -14794577.86949 -11496970.62848  20189633.827    20189639.267
       244.000         213.000
  20838223.807   -15135823.82349 -11384348.27247  20838222.998    20838227.835
       243.000         206.000
  21602128.209    -9957636.16049  -7740336.39147  21602127.908    21602133.178
       236.000         190.000
  24393841.805    13816410.63749  10764772.60045  24393839.346    24393848.487
       206.000         135.000
  21374770.320     4061600.49549   3176333.47447  21374770.284    21374774.999
       242.000         202.000
  22332703.767     2930688.43549   5759973.89347  22332704.051    22332710.214
       234.000         188.000
 99  4 23 19 44 30.0000000  0  8G30G10G24G 5G 8G 7G 4G 9
  23450528.103   -13528757.46149 -10182696.57045  23450527.658    23450535.064
       220.000         161.000
  23145993.545    -9728541.37349  -7547258.06446  23145992.213    23146001.145
       222.000         164.000
  20189417.728   -14795715.29549 -11497856.92748  20189417.377    20189422.722
       245.000         213.000
  20828197.807   -15188511.00349 -11425403.21247  20828197.159    20828201.747
       244.000         207.000
  21603666.448    -9949552.66649  -7734037.60647  21603665.454    21603671.164
       235.000         190.000
  24406261.716    13881677.26449  10815629.56445  24406261.337    24406269.162
       203.000         135.000
  21388720.681     4134909.75049   3233457.53447  21388720.767    21388725.361
       242.000         201.000
  22346354.242     3002421.34749   5815869.57747  22346354.051    22346361.310
       235.000         188.000
 99  4 23 19 45  0.0000000  0  8G30G10G24G 5G 8G 7G 4G 9
  23431985.788   -13626197.51649 -10258623.83245  23431985.014    23431991.208
       221.000         162.000
  23128361.019    -9821200.01849  -7619459.49246  23128360.429    23128368.301
       221.000         164.000
  20189307.234   -14796296.01749 -11498309.43748  20189306.784    20189312.153
       244.000         213.000
  20818242.183   -15240828.22449 -11466169.87447  20818241.651    20818245.756
       244.000         207.000
  21605324.068    -9940841.65149  -7727249.83947  21605323.546    21605329.069
       235.000         190.000
  24418690.321    13946989.44149  10866522.05645  24418690.133    24418698.155
       204.000         136.000
  21402739.649     4208579.52249   3290862.50747  21402739.692    21402744.305
       242.000         201.000
  22360065.203     3074472.50549   5872013.23847  22360064.789    22360071.502
       234.000         188.000
 99  4 23 19 45 30.0000000  0  8G30G10G24G 5G 8G 7G 4G 9
  23413452.887   -13723588.71049 -10334513.02745  23413453.044    23413458.116
       221.000         162.000
  23110749.173    -9913750.74049  -7691576.81546  23110747.622    23110756.483
       223.000         164.000
  20189285.402   -14796410.74649 -11498398.83748  20189285.049    20189289.980
       244.000         213.000
  20808345.950   -15292833.62349 -11506693.56447  20808345.592    20808349.748
       244.000         207.000
  21607087.879    -9931573.16649  -7720027.67947  21607087.255    21607093.126
       236.000         190.000
  24431114.929    14012280.04349  10917397.75245  24431113.802    24431122.355
       202.000         136.000
  21416812.499     4282532.45749   3348488.13547  21416812.369    21416817.021
       241.000         200.000
  22373822.899     3146769.27349   5928348.28946  22373823.075    22373829.638
       234.000         187.000
 99  4 23 19 46  0.0000000  0  8G30G10G24G 5G 8G 7G 4G 9
  23394948.531   -13820829.39749 -10410284.93145  23394949.374    23394953.050
       221.000         162.000
  23093176.068   -10006097.65049  -7763535.31246  23093175.138    23093182.720
       223.000         165.000
  20189367.736   -14795977.92449 -11498061.57048  20189367.222    20189372.563
       244.000         213.000
  20798531.291   -15344410.44849 -11546883.29147  20798530.657    20798534.856
       244.000         207.000
  21608979.945    -9921631.24949  -7712280.76147  21608979.395    21608984.889
       236.000         190.000
  24443558.344    14077670.90249  10968351.55445  24443557.167    24443566.299
       204.000         138.000
  21430956.409     4356859.06449   3406404.92947  21430956.278    21430960.766
       241.000         199.000
  22387647.292     3219416.85449   5984956.69446  22387647.044    22387653.363
       233.000         187.000
 99  4 23 19 46 30.0000000  0  8G30G10G24G 5G 8G 7G 4G 9
  23376458.717   -13917992.73249 -10485996.53245  23376458.564    23376463.915
       220.000         161.000
  23075629.572   -10098304.89849  -7835385.01546  23075628.375    23075636.213
       222.000         165.000
  20189541.558   -14795064.47249 -11497349.78748  20189541.191    20189546.478
       244.000         213.000
  20788790.312   -15395599.49349 -11586770.86147  20788789.680    20788794.145
       244.000         207.000
  21610988.089    -9911078.64149  -7704057.99447  21610987.675    21610992.543
       236.000         190.000
  24456010.438    14143106.79949  11019340.48345  24456009.497    24456019.126
       202.000         139.000
  21445157.332     4431485.45549   3464555.32347  21445157.117    21445162.160
       241.000         199.000
  22401527.180     3292355.50449   6041791.91046  22401526.806    22401533.480
       234.000         187.000
 99  4 23 19 47  0.0000000  0  8G30G10G24G 5G 8G 7G 4G 9
  23357984.706   -14015073.44049 -10561643.77145  23357984.334    23357990.489
       220.000         161.000
  23058109.737   -10190371.33149  -7907124.98646  23058108.564    23058117.205
       222.000         165.000
  20189807.737   -14793665.96049 -11496260.03248  20189807.257    20189812.564
       244.000         213.000
  20779122.100   -15446406.08649 -11626360.41247  20779121.284    20779125.935
       243.000         207.000
  21613114.659    -9899903.88549  -7695350.42947  21613114.492    21613119.627
       236.000         190.000
  24468471.306    14208589.23149  11070365.63545  24468470.580    24468480.106
       204.000         142.000
  21459415.406     4506412.16249   3522939.72747  21459415.366    21459419.966
       240.000         198.000
  22415464.373     3365595.14649   6098861.66646  22415464.037    22415470.710
       233.000         187.000
 99  4 23 19 47 30.0000000  0  8G30G10G24G 5G 8G 7G 4G 9
  23339531.288   -14112046.04449 -10637206.75845  23339531.119    23339537.378
       221.000         162.000
  23040617.164   -10282294.58549  -7978753.38546  23040616.153    23040624.316
       223.000         165.000
  20190163.226   -14791797.77049 -11494804.29148  20190162.901    20190168.199
       244.000         213.000
  20769524.335   -15496842.44249 -11665661.46447  20769523.578    20769528.371
       243.000         207.000
  21615359.127    -9888109.81549  -7686160.28147  21615358.858    21615363.147
       237.000         190.000
  24480941.836    14274121.13049  11121429.37345  24480941.227    24480950.419
       207.000         145.000
  21473727.258     4581621.11449   3581544.06447  21473727.038    21473731.972
       240.000         197.000
  22429460.675     3439145.97449   6156173.91046  22429460.777    22429467.239
       233.000         186.000
 99  4 23 19 48  0.0000000  0  8G30G10G24G 5G 8G 7G 4G 9
  23321112.724   -14208836.27949 -10712627.66545  23321111.930    23321117.840
       221.000         161.000
  23023166.500   -10373998.16449  -8050210.61946  23023165.444    23023174.138
       223.000         166.000
  20190622.493   -14789384.39249 -11492923.73548  20190622.183    20190627.487
       245.000         213.000
  20760007.195   -15546855.39049 -11704632.59047  20760006.337    20760011.047
       242.000         207.000
  21617732.411    -9875638.85249  -7676442.69447  21617731.806    21617736.955
       236.000         190.000
  24493435.680    14339775.67049  11172588.64945  24493435.018    24493444.393
       208.000         147.000
  21488104.808     4657175.54449   3640417.60047  21488104.725    21488109.696
       239.000         196.000
  22443529.795     3513079.01549   6213783.97446  22443529.738    22443536.114
       233.000         186.000
 99  4 23 19 48 30.0000000  0  8G30G10G24G 5G 8G 7G 4G 9
  23302705.196   -14305568.06049 -10788003.00145  23302704.973    23302711.356
       221.000         162.000
  23005735.280   -10465599.75649  -8121588.37346  23005734.372    23005742.502
       224.000         167.000
  20191164.585   -14786535.69649 -11490703.97048  20191164.298    20191169.524
       244.000         213.000
  20750544.703   -15596580.70449 -11743379.58547  20750543.777    20750548.768
       242.000         207.000
  21620208.063    -9862629.43749  -7666305.53647  21620207.102    21620212.234
       236.000         190.000
  24505925.015    14405406.78649  11223729.68145  24505924.911    24505932.759
       211.000         147.000
  21502527.499     4732967.37849   3699476.12447  21502527.320    21502532.552
       239.000         196.000
  22457646.821     3587264.00849   6271590.35846  22457646.935    22457653.275
       232.000         186.000
 99  4 23 19 49  0.0000000  0  8G30G10G24G 5G 8G 7G 4G 9
  23284310.196   -14402234.58049 -10863327.51145  23284310.068    23284316.581
       220.000         162.000
  22988322.638   -10557103.34049  -8192889.75646  22988321.226    22988330.202
       222.000         167.000
  20191789.223   -14783253.21549 -11488146.18948  20191788.795    20191794.364
       245.000         214.000
  20741136.136   -15646022.84149 -11781905.92147  20741135.481    20741140.322
       242.000         207.000
  21622782.994    -9849098.37549  -7655761.89147  21622782.049    21622787.554
       237.000         190.000
  24518407.658    14471003.03849  11274843.54145  24518406.860    24518415.650
       211.000         146.000
  21516996.752     4809003.71949   3758725.18147  21516996.293    21517001.802
       238.000         195.000
  22471807.917     3661680.68149   6329577.28146  22471807.961    22471814.139
       232.000         185.000
 99  4 23 19 49 30.0000000  0  8G30G10G24G 5G 8G 7G 4G 9
  23265940.328   -14498769.23849 -10938549.27946  23265940.764    23265945.569
       221.000         163.000
  22970944.688   -10648424.16549  -8264048.71346  22970942.767    22970952.701
       222.000         166.000
  20192511.612   -14779457.15149 -11485188.21748  20192511.055    20192516.501
       245.000         214.000
  20731798.365   -15695093.10549 -11820142.48747  20731797.665    20731802.368
       242.000         207.000
  21625468.286    -9834987.25449  -7644766.25747  21625467.560    21625472.442
       236.000         191.000
  24530897.472    14536637.43849  11325987.11845  24530896.304    24530905.916
       213.000         146.000
  21531526.755     4885359.72849   3818223.32347  21531526.694    21531531.956
       238.000         195.000
  22486023.998     3736386.30149   6387789.35246  22486023.340    22486030.533
       231.000         184.000
 99  4 23 19 50  0.0000000  0  8G30G10G24G 5G 8G 7G 4G 9
  23247591.708   -14595191.77349 -11013683.65346  23247591.967    23247596.654
       222.000         164.000
  22953601.222   -10739563.82949  -8335066.51846  22953599.654    22953608.774
       223.000         167.000
  20193333.898   -14775135.92949 -11481821.02648  20193333.476    20193338.618
       245.000         214.000
  20722531.949   -15743788.35449 -11858086.83147  20722531.110    20722535.875
       242.000         207.000
  21628263.273    -9820299.59949  -7633321.37347  21628262.585    21628267.566
       236.000         190.000
  24543390.958    14602290.70549  11377145.38945  24543390.904    24543399.007
       213.000         144.000
  21546118.792     4962041.40149   3877975.22347  21546118.912    21546123.885
       238.000         194.000
  22500293.057     3811371.26149   6446219.08046  22500292.322    22500300.089
       230.000         183.000
 99  4 23 19 50 30.0000000  0  8G30G10G24G 5G 8G 7G 4G 9
  23229267.758   -14691484.70149 -11088717.05546  23229267.843    23229272.969
       222.000         165.000
  22936294.221   -10830512.18949  -8405935.26346  22936293.564    22936302.003
       225.000         169.000
  20194257.213   -14770283.91349 -11478040.22948  20194256.717    20194261.987
       245.000         214.000
  20713341.340   -15792084.96249 -11895720.54747  20713340.643    20713345.412
       243.000         207.000
  21631170.917    -9805019.44649  -7621414.79247  21631169.943    21631175.531
       235.000         190.000
  24555887.689    14667961.04049  11428316.95245  24555886.643    24555896.326
       211.000         141.000
  21560773.753     5039053.42149   3937984.54847  21560773.697    21560778.735
       238.000         193.000
  22514616.275     3886640.26649   6504870.14446  22514616.585    22514623.038
       232.000         183.000
 99  4 23 19 51  0.0000000  0  8G30G10G24G 5G 8G 7G 4G 9
  23210969.707   -14787640.85549 -11163643.86946  23210970.220    23210974.711
       223.000         167.000
  22919026.615   -10921254.53149  -8476643.45446  22919025.249    22919034.100
       224.000         170.000
  20195282.615   -14764895.24049 -11473841.26048  20195282.427    20195287.395
       245.000         214.000
  20704227.331   -15839979.76849 -11933041.17147  20704226.622    20704231.325
       243.000         208.000
  21634194.402    -9789130.24249  -7609033.64747  21634193.320    21634198.898
       234.000         189.000
  24568391.388    14733668.08549  11479517.13245  24568391.347    24568398.352
       213.000         138.000
  21575491.005     5116392.17549   3998248.46347  21575491.198    21575495.611
       237.000         193.000
  22528993.698     3962193.10149   6563742.37546  22528993.612    22528999.419
       232.000         183.000
 99  4 23 19 51 30.0000000  0  7G30G10G24G 5G 8G 4G 9
  23192692.905   -14883686.12649 -11238484.28046  23192693.343    23192698.193
       222.000         167.000
  22901793.663   -11011814.01649  -8547209.16646  22901792.549    22901800.684
       225.000         171.000
  20196404.045   -14759002.06549 -11469249.17748  20196403.531    20196409.003
       245.000         213.000
  20695184.575   -15887499.97449 -11970069.89947  20695183.623    20695188.683
       243.000         208.000
  21637331.499    -9772644.17149  -7596187.39747  21637330.348    21637335.891
       234.000         189.000
  21590264.258     5194026.25849   4058742.51247  21590264.041    21590269.035
       236.000         192.000
  22543421.894     4038013.52049   6622823.11046  22543421.514    22543428.535
       230.000         183.000
 99  4 23 19 52  0.0000000  0  7G30G10G24G 5G 8G 4G 9

       223.000          74.000

       223.000          74.000
                   -179555.65646                                  20197680.418
       245.000         174.000
                   -191089.08246                                  20686274.896
       243.000         167.000
                   -177237.00945                                  21640645.202
       235.000         149.000
                   -164164.17045                                  21605157.580
       236.000         151.000
  22557956.604     4114391.41949   6682338.38146  22557959.110    22557965.308
       230.000         182.000
 99  4 23 19 52 30.0000000  0  7G30G10G24G 5G 8G 4G 9
                   -298211.03845                                  23156265.871
       224.000         157.000
                   -270715.30545                                  22867483.750
       222.000         155.000
  20198966.991     -234874.86549   -174269.03247  20198966.307    20198971.437
       245.000         209.000
  20677360.271     -319318.53549   -227576.60147  20677359.612    20677364.313
       244.000         204.000
  21643989.780     -217873.86949   -163521.09046  21643988.858    21643995.103
       234.000         184.000
  21620025.793     -122317.47649   -103259.02646  21620025.937    21620031.403
       235.000         186.000
  22572470.827     4190660.60849   6741768.81346  22572471.703    22572479.269
       232.000         182.000
 99  4 23 19 53  0.0000000  0  8G30G10G24G 5G 8G 4G 9G 6
  23138032.715     -502284.48749   -372852.11346  23138032.334    23138037.503
       224.000         165.000
  22850320.038     -479174.58949   -340965.20746  22850318.873    22850327.833
       221.000         167.000
  20200330.333     -227708.24149   -168684.64648  20200330.122    20200335.071
       245.000         213.000
  20668510.195     -365826.52649   -263816.58947  20668509.199    20668514.221
       244.000         208.000
  21647435.822     -199770.01549   -149414.23147  21647434.493    21647440.354
       235.000         189.000
  21634941.902      -43933.10049    -42180.34447  21634942.051    21634947.111
       234.000         189.000
  22587015.616     4267091.40949   6801325.17646  22587016.554    22587023.138
       232.000         183.000
                   -319778.44944                                  24871443.921
       206.000         115.000
 99  4 23 19 53 30.0000000  0  8G30G10G24G 5G 8G 4G 9G 6
  23119832.975     -597931.24949   -447382.00346  23119831.334    23119836.182
       223.000         167.000
  22833200.979     -569138.90349   -411067.13646  22833198.895    22833208.146
       222.000         168.000
  20201780.522     -220088.66749   -162747.30948  20201780.069    20201784.935
       245.000         214.000
  20659739.737     -411913.68549   -299728.65747  20659739.220    20659744.113
       246.000         209.000
  21650989.888     -181089.65349   -134858.14747  21650989.252    21650994.922
       234.000         190.000
  21649913.375       34736.99949     19120.98647  21649913.057    21649917.578
       235.000         189.000
  22601609.010     4343777.88349   6861080.76446  22601609.551    22601616.116
       232.000         183.000
  24858418.215     -502270.05949   -373052.60045  24858420.793    24858431.167
       200.000         134.000
 99  4 23 19 54  0.0000000  0  8G30G10G24G 5G 8G 4G 9G 6
  23101673.680     -693356.78949   -521739.51346  23101672.695    23101677.394
       223.000         167.000
  22816133.704     -658825.26649   -480952.47746  22816133.150    22816140.957
       222.000         169.000
  20203333.393     -211927.85449   -156388.23748  20203332.994    20203338.080
       245.000         214.000
  20651066.556     -457491.72549   -335244.01747  20651065.865    20651070.695
       246.000         209.000
  21654667.853     -161763.79149   -119799.07647  21654666.536    21654672.779
       234.000         190.000
  21664950.587      113758.40349     80696.05047  21664950.137    21664955.079
       236.000         189.000
  22616263.952     4420788.53949   6921088.94946  22616264.306    22616271.290
       232.000         183.000
  24845431.638     -570523.61049   -426237.02245  24845434.054    24845443.918
       206.000         138.000
 99  4 23 19 54 30.0000000  0  8G30G10G24G 5G 8G 4G 9G 6
  23083545.196     -788619.18849   -595969.89646  23083544.335    23083548.874
       223.000         165.000
  22799110.527     -748281.78749   -550658.74946  22799109.435    22799117.436
       223.000         169.000
  20204982.810     -203259.85349   -149633.94548  20204982.422    20204987.409
       245.000         214.000
  20642481.269     -502608.23349   -370399.73547  20642480.798    20642485.393
       246.000         210.000
  21658460.493     -141831.31049   -104267.32147  21658459.900    21658465.722
       234.000         190.000
  21680041.990      193064.35449    142492.85147  21680041.689    21680046.181
       235.000         189.000
  22630973.305     4498085.47549   6981320.22346  22630973.263    22630980.925
       232.000         184.000
  24832457.325     -638711.75049   -479370.52545  24832459.666    24832468.435
       209.000         140.000
 99  4 23 19 55  0.0000000  0  8G30G10G24G 5G 8G 4G 9G 6
  23065446.049     -883729.04649   -670081.43446  23065445.115    23065450.551
       222.000         165.000
  22782127.197     -837529.12349   -620202.00746  22782125.982    22782134.502
       224.000         170.000
  20206724.408     -194107.49449   -142502.23548  20206724.156    20206729.364
       245.000         214.000
  20633977.219     -547297.85849   -405222.81747  20633976.615    20633981.403
       246.000         210.000
  21662364.948     -121312.78249    -88278.90647  21662364.757    21662370.074
       235.000         190.000
  21695179.954      272615.56049    204480.76047  21695179.620    21695184.275
       234.000         188.000
  22645735.768     4575661.71149   7041769.12646  22645735.224    22645742.966
       231.000         183.000
  24819490.086     -706858.78049   -532471.95145  24819491.693    24819499.799
       208.000         143.000
 99  4 23 19 55 30.0000000  0  8G30G10G24G 5G 8G 4G 9G 6
  23047373.139     -978700.34349   -744084.99446  23047372.546    23047378.081
       222.000         164.000
  22765181.462     -926578.93549   -689591.36746  22765179.884    22765188.201
       225.000         172.000
  20208558.702     -184468.40949   -134991.26248  20208558.376    20208563.490
       246.000         214.000
  20625549.288     -591586.98049   -439733.82547  20625548.670    20625553.262
       246.000         211.000
  21666378.161     -100223.71349    -71845.91147  21666377.029    21666383.018
       234.000         189.000
  21710357.989      352376.95949    266632.46247  21710358.142    21710362.186
       235.000         188.000
  22660549.395     4653507.18949   7102427.81846  22660549.498    22660555.923
       231.000         183.000
  24806526.322     -774984.91549   -585557.09545  24806526.299    24806535.829
       207.000         143.000
 99  4 23 19 56  0.0000000  0  8G30G10G24G 5G 8G 4G 9G 6
  23029333.613    -1073497.99549   -817953.25546  23029333.314    23029339.081
       222.000         164.000
  22748278.348    -1015404.91749   -758806.31446  22748277.375    22748285.579
       225.000         173.000
  20210490.440     -174317.19249   -127081.22248  20210490.089    20210495.115
       246.000         214.000
  20617200.982     -635457.59049   -473918.71147  20617200.259    20617204.879
       246.000         211.000
  21670505.879      -78532.20949    -54943.49547  21670504.812    21670511.459
       234.000         189.000
  21725584.346      432391.95249    328981.76546  21725584.181    21725589.744
       234.000         187.000
  22675419.297     4731647.88349   7163316.56246  22675419.414    22675426.292
       232.000         183.000
  24793571.846     -843061.03249   -638603.27445  24793571.098    24793581.392
       203.000         142.000
 99  4 23 19 56 30.0000000  0  8G30G10G24G 5G 8G 4G 9G 6
  23011328.317    -1168115.57249   -891681.20046  23011327.779    23011334.680
       223.000         165.000
  22731420.062    -1103995.75049   -827838.02646  22731418.696    22731427.302
       225.000         173.000
  20212519.357     -163655.25649   -118773.21848  20212518.904    20212523.716
       246.000         215.000
  20608931.327     -678915.27449   -507781.84247  20608930.874    20608935.329
       247.000         211.000
  21674749.569      -56231.26249    -37566.18547  21674748.944    21674755.113
       234.000         189.000
  21740860.095      512666.74449    391533.50646  21740859.686    21740864.934
       235.000         187.000
  22690348.377     4810100.07349   7224448.01146  22690348.658    22690355.386
       232.000         183.000
  24780624.193     -911099.20449   -691619.85345  24780623.032    24780634.190
       205.000         141.000
 99  4 23 19 57  0.0000000  0  8G30G10G24G 5G 8G 4G 9G 6
  22993362.549    -1262526.27949   -965247.93946  22993362.806    22993367.552
       225.000         167.000
  22714611.270    -1192326.30749   -896666.92846  22714609.903    22714618.357
       225.000         173.000
  20214649.709     -152460.00449   -110049.64748  20214649.110    20214654.490
       246.000         215.000
  20600743.697     -721941.86249   -541309.05547  20600743.152    20600747.543
       247.000         211.000
  21679109.772      -33318.36849    -19712.02347  21679109.065    21679115.072
       234.000         189.000
  21756191.033      593231.53649    454311.21446  21756190.803    21756196.149
       235.000         187.000
  22705338.158     4888871.03549   7285827.86646  22705338.072    22705344.469
       231.000         182.000
  24767686.801     -979085.57549   -744596.10045  24767685.698    24767695.369
       203.000         140.000
 99  4 23 19 57 30.0000000  0  8G30G10G24G 5G 8G 4G 9G 6
  22975425.251    -1356788.20549  -1038698.73646  22975425.084    22975430.200
       226.000         169.000
  22697842.284    -1280447.83049   -965332.95646  22697840.742    22697849.862
       224.000         172.000
  20216871.614     -140783.61049   -100951.16348  20216871.021    20216876.466
       246.000         215.000
  20592629.187     -764583.75849   -574536.51047  20592628.430    20592633.072
       246.000         211.000
  21683577.731       -9838.86749     -1416.36447  21683576.662    21683583.728
       233.000         189.000
  21771571.398      674055.53949    517290.91646  21771571.715    21771576.309
       234.000         187.000
  22720375.723     4967893.33649   7347403.56446  22720375.301    22720382.527
       230.000         182.000
  24754748.076    -1047078.39649   -797577.35245  24754748.484    24754756.075
       207.000         140.000
 99  4 23 19 58  0.0000000  0  8G30G10G24G 5G 8G 4G 9G 6
  22957511.387    -1450927.03049  -1112053.61546  22957511.436    22957516.709
       227.000         171.000
  22681108.819    -1368382.31049  -1033853.23346  22681107.286    22681115.968
       225.000         172.000
  20219177.893     -128663.88749    -91507.22948  20219177.445    20219182.515
       246.000         215.000
  20584582.932     -806866.89849   -607484.41647  20584582.240    20584586.657
       246.000         211.000
  21688147.288       14174.20849     17295.08547  21688146.549    21688153.256
       233.000         189.000
  21786998.457      755125.28349    580462.09846  21786998.135    21787003.496
       234.000         187.000
  22735450.810     5047113.42249   7409133.37646  22735450.215    22735458.349
       228.000         181.000
  24741802.645    -1115107.16349   -850586.59345  24741801.947    24741811.398
       208.000         141.000
 99  4 23 19 58 30.0000000  0  8G30G10G24G 5G 8G 4G 9G 6
  22939625.724    -1544917.47049  -1185292.86446  22939626.357    22939630.767
       227.000         172.000
  22664419.750    -1456083.56249  -1102191.78346  22664419.189    22664426.429
       226.000         172.000
  20221576.419     -116059.73449    -81685.81748  20221576.114    20221581.140
       246.000         215.000
  20576612.016     -848754.33149   -640123.97647  20576611.178    20576615.840
       246.000         211.000
  21692823.227       38746.59349     36442.34147  21692822.531    21692828.852
       233.000         189.000
  21802478.169      836471.80149    643848.94546  21802478.458    21802483.146
       233.000         186.000
  22750565.740     5126542.58349   7471026.11346  22750565.781    22750573.377
       229.000         180.000
  24728856.132    -1183141.97349   -903600.54745  24728855.500    24728864.382
       205.000         142.000
 99  4 23 19 59  0.0000000  0  8G30G10G24G 5G 8G 4G 9G 6
  22921768.485    -1638757.81049  -1258415.15546  22921768.650    22921773.424
       228.000         173.000
  22647774.882    -1543552.81549  -1170349.55746  22647773.663    22647781.653
       227.000         172.000
  20224065.259     -102980.97049    -71494.57248  20224064.931    20224069.878
       246.000         215.000
  20568720.356     -890225.20949   -672438.94447  20568719.562    20568724.494
       246.000         211.000
  21697607.400       63887.30649     56032.45847  21697607.069    21697613.088
       233.000         188.000
  21818009.896      918091.26149    707448.48146  21818010.136    21818014.888
       233.000         186.000
  22765716.096     5206157.64849   7533063.70046  22765716.422    22765723.015
       229.000         179.000
  24715909.423    -1251176.35649   -956614.16145  24715907.223    24715917.344
       203.000         141.000
 99  4 23 19 59 30.0000000  0  8G30G10G24G 5G 8G 4G 9G 6
  22903954.074    -1732373.16449  -1331362.13846  22903954.442    22903958.933
       227.000         173.000
  22631189.701    -1630708.24349  -1238262.78946  22631188.964    22631195.105
       226.000         172.000
  20226654.197      -89376.17249    -60893.43848  20226653.909    20226658.850
       246.000         215.000
  20560922.546     -931202.90249   -704369.61947  20560921.600    20560926.639
       246.000         211.000
  21702517.752       89691.16049     76139.31146  21702517.130    21702523.427
       232.000         187.000
  21833606.056     1000049.40549    771311.92846  21833605.609    21833610.972
       233.000         185.000
  22780915.304     5286028.82249   7595300.84946  22780916.080    22780922.528
       229.000         179.000
  24702977.865    -1319129.62949  -1009564.57645  24702976.155    24702986.883
       206.000         141.000
 99  4 23 20  0  0.0000000  0  8G30G10G24G 5G 8G 4G 9G 6
  22886158.023    -1825891.10749  -1404233.22246  22886157.833    22886163.194
       226.000         173.000
  22614641.653    -1717668.21849  -1306023.71246  22614639.701    22614648.775
       226.000         171.000
  20229316.978      -75383.32849    -49989.92448  20229316.695    20229321.689
       246.000         215.000
  20553195.386     -971809.15649   -736010.85547  20553194.719    20553199.515
       246.000         211.000
  21707528.582      116023.92349     96658.29947  21707527.382    21707534.421
       232.000         188.000
  21849237.366     1082192.58649    835319.55346  21849237.658    21849242.124
       233.000         184.000
  22796141.236     5366040.72649   7657647.67446  22796141.430    22796147.891
       229.000         179.000
  24690039.800    -1387118.28849  -1062542.59745  24690038.732    24690048.729
       205.000         141.000
 99  4 23 20  0 30.0000000  0  8G30G10G24G 5G 8G 4G 9G 6
  22868383.040    -1919298.23549  -1477017.95446  22868383.737    22868388.177
       225.000         172.000
  22598134.719    -1804412.30849  -1373616.42446  22598133.907    22598141.699
       226.000         172.000
  20232057.424      -60982.28249    -38768.33848  20232057.188    20232062.212
       246.000         215.000
  20545543.737    -1012018.56149   -767342.86547  20545543.057    20545548.019
       245.000         211.000
  21712644.169      142907.01849    117606.10347  21712643.520    21712650.558
       231.000         188.000
  21864905.872     1164530.99149    899479.31046  21864905.531    21864910.808
       233.000         184.000
  22811401.266     5446232.64649   7720134.75746  22811400.626    22811408.325
       227.000         178.000
  24677100.787    -1455113.16849  -1115525.44145  24677100.679    24677109.565
       208.000         143.000
 99  4 23 20  1  0.0000000  0  8G30G10G24G 5G 8G 4G 9G 6
  22850640.493    -2012535.29649  -1549670.16646  22850640.161    22850645.373
       226.000         172.000
  22581677.272    -1890896.39349  -1441006.51346  22581676.111    22581683.612
       226.000         174.000
  20234882.494      -46136.47649    -27200.18248  20234882.013    20234886.998
       245.000         215.000
  20537976.266    -1051786.10149   -798330.55847  20537975.515    20537980.431
       246.000         211.000
  21717872.874      170384.32749    139016.94447  21717872.410    21717879.657
       232.000         188.000
  21880619.812     1247108.21749    963825.14646  21880619.752    21880625.091
       233.000         185.000
  22826707.276     5526666.71949   7782810.52846  22826706.530    22826714.238
       227.000         176.000
  24664169.706    -1523067.44349  -1168476.64745  24664170.360    24664179.307
       210.000         146.000
 99  4 23 20  1 30.0000000  0  8G30G10G24G 5G 8G 4G 9G 6
  22832927.834    -2105615.86249  -1622200.43446  22832928.183    22832932.780
       227.000         172.000
  22565265.364    -1977141.48749  -1508210.38446  22565264.842    22565272.381
       227.000         174.000
  20237790.813      -30853.00549    -15290.99148  20237790.329    20237795.384
       246.000         215.000
  20530486.469    -1091145.17949   -828999.97447  20530485.920    20530490.861
       246.000         211.000
  21723206.448      198412.08349    160856.70447  21723206.107    21723212.742
       232.000         188.000
  21896377.509     1329915.49249   1028350.24946  21896377.593    21896382.787
       232.000         185.000
  22842057.627     5607333.30149   7845667.47446  22842057.493    22842065.848
       227.000         176.000
  24651243.769    -1590993.97949  -1221406.24545  24651243.339    24651253.269
       213.000         148.000
 99  4 23 20  2  0.0000000  0  8G30G10G24G 5G 8G 4G 9G 6
  22815235.595    -2198589.45549  -1694647.35746  22815235.151    22815240.690
       227.000         172.000
  22548887.766    -2063206.12049  -1575273.63546  22548886.071    22548894.366
       226.000         175.000
  20240777.254      -15159.16049     -3062.02448  20240777.012    20240781.895
       246.000         215.000
  20523066.542    -1130137.13349   -859383.31447  20523065.757    20523070.940
       246.000         211.000
  21728631.664      226921.41949    183071.71147  21728630.822    21728638.110
       233.000         188.000
  21912169.631     1412903.69349   1093016.32846  21912169.311    21912174.842
       232.000         185.000
  22857441.589     5688176.02549   7908661.67546  22857442.422    22857448.500
       227.000         176.000
  24638311.886    -1658952.10249  -1274360.47545  24638311.342    24638320.397
       217.000         150.000
 99  4 23 20  2 30.0000000  0  8G30G10G24G 5G 8G 4G 9G 6
  22797574.481    -2291399.02449  -1766966.46746  22797574.018    22797579.170
       226.000         172.000
  22532550.882    -2149056.30049  -1642169.76846  22532548.611    22532557.733
       224.000         174.000
  20243850.645         991.66549      9523.03448  20243850.244    20243855.370
       246.000         215.000
  20515723.960    -1168722.64349   -889449.95247  20515723.360    20515728.204
       244.000         211.000
  21734156.642      255955.07949    205695.28847  21734156.327    21734162.789
       233.000         188.000
  21928006.780     1496127.96249   1157866.36246  21928006.627    21928012.475
       232.000         184.000
  22872865.118     5769226.11149   7971817.45346  22872865.065    22872873.064
       228.000         176.000
  24625380.281    -1726908.02749  -1327312.98645  24625380.274    24625387.897
       216.000         153.000
 99  4 23 20  3  0.0000000  0  8G30G10G24G 5G 8G 4G 9G 6
  22779961.439    -2383955.47249  -1839088.33246  22779961.271    22779966.846
       226.000         172.000
  22516268.015    -2234622.25349  -1708844.42646  22516267.063    22516275.128
       225.000         174.000
  20247023.345       17664.52649     22514.87548  20247022.858    20247028.202
       245.000         215.000
  20508472.029    -1206831.80149   -919145.40347  20508471.261    20508476.233
       244.000         211.000
  21739795.492      285586.82549    228784.90347  21739795.303    21739801.819
       233.000         188.000
  21943900.097     1579647.55849   1222946.52046  21943899.974    21943904.541
       232.000         184.000
  22888338.291     5850537.36349   8035176.74846  22888338.763    22888345.168
       227.000         176.000
  24612461.670    -1794795.57049  -1380212.21245  24612461.108    24612470.119
       217.000         154.000
 99  4 23 20  3 30.0000000  0  8G30G10G24G 5G 8G 4G 9G 6
  22762384.266    -2476324.11249  -1911063.86146  22762383.720    22762389.355
       226.000         172.000
  22500028.020    -2319963.43549  -1775343.93546  22500026.706    22500034.918
       227.000         175.000
  20250284.399       34801.71549     35868.52548  20250283.910    20250289.227
       245.000         215.000
  20501299.271    -1244524.75149   -948516.53547  20501298.576    20501303.319
       244.000         211.000
  21745535.835      315751.59549    252289.86847  21745535.069    21745541.549
       232.000         188.000
  21959835.185     1663386.61849   1288197.68446  21959835.083    21959840.142
       232.000         183.000
  22903846.101     5932030.81449   8098677.99446  22903846.427    22903853.493
       228.000         177.000
  24599543.318    -1862681.15449  -1433109.93045  24599541.912    24599551.266
       217.000         154.000
 99  4 23 20  4  0.0000000  0  8G30G10G24G 5G 8G 4G 9G 6
  22744845.951    -2568488.02449  -1982879.87546  22744845.111    22744851.543
       225.000         172.000
  22483837.670    -2405044.16149  -1841640.48946  22483836.324    22483844.881
       228.000         178.000
  20253633.576       52401.74649     49582.83348  20253633.401    20253638.596
       245.000         214.000
  20494209.727    -1281780.65549   -977547.11047  20494209.234    20494214.041
       245.000         212.000
  21751380.767      346466.80849    276223.74946  21751380.093    21751386.592
       232.000         187.000
  21975811.177     1747340.74149   1353616.43746  21975811.412    21975815.773
       232.000         183.000
  22919390.385     6013715.48649   8162328.26746  22919390.186    22919397.574
       227.000         178.000
  24586625.506    -1930563.13849  -1486004.82145  24586623.884    24586632.647
       215.000         152.000
 99  4 23 20  4 30.0000000  0  8G30G10G24G 5G 8G 4G 9G 6
  22727350.368    -2660426.92749  -2054520.54346  22727350.123    22727355.932
       226.000         172.000
  22467704.651    -2489823.75649  -1907702.40646  22467703.682    22467711.148
       228.000         179.000
  20257072.007       70470.65549     63662.49548  20257071.601    20257076.818
       245.000         215.000
  20487206.015    -1318585.66049  -1006226.33947  20487205.483    20487210.317
       245.000         212.000
  21757333.017      377745.70349    300596.85446  21757333.252    21757339.026
       233.000         187.000
  21991828.486     1831512.08749   1419204.44946  21991828.514    21991834.073
       233.000         184.000
  22934975.480     6095614.87749   8226145.83346  22934975.857    22934982.534
       228.000         178.000
  24573714.691    -1998408.38049  -1538871.10545  24573713.082    24573722.346
       214.000         150.000
 99  4 23 20  5  0.0000000  0  8G30G10G24G 5G 8G 4G 9G 6
  22709897.790    -2752140.48649  -2125985.60946  22709897.465    22709903.112
       226.000         173.000
  22451632.580    -2574282.75849  -1973514.51146  22451631.659    22451638.461
       227.000         179.000
  20260599.020       89005.24249     78105.02448  20260598.599    20260603.923
       245.000         215.000
  20480289.254    -1354933.65949  -1034549.45847  20480288.671    20480293.438
       245.000         212.000
  21763389.655      409572.72449    325397.09146  21763389.809    21763395.340
       233.000         187.000
  22007885.810     1915893.76949   1484956.37446  22007886.177    22007890.687
       232.000         183.000
  22950601.398     6177729.04049   8290130.75746  22950601.129    22950607.801
       228.000         176.000
  24560810.584    -2066218.51149  -1591710.01645  24560809.266    24560818.047
       214.000         148.000
 99  4 23 20  5 30.0000000  0  8G30G10G24G 5G 8G 4G 9G 6
  22692476.169    -2843691.69549  -2197324.17346  22692476.825    22692480.884
       228.000         175.000
  22435611.934    -2658471.20849  -2039115.79446  22435610.030    22435619.026
       228.000         178.000
  20264204.734      107953.49149     92869.88948  20264204.443    20264209.856
       246.000         215.000
  20473450.695    -1390870.73949  -1062552.38348  20473450.015    20473454.420
       247.000         213.000
  21769538.625      441885.26349    350575.63347  21769537.952    21769544.313
       232.000         188.000
  22023975.702     2000446.13249   1550841.27946  22023975.799    22023980.891
       233.000         184.000
  22966260.462     6260017.88049   8354251.77646  22966261.058    22966267.745
       230.000         176.000
  24547901.365    -2134056.73849  -1644570.80345  24547900.682    24547908.719
       215.000         147.000
 99  4 23 20  6  0.0000000  0  8G30G10G24G 5G 8G 4G 9G 6
  22675110.651    -2934949.06549  -2268434.21746  22675112.157    22675117.003
       229.000         175.000
  22419668.877    -2742252.32649  -2104399.88846  22419667.157    22419675.516
       227.000         177.000
  20267915.024      127450.45849    108061.88948  20267914.884    20267920.390
       246.000         214.000
  20466717.089    -1426256.60349  -1090126.22648  20466716.947    20466721.418
       246.000         213.000
  21775808.716      474834.43249    376250.04246  21775808.471    21775814.941
       233.000         187.000
  22040124.555     2085308.22349   1616967.09546  22040124.989    22040129.707
       231.000         183.000
  22981980.220     6342624.58549   8418620.27346  22981980.976    22981987.582
       229.000         175.000
  24535012.744    -2201787.76549  -1697348.79445  24535013.384    24535019.494
       214.000         138.000
 99  4 23 20  6 30.0000000  0  8G30G10G24G 5G 8G 4G 9G 6
  22657756.937    -3026144.56849  -2339495.60146  22657757.801    22657762.409
       229.000         175.000
  22403754.012    -2825885.43949  -2169568.44746  22403753.394    22403760.808
       229.000         178.000
  20271686.631      147269.82849    123505.55048  20271686.573    20271691.725
       245.000         215.000
  20460042.808    -1461330.93149  -1117456.87648  20460042.547    20460047.044
       247.000         213.000
  21782157.942      508199.29349    402248.58747  21782157.566    21782163.298
       233.000         188.000
  22056290.513     2170260.61949   1683163.71646  22056290.398    22056295.819
       232.000         183.000
  22997714.760     6425309.26249   8483049.74946  22997714.294    22997722.015
       228.000         175.000
  24522101.177    -2269639.63049  -1750220.20745  24522100.183    24522109.575
       211.000         138.000
 99  4 23 20  7  0.0000000  0  8G30G10G24G 5G 8G 4G 9G 6
  22640426.063    -3117220.04149  -2410463.46146  22640425.869    22640431.290
       230.000         176.000
  22387874.621    -2909332.35549  -2234591.91346  22387872.968    22387880.809
       229.000         178.000
  20275529.779      167465.40649    139242.35648  20275529.643    20275534.693
       245.000         214.000
  20453438.745    -1496035.99549  -1144499.78848  20453438.269    20453442.731
       247.000         213.000
  21788597.992      542041.18049    428618.84546  21788597.468    21788603.618
       233.000         187.000
  22072486.706     2255371.90849   1749484.14746  22072486.895    22072492.234
       231.000         183.000
  23013472.755     6508117.70349   8547575.66546  23013472.794    23013480.960
       227.000         175.000
  24509172.054    -2337581.50049  -1803161.82445  24509172.773    24509180.512
       210.000         135.000
 99  4 23 20  7 30.0000000  0  8G30G10G24G 5G 8G 4G 9G 6
  22623139.647    -3208061.38349  -2481249.01546  22623139.716    22623143.182
       230.000         176.000
  22372052.586    -2992476.75549  -2299379.65446  22372050.792    22372058.888
       229.000         179.000
  20279469.665      188169.35949    155375.30248  20279469.485    20279474.711
       245.000         214.000
  20446928.212    -1530249.42649  -1171159.60848  20446927.856    20446932.336
       247.000         214.000
  21795154.437      576495.13649    455466.03246  21795154.229    21795160.051
       233.000         187.000
  22088735.144     2340758.10649   1816018.79146  22088735.407    22088740.809
       231.000         183.000
  23029276.180     6591164.75849   8612287.51546  23029275.484    23029284.340
       226.000         174.000
  24496251.825    -2405477.02449  -1856067.27145  24496250.039    24496259.159
       207.000         132.000
 99  4 23 20  8  0.0000000  0  8G30G10G24G 5G 8G 4G 9G 6
  22605910.700    -3298600.02249  -2551798.42446  22605911.303    22605915.535
       228.000         176.000
  22356302.805    -3075241.52749  -2363871.58246  22356301.584    22356309.412
       229.000         179.000
  20283517.714      209441.83549    171951.25548  20283517.463    20283522.444
       245.000         214.000
  20440523.163    -1563908.50949  -1197387.46948  20440522.701    20440527.179
       246.000         214.000
  21801839.061      611622.64749    482838.06847  21801838.102    21801844.696
       234.000         188.000
  22105046.218     2426473.09449   1882809.63546  22105046.305    22105052.169
       230.000         182.000
  23045133.582     6674495.75149   8677220.59646  23045133.156    23045140.882
       225.000         174.000
  24483356.826    -2473241.93749  -1908870.96644  24483357.434    24483365.639
       210.000         131.000
 99  4 23 20  8 30.0000000  0  8G30G10G24G 5G 8G 4G 9G 6

       229.000         175.000

       231.000         179.000

       246.000         214.000
  20434228.463    -1596988.64349  -1223164.63447  20434229.667    20434234.474
       246.000         212.000
  21808653.366      647430.89049    510741.00146  21808654.363    21808660.412
       234.000         187.000

       230.000         181.000
  23061048.563     6758128.81049   8742389.07246  23061050.367    23061058.042
       225.000         173.000

       206.000         130.000
 99  4 23 20  9  0.0000000  0  8G30G10G24G 5G 8G 4G 9G 6
  22571573.419    -3479045.47149  -2692405.11846  22571573.525    22571582.002
       230.000         176.000
  22324967.749    -3239911.40549  -2492185.47446  22324966.647    22324978.723
       231.000         179.000
  20291868.609      253322.55449    206144.17448  20291868.871    20291875.415
       247.000         214.000
  20427969.631    -1629881.94949  -1248795.64948  20427969.791    20427975.664
       247.000         213.000
  21815516.032      683492.10949    538840.45446  21815514.574    21815525.295
       235.000         186.000
  22137784.842     2598512.04049   2016865.93346  22137784.511    22137793.875
       233.000         180.000
  23076943.276     6841653.53449   8807473.26446  23076943.744    23076953.402
       226.000         173.000
  24457582.229    -2608689.64449  -2014413.83744  24457582.238    24457591.661
       210.000         131.000
 99  4 23 20  9 30.0000000  0  8G30G10G24G 5G 8G 4G 9G 6
  22554455.060    -3569005.22549  -2762503.67046  22554456.035    22554461.057
       229.000         177.000
  22309381.026    -3321821.53549  -2556011.52146  22309380.527    22309388.393
       229.000         179.000
  20296158.691      275865.62149    223710.05148  20296159.231    20296164.229
       245.000         214.000
  20421813.424    -1662234.60149  -1274005.43848  20421813.613    20421818.279
       246.000         213.000
  21822495.488      720168.17349    567419.08746  21822495.691    21822501.559
       232.000         186.000
  22154196.753     2684755.28549   2084068.34146  22154197.938    22154202.722
       231.000         180.000
  23092884.476     6925422.33949   8872747.34046  23092885.748    23092892.807
       224.000         172.000
  24444697.020    -2676403.00349  -2067177.86245  24444697.878    24444704.866
       208.000         133.000
 99  4 23 20 10  0.0000000  0  8G30G10G24G 5G 8G 4G 9G 6
  22537357.195    -3658856.02349  -2832517.24446  22537357.942    22537363.419
       229.000         178.000
  22293834.367    -3403520.18049  -2619672.72046  22293833.740    22293840.958
       229.000         179.000
  20300507.060      298715.09749    241514.82648  20300507.361    20300512.369
       246.000         214.000
  20415724.236    -1694234.76549  -1298940.64448  20415724.348    20415728.853
       246.000         214.000
  21829553.718      757258.11949    596320.28946  21829554.124    21829559.818
       233.000         186.000
  22170622.368     2771070.68749   2151327.02246  22170623.537    22170628.690
       231.000         180.000
  23108834.322     7009237.16949   8938057.42446  23108835.276    23108842.487
       225.000         172.000
  24431796.020    -2744198.82349  -2120005.60445  24431795.800    24431805.001
       205.000         137.000
 99  4 23 20 10 30.0000000  0  8G30G10G24G 5G 8G 4G 9G 6
  22520296.690    -3748510.03549  -2902377.45946  22520296.213    22520302.235
       230.000         179.000
  22278343.306    -3484926.43949  -2683106.07446  22278341.965    22278350.068
       230.000         180.000
  20304930.258      321958.29649    259626.41048  20304930.319    20304935.647
       245.000         214.000
  20409720.623    -1725784.95449  -1323525.20948  20409720.315    20409724.931
       246.000         214.000
  21836704.941      794836.82549    625602.35046  21836705.044    21836710.897
       233.000         186.000
  22187077.800     2857542.90649   2218707.92646  22187078.575    22187083.886
       231.000         180.000
  23124809.273     7093184.35849   9003470.67046  23124809.627    23124817.130
       226.000         172.000
  24418890.819    -2812016.26449  -2172850.20745  24418888.925    24418897.159
       205.000         137.000
 99  4 23 20 11  0.0000000  0  8G30G10G24G 5G 8G 4G 9G 6
  22503272.721    -3837972.09249  -2972088.10446  22503273.338    22503278.263
       231.000         180.000
  22262909.367    -3566032.90849  -2746305.83246  22262908.529    22262916.185
       232.000         180.000
  20309432.740      345618.35849    278062.81948  20309432.692    20309437.872
       245.000         214.000
  20403805.327    -1756870.70549  -1347747.87748  20403804.900    20403809.607
       246.000         214.000
  21843950.728      832912.95649    655272.00246  21843950.428    21843956.720
       233.000         186.000
  22203567.213     2944193.89049   2286228.10946  22203567.160    22203573.815
       230.000         180.000
  23140810.176     7177268.52349   9068990.64146  23140809.971    23140818.219
       225.000         171.000
  24405982.924    -2879846.97649  -2225705.13545  24405979.052    24405990.712
       201.000         138.000
 99  4 23 20 11 30.0000000  0  8G30G10G24G 5G 8G 4G 9G 6
  22486293.506    -3927198.93449  -3041615.48446  22486293.783    22486298.209
       230.000         180.000
  22247537.106    -3646815.47949  -2809253.19846  22247536.311    22247543.693
       233.000         181.000
  20314022.053      369734.92149    296854.93948  20314021.945    20314026.740
       246.000         214.000
  20397986.750    -1787447.97649  -1371574.32948  20397986.528    20397990.925
       246.000         214.000
  21851297.096      871517.60649    685353.49546  21851296.482    21851301.864
       233.000         185.000
  22220101.669     3031082.72949   2353933.63546  22220102.093    22220106.979
       230.000         179.000
  23156845.565     7261533.95749   9134651.86246  23156845.629    23156854.200
       226.000         172.000
  24393079.691    -2947651.99949  -2278540.04145  24393077.634    24393086.944
       199.000         137.000
 99  4 23 20 12  0.0000000  0  8G30G10G24G 5G 8G 4G 9G 6
  22469372.369    -4016120.28749  -3110904.80346  22469372.927    22469377.149
       232.000         181.000
  22232238.405    -3727210.81549  -2871898.81446  22232236.913    22232244.790
       231.000         181.000
  20318713.531      394388.32449    316065.38048  20318713.307    20318718.570
       246.000         214.000
  20392276.084    -1817458.27449  -1394958.97548  20392275.601    20392280.052
       246.000         214.000
  21858753.563      910701.01049    715885.97346  21858753.070    21858759.445
       233.000         185.000
  22236693.214     3118271.21449   2421872.65746  22236693.238    22236699.391
       230.000         179.000
  23172925.454     7346033.35449   9200495.40046  23172926.167    23172933.278
       225.000         172.000
  24380192.407    -3015372.16249  -2331308.83745  24380190.635    24380200.236
       201.000         138.000
 99  4 23 20 12 30.0000000  0  8G30G10G24G 5G 8G 4G 9G 6
  22452505.783    -4104754.84749  -3179970.66746  22452505.914    22452511.026
       231.000         181.000
  22217010.631    -3807232.59749  -2934253.34646  22217009.344    22217017.209
       230.000         181.000
  20323504.415      419564.33649    335683.04948  20323504.051    20323509.393
       245.000         214.000
  20386665.367    -1846942.89049  -1417934.00348  20386664.566    20386669.350
       246.000         214.000
  21866316.163      950442.10149    746853.00346  21866315.785    21866321.449
       234.000         186.000
  22253337.024     3205734.35149   2490025.69746  22253337.175    22253342.825
       230.000         179.000
  23189047.709     7430755.76149   9266512.70646  23189047.267    23189056.769
       223.000         170.000
  24367320.385    -3083012.78449  -2384015.66145  24367319.885    24367329.904
       206.000         142.000
 99  4 23 20 13  0.0000000  0  8G30G10G24G 5G 8G 4G 9G 6
  22435686.331    -4193141.41449  -3248843.28946  22435686.148    22435691.362
       232.000         181.000
  22201843.939    -3886933.83649  -2996358.12446  22201842.664    22201850.600
       231.000         182.000
  20328382.813      445200.32549    355659.13848  20328382.544    20328387.747
       246.000         214.000
  20381141.253    -1875972.30749  -1440554.33348  20381140.770    20381145.316
       246.000         214.000
  21873978.216      990706.46749    778227.77946  21873977.161    21873983.691
       232.000         185.000
  22270022.655     3293417.66249   2558350.28946  22270021.975    22270028.191
       229.000         178.000
  23205202.776     7515650.10449   9332663.96046  23205202.273    23205211.034
       224.000         171.000
  24354458.090    -3150604.88849  -2436684.68145  24354459.239    24354467.398
       212.000         148.000
 99  4 23 20 13 30.0000000  0  8G30G10G24G 5G 8G 4G 9G 6
  22418911.658    -4281293.32849  -3317533.06146  22418911.650    22418917.222
       233.000         181.000
  22186735.802    -3966327.38749  -3058223.13446  22186734.863    22186742.477
       231.000         183.000
  20333340.438      471252.81549    375959.77348  20333340.182    20333345.427
       245.000         214.000
  20375697.813    -1904578.08249  -1462844.55048  20375697.228    20375701.663
       247.000         214.000
  21881737.560     1031482.11349    810000.95546  21881736.989    21881742.733
       233.000         185.000
  22286741.588     3381276.28849   2626811.50346  22286741.820    22286747.680
       228.000         176.000
  23221384.970     7600687.23849   9398926.50746  23221385.849    23221393.284
       225.000         170.000
  24341599.554    -3218179.10349  -2489339.77745  24341599.911    24341607.884
       215.000         151.000
 99  4 23 20 14  0.0000000  0  8G30G10G24G 5G 8G 4G 9G 6
  22402167.255    -4369285.67049  -3386098.48946  22402168.062    22402172.515
       232.000         181.000
  22171674.432    -4045475.37349  -3119896.79746  22171672.780    22171680.102
       230.000         183.000
  20338361.175      497636.59449    396518.55348  20338360.806    20338365.927
       246.000         214.000
  20370321.072    -1932833.07349  -1484861.42848  20370320.361    20370325.224
       246.000         214.000
  21889582.984     1072710.15049    842126.64146  21889582.587    21889587.919
       233.000         185.000
  22303476.897     3469220.74949   2695339.58146  22303476.235    22303482.808
       227.000         175.000
  23237579.319     7685788.02749   9465238.66446  23237579.289    23237587.658
       224.000         170.000
  24328728.707    -3285816.98549  -2542044.49645  24328729.071    24328736.562
       217.000         153.000
 99  4 23 20 14 30.0000000  0  8G30G10G24G 5G 8G 4G 9G 6
  22385476.910    -4456995.30249  -3454444.06546  22385478.226    22385482.049
       233.000         180.000
  22156682.278    -4124259.10449  -3181287.07146  22156681.449    22156689.019
       230.000         182.000
  20343463.856      524451.01749    417413.23548  20343464.143    20343469.276
       245.000         214.000
  20365037.089    -1960600.58349  -1506498.11848  20365036.848    20365041.901
       246.000         213.000
  21896908.942     1114511.73949                                  21896837.355
       232.000         163.000
  22320250.421     3557365.82349   2764023.55846  22320250.462    22320256.256
       226.000         173.000
  23253809.978     7771079.99749   9531699.34146  23253810.052    23253818.487
       225.000         169.000
  24315868.581    -3353398.31749  -2594705.41445  24315868.365    24315877.136
       217.000         150.000
 99  4 23 20 15  0.0000000  0  8G30G10G24G 5G 8G 4G 9G 6
  22368806.914    -4544597.27149  -3522705.30646  22368806.797    22368811.704
       232.000         180.000
  22141729.728    -4202835.41049  -3242515.28446  22141728.640    22141736.524
       231.000         183.000
  20348616.238      551526.04849    438510.65648  20348616.316    20348621.621
       245.000         214.000
  20359819.948    -1988017.48749  -1527861.94348  20359819.590    20359824.264
       245.000         214.000

       234.000         132.000
  22337030.542     3645545.04349   2832734.58046  22337030.685    22337036.669
       228.000         174.000
  23270041.668     7856376.90649   9598164.30346  23270041.925    23270050.558
       223.000         170.000
  24302984.462    -3421105.00049  -2647463.70645  24302984.694    24302991.352
       217.000         155.000
 99  4 23 20 15 30.0000000  0  8G30G10G24G 5G 8G 4G 9G 6
  22352180.341    -4631970.01449  -3590787.93546  22352180.308    22352184.953
       231.000         179.000
  22126843.263    -4281064.29649  -3303472.77946  22126842.596    22126849.674
       230.000         184.000
  20353843.883      578997.07849    459916.65248  20353843.767    20353848.913
       245.000         214.000
  20354697.626    -2014935.99149  -1548837.40548  20354697.216    20354702.003
       245.000         213.000

       233.000         104.000
  22353840.928     3733884.22249   2901570.24546  22353841.637    22353847.456
       227.000         174.000
  23286297.487     7941801.18349   9664728.51246  23286297.482    23286306.111
       224.000         170.000
  24290097.912    -3488824.66049  -2700232.11545  24290098.505    24290105.690
       218.000         159.000
 99  4 23 20 16  0.0000000  0  8G30G10G24G 5G 8G 4G 9G 6
  22335598.595    -4719107.04049  -3658686.88846  22335598.547    22335603.364
       230.000         179.000
  22112023.278    -4358943.72649  -3364157.96346  22112022.835    22112029.613
       231.000         184.000
  20359149.005      606875.34249    481639.96748  20359149.044    20359154.033
       246.000         214.000
  20349672.778    -2041341.80649  -1569413.37348  20349672.305    20349677.079
       244.000         213.000
                   1450663.04946                                  21921930.012
       233.000         165.000
  22370682.101     3822384.66649   2970531.56446  22370682.539    22370687.743
       227.000         174.000
  23302577.955     8027354.39849   9731393.20046  23302577.711    23302586.713
       224.000         171.000
  24277209.272    -3556555.25849  -2753009.07945  24277208.119    24277217.042
       217.000         159.000
 99  4 23 20 16 30.0000000  0  8G30G10G24G 5G 8G 4G 9G 6
  22319076.814    -4805928.46649  -3726339.91246  22319076.535    22319081.979
       231.000         179.000
  22097283.876    -4436399.83449  -3424513.28446  22097282.700    22097290.381
       230.000         185.000
  20364545.483      635233.92849    503737.56148  20364545.279    20364550.457
       245.000         214.000
  20344756.772    -2067175.80149  -1589543.76648  20344756.338    20344760.975
       244.000         213.000
  21930256.899     1286449.64249   1484781.15146  21930255.880    21930262.633
       233.000         182.000
  22387564.441     3911101.50449   3039661.51146  22387565.471    22387570.243
       227.000         174.000
  23318893.681     8113093.44349   9798202.68746  23318892.657    23318901.934
       221.000         170.000
  24264330.865    -3624230.75449  -2805743.10745  24264328.915    24264338.590
       210.000         158.000
 99  4 23 20 17  0.0000000  0  8G30G10G24G 5G 8G 4G 9G 6
  22302605.870    -4892483.20649  -3793785.13046  22302605.937    22302610.457
       232.000         180.000
  22082615.304    -4513483.00249  -3484578.00846  22082614.094    22082622.008
       230.000         184.000
  20370023.814      664022.59049    526170.27848  20370023.506    20370028.850
       246.000         214.000
  20339936.714    -2092505.24149  -1609280.99648  20339936.275    20339940.887
       244.000         213.000
  21938684.331     1330735.86349   1519289.83146  21938684.125    21938689.971
       233.000         184.000
  22404475.683     3999970.12149   3108909.71846  22404475.624    22404480.654
       227.000         173.000
  23335232.140     8198952.77849   9865105.88346  23335232.155    23335240.891
       223.000         169.000
  24251451.881    -3691907.41849  -2858478.03745  24251450.610    24251458.753
       210.000         156.000
 99  4 23 20 17 30.0000000  0  8G30G10G24G 5G 8G 4G 9G 6
  22286196.621    -4978714.84049  -3860978.57946  22286196.707    22286201.507
       233.000         182.000
  22068024.264    -4590159.34949  -3544325.73546  22068022.956    22068030.880
       230.000         184.000
  20375591.537      693281.20349    548969.19248  20375591.132    20375596.509
       246.000         214.000
  20335218.850    -2117297.76649  -1628599.85548  20335218.201    20335222.976
       244.000         213.000
  21947213.008     1375553.90949   1554212.92546  21947212.741    21947218.504
       232.000         184.000
  22421420.910     4089016.77549   3178296.65846  22421421.573    22421425.998
       227.000         172.000
  23351603.142     8284982.03249   9932141.49846  23351603.701    23351611.397
       222.000         170.000
  24238582.633    -3759533.48949  -2911173.55045  24238581.629    24238589.972
       211.000         155.000
 99  4 23 20 18  0.0000000  0  8G30G10G24G 5G 8G 4G 9G 6
  22269837.816    -5064681.33649  -3927965.42946  22269838.262    22269842.386
       232.000         183.000
  22053500.542    -4666481.57549  -3603797.50346  22053499.720    22053507.010
       232.000         185.000
  20381237.101      722948.62149    572086.65548  20381236.823    20381242.122
       246.000         214.000
  20330590.660    -2141619.05849  -1647551.51648  20330590.065    20330594.974
       244.000         213.000
  21955831.861     1420846.08549   1589505.45846  21955831.414    21955837.106
       232.000         184.000
  22438388.215     4178179.86349   3247774.32846  22438388.807    22438393.675
       226.000         170.000
  23367997.019     8371132.06249   9999271.22246  23367997.162    23368006.020
       222.000         170.000
  24225714.805    -3827154.26349  -2963864.93445  24225715.436    24225722.279
       215.000         155.000
 99  4 23 20 18 30.0000000  0  8G30G10G24G 5G 8G 4G 9G 6
  22253534.901    -5150353.62949  -3994723.02646  22253534.978    22253539.951
       232.000         184.000
  22039049.755    -4742420.78849  -3662970.83746  22039048.704    22039056.449
       233.000         186.000
  20386966.295      753055.71349    595546.71748  20386966.217    20386971.398
       246.000         215.000
  20326058.705    -2165434.65749  -1666109.13648  20326057.923    20326063.099
       244.000         213.000
  21964548.098     1466650.04949   1625196.79146  21964547.280    21964553.445
       232.000         183.000
  22455385.840     4267502.56249   3317376.36946  22455385.690    22455391.461
       224.000         169.000
  23384421.355     8457441.69749  10066525.30846  23384420.992    23384430.851
       222.000         170.000
  24212855.541    -3894731.90549  -3016522.72645  24212856.348    24212863.169
       216.000         156.000
 99  4 23 20 19  0.0000000  0  8G30G10G24G 5G 8G 4G 9G 6
  22237255.487    -5235902.08049  -4061384.11846  22237255.918    22237260.762
       233.000         185.000
  22024639.747    -4818145.97049  -3721977.38946  22024638.760    22024645.619
       231.000         186.000
  20392748.045      783438.96449    619221.97148  20392747.924    20392752.997
       246.000         215.000
  20321594.664    -2188893.22049  -1684388.54348  20321593.953    20321599.162
       244.000         213.000
  21973329.991     1512798.56349   1661156.61246  21973329.820    21973335.781
       232.000         183.000
  22472385.831     4356837.51349   3386987.95046  22472385.961    22472391.251
       224.000         168.000
  23400849.120     8543769.43049  10133793.49946  23400848.839    23400858.148
       221.000         169.000
  24199975.247    -3962419.21049  -3069265.95345  24199975.406    24199981.611
       214.000         155.000
 99  4 23 20 19 30.0000000  0  8G30G10G24G 5G 8G 4G 9G 6
  22221048.041    -5321072.82249  -4127750.89446  22221048.388    22221053.627
       234.000         186.000
  22010319.078    -4893400.68949  -3780617.33946  22010317.464    22010325.253
       230.000         186.000
  20398629.904      814348.28049    643307.15148  20398629.583    20398634.782
       247.000         215.000
  20317247.195    -2211738.94849  -1702190.41048  20317246.573    20317251.566
       245.000         213.000
  21982224.675     1559540.09649   1697578.53246  21982224.153    21982230.641
       233.000         183.000
  22489437.381     4446443.84549   3456811.01346  22489438.006    22489442.773
       224.000         168.000
  23417329.251     8630372.30149  10201276.07546  23417328.881    23417338.423
       223.000         168.000
  24187121.252    -4029967.30849  -3121900.71345  24187121.114    24187127.669
       214.000         153.000
 99  4 23 20 20  0.0000000  0  8G30G10G24G 5G 8G 4G 9G 6
  22204884.665    -5406012.51349  -4193937.63646  22204884.838    22204889.868
       233.000         187.000
  21996060.262    -4968330.50849  -3839004.13446  21996059.395    21996066.504
       231.000         185.000
  20404583.457      845634.19349    667685.77148  20404583.311    20404588.470
       246.000         215.000
  20312988.115    -2234120.37049  -1719630.49148  20312987.541    20312992.706
       245.000         214.000
  21991206.130     1606737.79049   1734355.89046  21991205.096    21991211.288
       231.000         183.000
  22506514.113     4536182.79749   3526737.39646  22506513.945    22506520.021
       223.000         168.000
  23433831.487     8717091.04749  10268848.94646  23433831.826    23433839.447
       222.000         166.000
  24174263.196    -4097536.13349  -3174551.63145  24174262.866    24174270.183
       211.000         150.000
 99  4 23 20 20 30.0000000  0  8G30G10G24G 5G 8G 4G 9G 6
  22188769.774    -5490697.19249  -4259925.65546  22188769.974    22188774.837
       233.000         187.000
  21981866.369    -5042919.63449  -3897125.44046  21981865.271    21981872.864
       233.000         187.000
  20410609.567      877301.71349    692361.75448  20410609.469    20410614.576
       246.000         215.000
  20308818.712    -2256030.65749  -1736703.44748  20308818.268    20308823.254
       245.000         214.000
  22000275.383     1654397.18449   1771493.02646  22000274.957    22000281.906
       232.000         184.000
  22523618.364     4626066.41349   3596776.52246  22523617.434    22523623.978
       223.000         169.000
  23450355.033     8803921.80349  10336509.08946  23450354.677    23450363.185
       222.000         165.000
  24161403.073    -4165116.26649  -3227211.32945  24161403.448    24161409.435
       210.000         148.000
 99  4 23 20 21  0.0000000  0  8G30G10G24G 5G 8G 4G 9G 6
  22172715.412    -5575063.11549  -4325665.41446  22172714.889    22172719.629
       234.000         186.000
  21967749.502    -5117104.31949  -3954931.71947  21967748.314    21967755.037
       235.000         188.000
  20416717.202      909397.75749    717371.54248  20416716.541    20416721.606
       247.000         215.000
  20304747.865    -2277423.02849  -1753372.94448  20304747.116    20304752.143
       247.000         215.000
  22009443.731     1702576.99049   1809035.56246  22009443.090    22009448.812
       233.000         183.000
  22540760.624     4716149.79849   3666971.17046  22540760.646    22540766.100
       223.000         168.000
  23466904.884     8890891.14249  10404277.10446  23466904.900    23466912.831
       225.000         166.000
  24148549.786    -4232660.06349  -3279842.78045  24148547.988    24148556.910
       211.000         146.000
 99  4 23 20 21 30.0000000  0  8G30G10G24G 5G 8G 4G 9G 6
  22156697.222    -5659238.94349  -4391257.04646  22156697.428    22156702.235
       233.000         186.000
  21953688.864    -5190993.30549  -4012507.35347  21953687.808    21953695.179
       232.000         188.000
  20422882.324      941795.76149    742616.84448  20422882.073    20422887.366
       246.000         214.000
  20300752.234    -2298420.60649  -1769734.80948  20300751.842    20300757.025
       246.000         215.000
  22018690.905     1751170.90249   1846901.00446  22018690.698    22018696.820
       232.000         183.000
  22557916.264     4806303.26849   3737220.45346  22557915.310    22557922.324
       221.000         167.000
  23483452.411     8977848.63449  10472036.14046  23483452.964    23483461.472
       221.000         165.000
  24135680.091    -4300289.21849  -3332540.80145  24135677.598    24135687.528
       206.000         144.000
 99  4 23 20 22  0.0000000  0  8G30G10G24G 5G 8G 4G 9G 6
  22140729.329    -5743150.72849  -4456642.82446  22140729.042    22140735.012
       233.000         186.000
  21939701.132    -5264498.57449  -4069784.09647  21939699.942    21939707.615
       232.000         188.000
  20429120.846      974579.36249    768162.49848  20429120.694    20429125.916
       246.000         214.000
  20296850.080    -2318926.84649  -1785713.69948  20296849.623    20296854.861
       246.000         216.000
  22028033.058     1800263.97049   1885155.28446  22028032.231    22028039.301
       231.000         183.000
  22575103.213     4896621.80349   3807598.46446  22575103.251    22575109.878
       219.000         166.000
  23500013.001     9064875.17749  10539848.84546  23500012.780    23500021.273
       219.000         163.000
  24122813.739    -4367899.38549  -3385223.92945  24122811.825    24122821.394
       211.000         145.000
 99  4 23 20 22 30.0000000  0  8G30G10G24G 5G 8G 4G 9G 6
  22124813.240    -5826790.23849  -4521816.43446  22124812.491    22124818.213
       233.000         186.000
  21925790.535    -5337598.81549  -4126745.46147  21925789.482    21925796.460
       231.000         188.000
  20435434.099     1007755.77449    794014.01548  20435434.113    20435439.097
       246.000         214.000
  20293045.944    -2338917.99549  -1801291.22348  20293045.557    20293050.785
       246.000         216.000
  22037469.882     1849854.52349   1923796.99046  22037469.487    22037476.758
       230.000         183.000
  22592323.275     4987115.52749   3878112.97446  22592323.000    22592328.958
       220.000         165.000
  23516588.201     9151978.57649  10607721.20446  23516587.735    23516597.926
       220.000         164.000
  24109953.846    -4435476.72849  -3437881.49645  24109953.277    24109960.904
       212.000         147.000
 99  4 23 20 23  0.0000000  0  8G30G10G24G 5G 8G 4G 9G 6
  22108968.618    -5910053.74749  -4586697.06646  22108968.669    22108974.026
       233.000         186.000
  21911976.491    -5410191.69549  -4183311.25147  21911975.825    21911982.610
       232.000         188.000
  20441845.344     1041446.74549    820266.70748  20441845.055    20441850.419
       246.000         214.000
  20289362.613    -2358274.39949  -1816374.13848  20289362.307    20289367.363
       246.000         217.000
  22047020.670     1900044.50249   1962905.98346  22047020.305    22047027.563
       229.000         182.000
  22609596.392     5077885.98249   3948843.12846  22609597.102    22609603.432
       220.000         164.000
  23533199.559     9239270.98349  10675741.08346  23533200.165    23533209.017
       221.000         164.000
  24097121.256    -4502912.76749  -3490428.91145  24097121.650    24097128.804
       214.000         149.000
 99  4 23 20 23 30.0000000  0  8G30G10G24G 5G 8G 4G 9G 6
  22093146.221    -5993200.92349  -4651487.04446  22093146.283    22093151.689
       233.000         186.000
  21898206.605    -5482552.91749  -4239696.53947  21898205.788    21898212.460
       232.000         188.000
  20448304.331     1075388.97949    846715.18748  20448304.204    20448309.667
       246.000         214.000
  20285749.190    -2377263.36349  -1831170.73548  20285748.668    20285753.679
       246.000         217.000
  22056629.734     1950540.58449   2002253.50546  22056630.063    22056636.027
       229.000         182.000
  22626867.502     5168645.22949   4019564.54846  22626868.205    22626873.827
       222.000         164.000
  23549800.059     9326505.80349  10743716.07846  23549801.262    23549809.695
       221.000         165.000
  24084265.531    -4570470.42049  -3543071.12145  24084265.320    24084272.196
       217.000         150.000
 99  4 23 20 24  0.0000000  0  8G30G10G24G 5G 8G 4G 9G 6
  22077375.348    -6076077.25649  -4716065.97946  22077375.521    22077380.195
       233.000         186.000
  21884504.233    -5554559.12649  -4295805.19347  21884502.574    21884510.351
       232.000         188.000
  20454836.632     1109716.35449    873463.77548  20454836.381    20454841.824
       245.000         214.000
  20282229.943    -2395757.17149  -1845581.50148  20282229.585    20282234.487
       246.000         217.000
  22066317.840     2001451.88149   2041924.58746  22066317.346    22066324.394
       230.000         182.000
  22644161.322     5259524.72649   4090379.66446  22644160.804    22644167.616
       222.000         164.000
  23566414.428     9413813.65149  10811747.95146  23566415.760    23566425.604
       222.000         166.000
  24071409.005    -4638031.93249  -3595716.34145  24071408.061    24071416.325
       217.000         150.000
 99  4 23 20 24 30.0000000  0  8G30G10G24G 5G 8G 4G 9G 6
  22061672.534    -6158595.60249  -4780365.97046  22061672.602    22061677.103
       234.000         186.000
  21870881.478    -5626147.08149  -4351587.93747  21870881.144    21870887.665
       233.000         188.000
  20461454.838     1144495.37949    900564.29948  20461454.660    20461460.008
       245.000         214.000
  20278814.296    -2413706.49849  -1859567.99948  20278813.869    20278818.954
       246.000         217.000
  22076095.798     2052834.83749   2081963.18746  22076095.137    22076102.185
       230.000         182.000
  22661487.165     5350572.55049   4161325.96846  22661487.309    22661493.951
       224.000         165.000
  23583053.885     9501252.81849  10879882.18446  23583054.091    23583063.040
       223.000         165.000

       216.000         149.000
 99  4 23 20 25  0.0000000  0  8G30G10G24G 5G 8G 4G 9G 6
  22046027.708    -6240809.86149  -4844429.00546  22046027.872    22046032.149
       234.000         186.000
  21857326.710    -5697378.00349  -4407092.46847  21857325.428    21857332.967
       233.000         189.000
  20468146.854     1179662.28549    927967.07148  20468146.777    20468152.018
       245.000         214.000
  20275486.278    -2431195.49549  -1873195.79848  20275485.783    20275490.827
       246.000         217.000
  22085952.025     2104629.34249   2122322.47246  22085951.474    22085958.240
       228.000         181.000
  22678832.415     5441721.86549   4232351.34246  22678832.731    22678838.412
       223.000         165.000
  23599707.191     9588765.22149  10948073.48546  23599707.592    23599715.726
       221.000         164.000
  24045713.085    -4773066.42849  -3700938.04545  24045714.378    24045719.972
       217.000         151.000
 99  4 23 20 25 30.0000000  0  8G30G10G24G 5G 8G 4G 9G 6
  22030425.633    -6322799.19949  -4908316.77846  22030425.983    22030429.757
       235.000         186.000
  21843828.175    -5768313.00849  -4462366.41347  21843827.693    21843834.132
       233.000         189.000
  20474892.790     1215112.04149    955590.24148  20474892.617    20474898.043
       245.000         214.000
  20272229.732    -2448308.84849  -1886530.89148  20272229.288    20272234.154
       246.000         217.000
  22095871.562     2156757.15449   2162941.46146  22095871.067    22095878.180
       228.000         181.000
  22696182.793     5532898.27349   4303397.83446  22696184.329    22696188.932
       222.000         165.000
  23616356.999     9676260.19749  11016251.17346  23616356.836    23616366.102
       220.000         163.000
  24032846.984    -4840679.39049  -3753623.36945  24032847.286    24032854.006
       218.000         152.000
 99  4 23 20 26  0.0000000  0  8G30G10G24G 5G 8G 4G 9G 6
  22014880.887    -6404487.35349  -4971969.85346  22014880.905    22014885.740
       236.000         187.000
  21830407.448    -5838838.90149  -4517321.58147  21830406.314    21830413.371
       233.000         190.000
  20481708.772     1250930.27349    983500.53848  20481708.488    20481713.785
       245.000         213.000
  20269062.256    -2464954.14849  -1899501.26748  20269061.890    20269066.657
       247.000         217.000
  22105876.951     2209335.67349   2203911.65046  22105876.250    22105884.017
       229.000         180.000
  22713556.369     5624196.73949   4374539.41946  22713556.012    22713562.532
       221.000         164.000
  23633019.185     9763820.22749  11084479.56545  23633018.612    23633027.782
       220.000         162.000
  24019980.618    -4908292.35049  -3806308.69845  24019980.014    24019987.454
       215.000         153.000
 99  4 23 20 26 30.0000000  0  8G30G10G24G 5G 8G 4G 9G 6
  21999392.634    -6485879.06749  -5035391.92947  21999392.907    21999397.133
       236.000         189.000
  21817069.258    -5908931.07549  -4571938.77647  21817067.888    21817075.779
       233.000         189.000
  20488592.743     1287105.59849   1011689.09848  20488592.473    20488597.974
       245.000         213.000
  20265985.479    -2481122.99549  -1912100.38048  20265984.941    20265989.804
       247.000         217.000
  22115972.000     2262385.44949   2245249.05246  22115971.492    22115978.084
       229.000         180.000
  22730951.795     5715610.73249   4445771.03546  22730952.069    22730958.448
       222.000         165.000
  23649696.110     9851457.68949  11152768.29246  23649695.167    23649705.513
       217.000         163.000
  24007117.407    -4975887.32149  -3858980.01845  24007114.960    24007124.642
       212.000         153.000
 99  4 23 20 27  0.0000000  0  8G30G10G24G 5G 8G 4G 9G 6
  21983961.872    -6566968.30149  -5098578.31447  21983962.410    21983966.837
       236.000         190.000
  21803817.668    -5978568.12749  -4626201.35647  21803816.732    21803823.710
       234.000         188.000
  20495545.384     1323641.84949   1040158.89148  20495545.109    20495550.534
       245.000         213.000
  20263006.788    -2496776.40049  -1924297.86148  20263006.592    20263011.151
       247.000         217.000
  22126161.298     2315930.11549   2286972.08046  22126160.838    22126168.075
       228.000         180.000
  22748371.374     5807150.61749   4517100.73546  22748371.930    22748377.972
       222.000         166.000
  23666390.991     9939190.26249  11221131.12045  23666391.028    23666400.851
       218.000         162.000
  23994259.939    -5043450.86349  -3911626.85545  23994257.521    23994267.362
       211.000         153.000
 99  4 23 20 27 30.0000000  0  8G30G10G24G 5G 8G 4G 9G 6
  21968584.877    -6647775.26849  -5161544.75047  21968585.485    21968590.285
       236.000         190.000
  21790649.566    -6047766.53649  -4680122.12447  21790648.408    21790655.367
       233.000         188.000
  20502564.342     1360526.76949   1068900.37148  20502564.210    20502569.524
       245.000         213.000
  20260129.363    -2511897.78649  -1936080.77548  20260129.214    20260133.873
       247.000         217.000
  22136444.108     2369966.80749   2329078.51546  22136444.169    22136451.682
       229.000         180.000
  22765809.672     5898789.36249   4588507.48046  22765810.258    22765816.596
       224.000         167.000
  23683101.666    10027005.14849  11289558.10045  23683101.520    23683111.616
       218.000         161.000
  23981403.759    -5111007.94749  -3964268.63045  23981403.290    23981411.128
       212.000         152.000
 99  4 23 20 28  0.0000000  0  8G30G10G24G 5G 8G 4G 9G 6
  21953262.726    -6728294.04449  -5224286.61947  21953263.062    21953267.246
       237.000         190.000
  21777559.687    -6116554.08949  -4733722.74147  21777558.990    21777565.552
       234.000         189.000
  20509650.625     1397765.43949   1097917.50348  20509650.524    20509655.822
       245.000         213.000
  20257354.242    -2526481.30649  -1947444.57348  20257353.766    20257358.443
       247.000         217.000
  22146819.893     2424491.71949   2371565.37746  22146819.776    22146826.965
       228.000         180.000
  22783263.968     5990511.27449   4659979.03046  22783265.224    22783270.082
       225.000         168.000
  23699827.868    10114900.95249  11358048.12645  23699828.920    23699838.447
       218.000         162.000
  23968550.310    -5178553.08549  -4016901.09145  23968551.127    23968558.292
       215.000         153.000
 99  4 23 20 28 30.0000000  0  8G30G10G24G 5G 8G 4G 9G 6
  21937991.422    -6808545.14849  -5286819.91447  21937991.395    21937996.003
       236.000         191.000
  21764538.728    -6184979.73649  -4787041.35847  21764538.104    21764544.592
       235.000         190.000
  20516797.376     1435321.69949   1127182.10848  20516797.277    20516802.792
       245.000         214.000
  20254677.179    -2540549.70049  -1958406.97548  20254676.799    20254681.465
       247.000         217.000
  22157275.578     2479436.10749   2414379.10046  22157275.367    22157282.553
       229.000         181.000
  22800727.856     6082283.72649   4731489.96246  22800729.274    22800734.488
       227.000         169.000
  23716561.646    10202835.65849  11426568.47845  23716562.765    23716572.366
       218.000         161.000
  23955690.716    -5246132.42049  -4069560.20245  23955691.950    23955697.700
       216.000         153.000
 99  4 23 20 29  0.0000000  0  8G30G10G24G 5G 8G 4G 9G 6
  21922781.782    -6888471.93349  -5349100.48947  21922782.024    21922786.687
       236.000         191.000
  21751594.016    -6253004.39349  -4840047.51247  21751592.826    21751600.190
       234.000         191.000
  20524017.713     1473264.81249   1156748.16048  20524017.688    20524023.190
       245.000         214.000
  20252107.688    -2554052.74449  -1968928.83748  20252107.278    20252111.794
       248.000         217.000
  22167816.916     2534830.30949   2457543.34146  22167816.340    22167823.025
       229.000         180.000
  22818212.648     6174166.48149   4803086.86846  22818213.140    22818219.371
       227.000         170.000
  23733310.826    10290851.94049  11495152.35545  23733311.031    23733321.230
       217.000         161.000
  23942832.840    -5313703.21349  -4122212.65845  23942833.851    23942839.174
       216.000         153.000
 99  4 23 20 29 30.0000000  0  8G30G10G24G 5G 8G 4G 9G 6
  21907651.826    -6967980.26849  -5411055.00147  21907651.768    21907656.462
       237.000         192.000
  21738742.690    -6320538.07249  -4892671.08847  21738742.012    21738748.506
       235.000         191.000
  20531329.258     1511687.25749   1186687.71548  20531329.207    20531334.698
       245.000         214.000
  20249659.351    -2566919.03149  -1978954.52848  20249658.843    20249663.536
       247.000         217.000
  22178455.880     2590737.89949   2501107.59646  22178455.944    22178462.021
       229.000         180.000
  22835735.764     6266250.36849   4874840.47946  22835737.058    22835742.061
       227.000         170.000
  23750089.192    10379021.58349  11563855.74045  23750089.545    23750098.954
       217.000         161.000
  23929992.303    -5381181.08749  -4174792.72745  23929991.701    23929999.129
       214.000         153.000
 99  4 23 20 30  0.0000000  0  8G30G10G24G 5G 8G 4G 9G 6
  21892575.219    -7047208.66849  -5472791.38147  21892575.385    21892580.357
       237.000         192.000
  21725959.289    -6387715.42849  -4945017.01447  21725958.382    21725965.036
       235.000         192.000
  20538703.916     1550440.82249   1216885.27948  20538703.951    20538709.171
       246.000         214.000
  20247302.012    -2579307.05049  -1988607.54648  20247301.455    20247306.270
       248.000         217.000
  22189160.817     2646991.71449   2544941.66346  22189160.544    22189166.305
       229.000         180.000
  22853273.091     6358408.89949   4946652.25346  22853272.549    22853278.750
       226.000         169.000
  23766867.421    10467190.67249  11632558.71245  23766867.340    23766877.240
       218.000         161.000
  23917142.306    -5448706.22449  -4227409.63945  23917139.959    23917149.267
       215.000         154.000
 99  4 23 20 30 30.0000000  0  8G30G10G24G 5G 8G 4G 9G 6
  21877581.851    -7125999.22149  -5534186.58747  21877581.805    21877586.508
       237.000         192.000
  21713278.749    -6454352.17449  -4996941.67347  21713277.940    21713284.470
       235.000         192.000
  20546171.500     1589683.23849   1247463.77548  20546171.302    20546176.530
       245.000         214.000
  20245063.656    -2591069.50149  -1997773.10048  20245063.204    20245067.748
       248.000         217.000
  22199959.816     2703740.46649   2589161.37646  22199959.008    22199965.242
       229.000         179.000
  22870854.083     6450797.04749   5018642.95746  22870854.657    22870860.593
       224.000         169.000
  23783674.828    10555513.02149  11701381.10845  23783675.624    23783684.725
       218.000         162.000
  23904312.699    -5516124.66149  -4279943.42645  23904311.240    23904319.503
       215.000         155.000
 99  4 23 20 31  0.0000000  0  8G30G10G24G 5G 8G 4G 9G 6
  21862641.580    -7204510.58349  -5595364.24947  21862641.618    21862646.262
       236.000         192.000
  21700672.278    -6520599.41949  -5048562.83347  21700671.068    21700678.202
       235.000         192.000
  20553699.150     1629241.21449   1278288.15448  20553699.090    20553704.218
       245.000         214.000
  20242913.323    -2602369.74549  -2006578.49648  20242912.973    20242917.406
       248.000         217.000
  22210825.351     2760838.85249   2633653.54946  22210825.016    22210831.296
       227.000         179.000
  22888447.606     6543251.46649   5090685.27946  22888447.228    22888454.069
       226.000         169.000
  23800480.707    10643827.84949  11770197.63345  23800480.520    23800489.905
       218.000         160.000
  23891474.807    -5583587.06549  -4332511.45545  23891474.007    23891481.868
       214.000         156.000
